<?xml version="1.0" encoding="UTF-8" standalone="no" ?>
<gpx xmlns="http://www.topografix.com/GPX/1/1" xmlns:xsi="http://www.w3.org/2001/XMLSchema-instance" xsi:schemaLocation="http://www.topografix.com/GPX/1/1 http://www.topografix.com/GPX/1/1/gpx.xsd" version="1.1" creator="VisuGPX - https://www.visugpx.com">
  <metadata>
    <name>Larajasse - signal de Saint-André-la-Côte</name>
    <desc><![CDATA[Belle boucle au départ de Larajasse. Le tracé peut être écourté si nécessaire à Lamure.]]></desc>
  </metadata>
  <trk>
    <name><![CDATA[Tour par Gimio - Signal Saint André la Côte - Balmont]]></name>
    <trkseg>
      <trkpt lat="45.61669" lon="4.49514">
        <ele>665.36962890625</ele>
        <time>2012-04-07T07:28:20Z</time>
      </trkpt>
      <trkpt lat="45.61671" lon="4.49514">
        <ele>665.85034179688</ele>
        <time>2012-04-07T07:28:21Z</time>
      </trkpt>
      <trkpt lat="45.61676" lon="4.49517">
        <ele>666.33081054688</ele>
        <time>2012-04-07T07:28:23Z</time>
      </trkpt>
      <trkpt lat="45.61679" lon="4.49533">
        <ele>667.77270507812</ele>
        <time>2012-04-07T07:28:27Z</time>
      </trkpt>
      <trkpt lat="45.61674" lon="4.49566">
        <ele>672.57958984375</ele>
        <time>2012-04-07T07:28:35Z</time>
      </trkpt>
      <trkpt lat="45.61664" lon="4.49568">
        <ele>674.021484375</ele>
        <time>2012-04-07T07:28:39Z</time>
      </trkpt>
      <trkpt lat="45.61641" lon="4.49545">
        <ele>676.4248046875</ele>
        <time>2012-04-07T07:28:48Z</time>
      </trkpt>
      <trkpt lat="45.61623" lon="4.49536">
        <ele>677.86669921875</ele>
        <time>2012-04-07T07:28:54Z</time>
      </trkpt>
      <trkpt lat="45.61604" lon="4.49539">
        <ele>678.828125</ele>
        <time>2012-04-07T07:29:00Z</time>
      </trkpt>
      <trkpt lat="45.61591" lon="4.49553">
        <ele>679.30859375</ele>
        <time>2012-04-07T07:29:05Z</time>
      </trkpt>
      <trkpt lat="45.61583" lon="4.49581">
        <ele>680.27001953125</ele>
        <time>2012-04-07T07:29:11Z</time>
      </trkpt>
      <trkpt lat="45.61586" lon="4.49612">
        <ele>681.7119140625</ele>
        <time>2012-04-07T07:29:17Z</time>
      </trkpt>
      <trkpt lat="45.6159" lon="4.49668">
        <ele>684.11547851562</ele>
        <time>2012-04-07T07:29:28Z</time>
      </trkpt>
      <trkpt lat="45.61588" lon="4.49715">
        <ele>685.55737304688</ele>
        <time>2012-04-07T07:29:37Z</time>
      </trkpt>
      <trkpt lat="45.6158" lon="4.4977">
        <ele>687.96069335938</ele>
        <time>2012-04-07T07:29:48Z</time>
      </trkpt>
      <trkpt lat="45.61575" lon="4.49803">
        <ele>690.36401367188</ele>
        <time>2012-04-07T07:29:55Z</time>
      </trkpt>
      <trkpt lat="45.6157" lon="4.49831">
        <ele>692.28662109375</ele>
        <time>2012-04-07T07:30:01Z</time>
      </trkpt>
      <trkpt lat="45.61564" lon="4.49873">
        <ele>693.728515625</ele>
        <time>2012-04-07T07:30:10Z</time>
      </trkpt>
      <trkpt lat="45.61557" lon="4.49931">
        <ele>695.65112304688</ele>
        <time>2012-04-07T07:30:22Z</time>
      </trkpt>
      <trkpt lat="45.61551" lon="4.49983">
        <ele>697.09301757812</ele>
        <time>2012-04-07T07:30:33Z</time>
      </trkpt>
      <trkpt lat="45.61544" lon="4.50025">
        <ele>699.015625</ele>
        <time>2012-04-07T07:30:42Z</time>
      </trkpt>
      <trkpt lat="45.6154" lon="4.50059">
        <ele>699.97705078125</ele>
        <time>2012-04-07T07:30:49Z</time>
      </trkpt>
      <trkpt lat="45.61536" lon="4.5009">
        <ele>701.41918945312</ele>
        <time>2012-04-07T07:30:56Z</time>
      </trkpt>
      <trkpt lat="45.61535" lon="4.50091">
        <ele>701.89990234375</ele>
        <time>2012-04-07T07:31:02Z</time>
      </trkpt>
      <trkpt lat="45.61534" lon="4.50098">
        <ele>705.26440429688</ele>
        <time>2012-04-07T07:31:27Z</time>
      </trkpt>
      <trkpt lat="45.61535" lon="4.501">
        <ele>704.78369140625</ele>
        <time>2012-04-07T07:31:28Z</time>
      </trkpt>
      <trkpt lat="45.61555" lon="4.50108">
        <ele>704.30322265625</ele>
        <time>2012-04-07T07:31:34Z</time>
      </trkpt>
      <trkpt lat="45.61581" lon="4.50123">
        <ele>702.86108398438</ele>
        <time>2012-04-07T07:31:40Z</time>
      </trkpt>
      <trkpt lat="45.61611" lon="4.50149">
        <ele>696.1318359375</ele>
        <time>2012-04-07T07:31:46Z</time>
      </trkpt>
      <trkpt lat="45.61646" lon="4.50184">
        <ele>690.84448242188</ele>
        <time>2012-04-07T07:31:52Z</time>
      </trkpt>
      <trkpt lat="45.61657" lon="4.50198">
        <ele>687.96069335938</ele>
        <time>2012-04-07T07:31:55Z</time>
      </trkpt>
      <trkpt lat="45.61666" lon="4.50211">
        <ele>683.63452148438</ele>
        <time>2012-04-07T07:31:59Z</time>
      </trkpt>
      <trkpt lat="45.61687" lon="4.50233">
        <ele>682.19262695312</ele>
        <time>2012-04-07T07:32:04Z</time>
      </trkpt>
      <trkpt lat="45.617" lon="4.50261">
        <ele>676.90551757812</ele>
        <time>2012-04-07T07:32:08Z</time>
      </trkpt>
      <trkpt lat="45.61707" lon="4.50274">
        <ele>675.46337890625</ele>
        <time>2012-04-07T07:32:10Z</time>
      </trkpt>
      <trkpt lat="45.61726" lon="4.50297">
        <ele>672.57958984375</ele>
        <time>2012-04-07T07:32:14Z</time>
      </trkpt>
      <trkpt lat="45.61752" lon="4.50323">
        <ele>669.69580078125</ele>
        <time>2012-04-07T07:32:19Z</time>
      </trkpt>
      <trkpt lat="45.61777" lon="4.50349">
        <ele>665.85034179688</ele>
        <time>2012-04-07T07:32:24Z</time>
      </trkpt>
      <trkpt lat="45.61789" lon="4.50376">
        <ele>662.96630859375</ele>
        <time>2012-04-07T07:32:28Z</time>
      </trkpt>
      <trkpt lat="45.6181" lon="4.50423">
        <ele>655.75659179688</ele>
        <time>2012-04-07T07:32:34Z</time>
      </trkpt>
      <trkpt lat="45.61823" lon="4.50472">
        <ele>652.39184570312</ele>
        <time>2012-04-07T07:32:40Z</time>
      </trkpt>
      <trkpt lat="45.61833" lon="4.50499">
        <ele>647.58520507812</ele>
        <time>2012-04-07T07:32:44Z</time>
      </trkpt>
      <trkpt lat="45.61838" lon="4.5051">
        <ele>646.6240234375</ele>
        <time>2012-04-07T07:32:46Z</time>
      </trkpt>
      <trkpt lat="45.61847" lon="4.50532">
        <ele>644.220703125</ele>
        <time>2012-04-07T07:32:50Z</time>
      </trkpt>
      <trkpt lat="45.61857" lon="4.50559">
        <ele>640.85595703125</ele>
        <time>2012-04-07T07:32:54Z</time>
      </trkpt>
      <trkpt lat="45.6187" lon="4.50614">
        <ele>634.12670898438</ele>
        <time>2012-04-07T07:32:59Z</time>
      </trkpt>
      <trkpt lat="45.61891" lon="4.50683">
        <ele>627.87817382812</ele>
        <time>2012-04-07T07:33:04Z</time>
      </trkpt>
      <trkpt lat="45.61923" lon="4.50724">
        <ele>625.95556640625</ele>
        <time>2012-04-07T07:33:08Z</time>
      </trkpt>
      <trkpt lat="45.6196" lon="4.50767">
        <ele>626.9169921875</ele>
        <time>2012-04-07T07:33:13Z</time>
      </trkpt>
      <trkpt lat="45.61992" lon="4.50801">
        <ele>627.87817382812</ele>
        <time>2012-04-07T07:33:18Z</time>
      </trkpt>
      <trkpt lat="45.62014" lon="4.50832">
        <ele>629.32006835938</ele>
        <time>2012-04-07T07:33:23Z</time>
      </trkpt>
      <trkpt lat="45.62039" lon="4.50878">
        <ele>628.83959960938</ele>
        <time>2012-04-07T07:33:30Z</time>
      </trkpt>
      <trkpt lat="45.62062" lon="4.50914">
        <ele>624.99438476562</ele>
        <time>2012-04-07T07:33:34Z</time>
      </trkpt>
      <trkpt lat="45.62091" lon="4.50962">
        <ele>622.1103515625</ele>
        <time>2012-04-07T07:33:39Z</time>
      </trkpt>
      <trkpt lat="45.62098" lon="4.50971">
        <ele>621.14916992188</ele>
        <time>2012-04-07T07:33:40Z</time>
      </trkpt>
      <trkpt lat="45.62133" lon="4.51004">
        <ele>615.86181640625</ele>
        <time>2012-04-07T07:33:45Z</time>
      </trkpt>
      <trkpt lat="45.62159" lon="4.51027">
        <ele>611.05517578125</ele>
        <time>2012-04-07T07:33:49Z</time>
      </trkpt>
      <trkpt lat="45.62181" lon="4.51049">
        <ele>605.76806640625</ele>
        <time>2012-04-07T07:33:54Z</time>
      </trkpt>
      <trkpt lat="45.62197" lon="4.51061">
        <ele>601.92260742188</ele>
        <time>2012-04-07T07:33:57Z</time>
      </trkpt>
      <trkpt lat="45.62217" lon="4.51073">
        <ele>594.71264648438</ele>
        <time>2012-04-07T07:34:02Z</time>
      </trkpt>
      <trkpt lat="45.62234" lon="4.51082">
        <ele>588.94506835938</ele>
        <time>2012-04-07T07:34:06Z</time>
      </trkpt>
      <trkpt lat="45.62251" lon="4.51079">
        <ele>585.099609375</ele>
        <time>2012-04-07T07:34:10Z</time>
      </trkpt>
      <trkpt lat="45.62264" lon="4.51064">
        <ele>581.25439453125</ele>
        <time>2012-04-07T07:34:13Z</time>
      </trkpt>
      <trkpt lat="45.62278" lon="4.51068">
        <ele>581.25439453125</ele>
        <time>2012-04-07T07:34:17Z</time>
      </trkpt>
      <trkpt lat="45.6228" lon="4.51083">
        <ele>580.29296875</ele>
        <time>2012-04-07T07:34:19Z</time>
      </trkpt>
      <trkpt lat="45.62289" lon="4.51113">
        <ele>576.44775390625</ele>
        <time>2012-04-07T07:34:23Z</time>
      </trkpt>
      <trkpt lat="45.62321" lon="4.51138">
        <ele>571.16040039062</ele>
        <time>2012-04-07T07:34:28Z</time>
      </trkpt>
      <trkpt lat="45.6237" lon="4.51164">
        <ele>565.392578125</ele>
        <time>2012-04-07T07:34:34Z</time>
      </trkpt>
      <trkpt lat="45.62384" lon="4.51173">
        <ele>562.9892578125</ele>
        <time>2012-04-07T07:34:36Z</time>
      </trkpt>
      <trkpt lat="45.62423" lon="4.51204">
        <ele>557.22143554688</ele>
        <time>2012-04-07T07:34:41Z</time>
      </trkpt>
      <trkpt lat="45.62449" lon="4.5123">
        <ele>554.81787109375</ele>
        <time>2012-04-07T07:34:45Z</time>
      </trkpt>
      <trkpt lat="45.62459" lon="4.51238">
        <ele>553.85668945312</ele>
        <time>2012-04-07T07:34:47Z</time>
      </trkpt>
      <trkpt lat="45.62469" lon="4.51249">
        <ele>553.85668945312</ele>
        <time>2012-04-07T07:34:50Z</time>
      </trkpt>
      <trkpt lat="45.62488" lon="4.51258">
        <ele>552.89526367188</ele>
        <time>2012-04-07T07:34:56Z</time>
      </trkpt>
      <trkpt lat="45.62499" lon="4.51271">
        <ele>553.85668945312</ele>
        <time>2012-04-07T07:35:01Z</time>
      </trkpt>
      <trkpt lat="45.62501" lon="4.51277">
        <ele>554.33740234375</ele>
        <time>2012-04-07T07:35:03Z</time>
      </trkpt>
      <trkpt lat="45.62504" lon="4.51295">
        <ele>557.22143554688</ele>
        <time>2012-04-07T07:35:10Z</time>
      </trkpt>
      <trkpt lat="45.62507" lon="4.51316">
        <ele>559.62475585938</ele>
        <time>2012-04-07T07:35:18Z</time>
      </trkpt>
      <trkpt lat="45.62508" lon="4.51333">
        <ele>562.50854492188</ele>
        <time>2012-04-07T07:35:25Z</time>
      </trkpt>
      <trkpt lat="45.62503" lon="4.51354">
        <ele>565.87329101562</ele>
        <time>2012-04-07T07:35:34Z</time>
      </trkpt>
      <trkpt lat="45.62498" lon="4.51368">
        <ele>568.2763671875</ele>
        <time>2012-04-07T07:35:40Z</time>
      </trkpt>
      <trkpt lat="45.6249" lon="4.51392">
        <ele>572.12182617188</ele>
        <time>2012-04-07T07:35:50Z</time>
      </trkpt>
      <trkpt lat="45.62488" lon="4.51404">
        <ele>575.005859375</ele>
        <time>2012-04-07T07:35:57Z</time>
      </trkpt>
      <trkpt lat="45.62486" lon="4.51413">
        <ele>575.96704101562</ele>
        <time>2012-04-07T07:36:03Z</time>
      </trkpt>
      <trkpt lat="45.6248" lon="4.51431">
        <ele>578.37036132812</ele>
        <time>2012-04-07T07:36:12Z</time>
      </trkpt>
      <trkpt lat="45.62471" lon="4.51443">
        <ele>580.77368164062</ele>
        <time>2012-04-07T07:36:20Z</time>
      </trkpt>
      <trkpt lat="45.62465" lon="4.51451">
        <ele>582.21557617188</ele>
        <time>2012-04-07T07:36:25Z</time>
      </trkpt>
      <trkpt lat="45.62469" lon="4.5146">
        <ele>583.65747070312</ele>
        <time>2012-04-07T07:36:30Z</time>
      </trkpt>
      <trkpt lat="45.62482" lon="4.51458">
        <ele>582.6962890625</ele>
        <time>2012-04-07T07:36:35Z</time>
      </trkpt>
      <trkpt lat="45.62503" lon="4.51443">
        <ele>581.73486328125</ele>
        <time>2012-04-07T07:36:41Z</time>
      </trkpt>
      <trkpt lat="45.62506" lon="4.5144">
        <ele>581.25439453125</ele>
        <time>2012-04-07T07:36:42Z</time>
      </trkpt>
      <trkpt lat="45.62505" lon="4.51433">
        <ele>581.25439453125</ele>
        <time>2012-04-07T07:36:46Z</time>
      </trkpt>
      <trkpt lat="45.625" lon="4.51437">
        <ele>581.73486328125</ele>
        <time>2012-04-07T07:36:48Z</time>
      </trkpt>
      <trkpt lat="45.62481" lon="4.51459">
        <ele>583.65747070312</ele>
        <time>2012-04-07T07:36:56Z</time>
      </trkpt>
      <trkpt lat="45.62461" lon="4.51486">
        <ele>585.099609375</ele>
        <time>2012-04-07T07:37:05Z</time>
      </trkpt>
      <trkpt lat="45.62446" lon="4.51511">
        <ele>586.54150390625</ele>
        <time>2012-04-07T07:37:13Z</time>
      </trkpt>
      <trkpt lat="45.62444" lon="4.51514">
        <ele>587.02197265625</ele>
        <time>2012-04-07T07:37:14Z</time>
      </trkpt>
      <trkpt lat="45.62443" lon="4.51526">
        <ele>587.50268554688</ele>
        <time>2012-04-07T07:37:58Z</time>
      </trkpt>
      <trkpt lat="45.62444" lon="4.51526">
        <ele>587.02197265625</ele>
        <time>2012-04-07T07:37:59Z</time>
      </trkpt>
      <trkpt lat="45.62455" lon="4.51506">
        <ele>585.580078125</ele>
        <time>2012-04-07T07:38:03Z</time>
      </trkpt>
      <trkpt lat="45.62476" lon="4.51472">
        <ele>583.65747070312</ele>
        <time>2012-04-07T07:38:09Z</time>
      </trkpt>
      <trkpt lat="45.62512" lon="4.51435">
        <ele>580.77368164062</ele>
        <time>2012-04-07T07:38:16Z</time>
      </trkpt>
      <trkpt lat="45.62558" lon="4.51385">
        <ele>577.8896484375</ele>
        <time>2012-04-07T07:38:24Z</time>
      </trkpt>
      <trkpt lat="45.6259" lon="4.51337">
        <ele>577.4091796875</ele>
        <time>2012-04-07T07:38:30Z</time>
      </trkpt>
      <trkpt lat="45.62604" lon="4.51311">
        <ele>578.85107421875</ele>
        <time>2012-04-07T07:38:34Z</time>
      </trkpt>
      <trkpt lat="45.62616" lon="4.51284">
        <ele>579.81225585938</ele>
        <time>2012-04-07T07:38:39Z</time>
      </trkpt>
      <trkpt lat="45.62619" lon="4.51274">
        <ele>580.77368164062</ele>
        <time>2012-04-07T07:38:41Z</time>
      </trkpt>
      <trkpt lat="45.62624" lon="4.51239">
        <ele>581.73486328125</ele>
        <time>2012-04-07T07:38:48Z</time>
      </trkpt>
      <trkpt lat="45.62627" lon="4.51206">
        <ele>583.1767578125</ele>
        <time>2012-04-07T07:38:54Z</time>
      </trkpt>
      <trkpt lat="45.6263" lon="4.51176">
        <ele>584.13818359375</ele>
        <time>2012-04-07T07:38:59Z</time>
      </trkpt>
      <trkpt lat="45.62638" lon="4.51149">
        <ele>587.50268554688</ele>
        <time>2012-04-07T07:39:05Z</time>
      </trkpt>
      <trkpt lat="45.62645" lon="4.51147">
        <ele>588.46435546875</ele>
        <time>2012-04-07T07:39:07Z</time>
      </trkpt>
      <trkpt lat="45.62658" lon="4.51163">
        <ele>588.94506835938</ele>
        <time>2012-04-07T07:39:13Z</time>
      </trkpt>
      <trkpt lat="45.62671" lon="4.51176">
        <ele>591.34814453125</ele>
        <time>2012-04-07T07:39:19Z</time>
      </trkpt>
      <trkpt lat="45.62687" lon="4.51197">
        <ele>595.193359375</ele>
        <time>2012-04-07T07:39:29Z</time>
      </trkpt>
      <trkpt lat="45.62704" lon="4.51218">
        <ele>599.51928710938</ele>
        <time>2012-04-07T07:39:40Z</time>
      </trkpt>
      <trkpt lat="45.62714" lon="4.5123">
        <ele>601.92260742188</ele>
        <time>2012-04-07T07:39:47Z</time>
      </trkpt>
      <trkpt lat="45.62729" lon="4.51249">
        <ele>605.28735351562</ele>
        <time>2012-04-07T07:39:57Z</time>
      </trkpt>
      <trkpt lat="45.62743" lon="4.51265">
        <ele>608.17138671875</ele>
        <time>2012-04-07T07:40:06Z</time>
      </trkpt>
      <trkpt lat="45.62762" lon="4.51285">
        <ele>612.0166015625</ele>
        <time>2012-04-07T07:40:18Z</time>
      </trkpt>
      <trkpt lat="45.62772" lon="4.51294">
        <ele>612.97778320312</ele>
        <time>2012-04-07T07:40:24Z</time>
      </trkpt>
      <trkpt lat="45.62787" lon="4.5131">
        <ele>615.86181640625</ele>
        <time>2012-04-07T07:40:33Z</time>
      </trkpt>
      <trkpt lat="45.62803" lon="4.51329">
        <ele>619.70703125</ele>
        <time>2012-04-07T07:40:43Z</time>
      </trkpt>
      <trkpt lat="45.6282" lon="4.51348">
        <ele>622.59106445312</ele>
        <time>2012-04-07T07:40:54Z</time>
      </trkpt>
      <trkpt lat="45.62837" lon="4.51366">
        <ele>624.513671875</ele>
        <time>2012-04-07T07:41:04Z</time>
      </trkpt>
      <trkpt lat="45.62855" lon="4.51385">
        <ele>625.95556640625</ele>
        <time>2012-04-07T07:41:14Z</time>
      </trkpt>
      <trkpt lat="45.62873" lon="4.51406">
        <ele>627.39770507812</ele>
        <time>2012-04-07T07:41:25Z</time>
      </trkpt>
      <trkpt lat="45.62885" lon="4.5142">
        <ele>628.83959960938</ele>
        <time>2012-04-07T07:41:32Z</time>
      </trkpt>
      <trkpt lat="45.62896" lon="4.51439">
        <ele>631.72338867188</ele>
        <time>2012-04-07T07:41:40Z</time>
      </trkpt>
      <trkpt lat="45.62906" lon="4.5146">
        <ele>634.607421875</ele>
        <time>2012-04-07T07:41:49Z</time>
      </trkpt>
      <trkpt lat="45.62917" lon="4.51472">
        <ele>637.49145507812</ele>
        <time>2012-04-07T07:41:56Z</time>
      </trkpt>
      <trkpt lat="45.62935" lon="4.51484">
        <ele>640.37548828125</ele>
        <time>2012-04-07T07:42:05Z</time>
      </trkpt>
      <trkpt lat="45.62958" lon="4.51502">
        <ele>643.25927734375</ele>
        <time>2012-04-07T07:42:16Z</time>
      </trkpt>
      <trkpt lat="45.62971" lon="4.51525">
        <ele>642.77880859375</ele>
        <time>2012-04-07T07:42:23Z</time>
      </trkpt>
      <trkpt lat="45.62991" lon="4.5156">
        <ele>642.77880859375</ele>
        <time>2012-04-07T07:42:32Z</time>
      </trkpt>
      <trkpt lat="45.63013" lon="4.51596">
        <ele>643.73999023438</ele>
        <time>2012-04-07T07:42:41Z</time>
      </trkpt>
      <trkpt lat="45.63036" lon="4.51625">
        <ele>645.66259765625</ele>
        <time>2012-04-07T07:42:50Z</time>
      </trkpt>
      <trkpt lat="45.63062" lon="4.51647">
        <ele>647.1044921875</ele>
        <time>2012-04-07T07:42:59Z</time>
      </trkpt>
      <trkpt lat="45.6309" lon="4.51665">
        <ele>648.54638671875</ele>
        <time>2012-04-07T07:43:08Z</time>
      </trkpt>
      <trkpt lat="45.63116" lon="4.51685">
        <ele>649.5078125</ele>
        <time>2012-04-07T07:43:17Z</time>
      </trkpt>
      <trkpt lat="45.63145" lon="4.51708">
        <ele>651.43041992188</ele>
        <time>2012-04-07T07:43:27Z</time>
      </trkpt>
      <trkpt lat="45.63169" lon="4.51724">
        <ele>654.31469726562</ele>
        <time>2012-04-07T07:43:35Z</time>
      </trkpt>
      <trkpt lat="45.6319" lon="4.51735">
        <ele>656.7177734375</ele>
        <time>2012-04-07T07:43:42Z</time>
      </trkpt>
      <trkpt lat="45.63209" lon="4.51751">
        <ele>658.64038085938</ele>
        <time>2012-04-07T07:43:49Z</time>
      </trkpt>
      <trkpt lat="45.63211" lon="4.51768">
        <ele>659.12109375</ele>
        <time>2012-04-07T07:43:53Z</time>
      </trkpt>
      <trkpt lat="45.63202" lon="4.51796">
        <ele>660.08227539062</ele>
        <time>2012-04-07T07:44:00Z</time>
      </trkpt>
      <trkpt lat="45.63188" lon="4.51823">
        <ele>660.56298828125</ele>
        <time>2012-04-07T07:44:08Z</time>
      </trkpt>
      <trkpt lat="45.63177" lon="4.51822">
        <ele>661.04370117188</ele>
        <time>2012-04-07T07:44:13Z</time>
      </trkpt>
      <trkpt lat="45.63176" lon="4.51822">
        <ele>661.04370117188</ele>
        <time>2012-04-07T07:44:14Z</time>
      </trkpt>
      <trkpt lat="45.63176" lon="4.51819">
        <ele>664.88891601562</ele>
        <time>2012-04-07T07:44:20Z</time>
      </trkpt>
      <trkpt lat="45.63177" lon="4.51818">
        <ele>669.69580078125</ele>
        <time>2012-04-07T07:44:25Z</time>
      </trkpt>
      <trkpt lat="45.63178" lon="4.51816">
        <ele>672.57958984375</ele>
        <time>2012-04-07T07:44:53Z</time>
      </trkpt>
      <trkpt lat="45.63178" lon="4.51815">
        <ele>673.541015625</ele>
        <time>2012-04-07T07:44:59Z</time>
      </trkpt>
      <trkpt lat="45.63178" lon="4.51815">
        <ele>673.541015625</ele>
        <time>2012-04-07T07:45:02Z</time>
      </trkpt>
      <trkpt lat="45.63187" lon="4.5182">
        <ele>669.21508789062</ele>
        <time>2012-04-07T07:45:07Z</time>
      </trkpt>
      <trkpt lat="45.63194" lon="4.51816">
        <ele>667.29223632812</ele>
        <time>2012-04-07T07:45:10Z</time>
      </trkpt>
      <trkpt lat="45.63202" lon="4.51797">
        <ele>666.33081054688</ele>
        <time>2012-04-07T07:45:15Z</time>
      </trkpt>
      <trkpt lat="45.63218" lon="4.51771">
        <ele>663.92749023438</ele>
        <time>2012-04-07T07:45:21Z</time>
      </trkpt>
      <trkpt lat="45.63223" lon="4.51771">
        <ele>663.92749023438</ele>
        <time>2012-04-07T07:45:22Z</time>
      </trkpt>
      <trkpt lat="45.63269" lon="4.51777">
        <ele>661.04370117188</ele>
        <time>2012-04-07T07:45:31Z</time>
      </trkpt>
      <trkpt lat="45.63295" lon="4.51779">
        <ele>659.60180664062</ele>
        <time>2012-04-07T07:45:36Z</time>
      </trkpt>
      <trkpt lat="45.63316" lon="4.51791">
        <ele>659.60180664062</ele>
        <time>2012-04-07T07:45:40Z</time>
      </trkpt>
      <trkpt lat="45.63325" lon="4.518">
        <ele>659.60180664062</ele>
        <time>2012-04-07T07:45:42Z</time>
      </trkpt>
      <trkpt lat="45.63346" lon="4.5181">
        <ele>660.08227539062</ele>
        <time>2012-04-07T07:45:46Z</time>
      </trkpt>
      <trkpt lat="45.63388" lon="4.51814">
        <ele>658.64038085938</ele>
        <time>2012-04-07T07:45:54Z</time>
      </trkpt>
      <trkpt lat="45.63432" lon="4.51822">
        <ele>656.7177734375</ele>
        <time>2012-04-07T07:46:02Z</time>
      </trkpt>
      <trkpt lat="45.63477" lon="4.51835">
        <ele>655.75659179688</ele>
        <time>2012-04-07T07:46:09Z</time>
      </trkpt>
      <trkpt lat="45.63517" lon="4.51852">
        <ele>655.75659179688</ele>
        <time>2012-04-07T07:46:16Z</time>
      </trkpt>
      <trkpt lat="45.63543" lon="4.51869">
        <ele>656.7177734375</ele>
        <time>2012-04-07T07:46:21Z</time>
      </trkpt>
      <trkpt lat="45.63575" lon="4.51876">
        <ele>655.75659179688</ele>
        <time>2012-04-07T07:46:27Z</time>
      </trkpt>
      <trkpt lat="45.63592" lon="4.51863">
        <ele>655.27587890625</ele>
        <time>2012-04-07T07:46:31Z</time>
      </trkpt>
      <trkpt lat="45.63594" lon="4.51855">
        <ele>654.79516601562</ele>
        <time>2012-04-07T07:46:32Z</time>
      </trkpt>
      <trkpt lat="45.63599" lon="4.51838">
        <ele>654.31469726562</ele>
        <time>2012-04-07T07:46:34Z</time>
      </trkpt>
      <trkpt lat="45.6362" lon="4.51808">
        <ele>652.39184570312</ele>
        <time>2012-04-07T07:46:38Z</time>
      </trkpt>
      <trkpt lat="45.63674" lon="4.51766">
        <ele>648.54638671875</ele>
        <time>2012-04-07T07:46:45Z</time>
      </trkpt>
      <trkpt lat="45.63721" lon="4.51729">
        <ele>644.701171875</ele>
        <time>2012-04-07T07:46:51Z</time>
      </trkpt>
      <trkpt lat="45.63759" lon="4.517">
        <ele>642.77880859375</ele>
        <time>2012-04-07T07:46:56Z</time>
      </trkpt>
      <trkpt lat="45.63766" lon="4.51695">
        <ele>642.29809570312</ele>
        <time>2012-04-07T07:46:57Z</time>
      </trkpt>
      <trkpt lat="45.63797" lon="4.51664">
        <ele>640.37548828125</ele>
        <time>2012-04-07T07:47:02Z</time>
      </trkpt>
      <trkpt lat="45.63802" lon="4.51657">
        <ele>639.89477539062</ele>
        <time>2012-04-07T07:47:03Z</time>
      </trkpt>
      <trkpt lat="45.63809" lon="4.5163">
        <ele>637.97216796875</ele>
        <time>2012-04-07T07:47:07Z</time>
      </trkpt>
      <trkpt lat="45.63819" lon="4.51616">
        <ele>636.5302734375</ele>
        <time>2012-04-07T07:47:11Z</time>
      </trkpt>
      <trkpt lat="45.63821" lon="4.51614">
        <ele>637.0107421875</ele>
        <time>2012-04-07T07:47:12Z</time>
      </trkpt>
      <trkpt lat="45.63823" lon="4.51613">
        <ele>636.5302734375</ele>
        <time>2012-04-07T07:47:13Z</time>
      </trkpt>
      <trkpt lat="45.63807" lon="4.51627">
        <ele>649.02709960938</ele>
        <time>2012-04-07T07:57:12Z</time>
      </trkpt>
      <trkpt lat="45.63807" lon="4.51641">
        <ele>648.06591796875</ele>
        <time>2012-04-07T07:57:15Z</time>
      </trkpt>
      <trkpt lat="45.63801" lon="4.51655">
        <ele>647.58520507812</ele>
        <time>2012-04-07T07:57:19Z</time>
      </trkpt>
      <trkpt lat="45.63787" lon="4.51672">
        <ele>648.06591796875</ele>
        <time>2012-04-07T07:57:26Z</time>
      </trkpt>
      <trkpt lat="45.63769" lon="4.5169">
        <ele>647.58520507812</ele>
        <time>2012-04-07T07:57:33Z</time>
      </trkpt>
      <trkpt lat="45.63737" lon="4.5171">
        <ele>648.06591796875</ele>
        <time>2012-04-07T07:57:43Z</time>
      </trkpt>
      <trkpt lat="45.6371" lon="4.51732">
        <ele>648.54638671875</ele>
        <time>2012-04-07T07:57:52Z</time>
      </trkpt>
      <trkpt lat="45.63688" lon="4.51752">
        <ele>649.02709960938</ele>
        <time>2012-04-07T07:58:00Z</time>
      </trkpt>
      <trkpt lat="45.63677" lon="4.51759">
        <ele>649.02709960938</ele>
        <time>2012-04-07T07:58:06Z</time>
      </trkpt>
      <trkpt lat="45.63673" lon="4.51763">
        <ele>649.02709960938</ele>
        <time>2012-04-07T07:58:18Z</time>
      </trkpt>
      <trkpt lat="45.63657" lon="4.51773">
        <ele>650.46923828125</ele>
        <time>2012-04-07T07:58:24Z</time>
      </trkpt>
      <trkpt lat="45.63634" lon="4.51791">
        <ele>651.9111328125</ele>
        <time>2012-04-07T07:58:32Z</time>
      </trkpt>
      <trkpt lat="45.63614" lon="4.51812">
        <ele>653.833984375</ele>
        <time>2012-04-07T07:58:40Z</time>
      </trkpt>
      <trkpt lat="45.63597" lon="4.51836">
        <ele>656.23706054688</ele>
        <time>2012-04-07T07:58:48Z</time>
      </trkpt>
      <trkpt lat="45.63591" lon="4.5186">
        <ele>657.19848632812</ele>
        <time>2012-04-07T07:58:54Z</time>
      </trkpt>
      <trkpt lat="45.63591" lon="4.51872">
        <ele>657.19848632812</ele>
        <time>2012-04-07T07:58:57Z</time>
      </trkpt>
      <trkpt lat="45.63607" lon="4.51885">
        <ele>657.19848632812</ele>
        <time>2012-04-07T07:59:02Z</time>
      </trkpt>
      <trkpt lat="45.63652" lon="4.51894">
        <ele>655.27587890625</ele>
        <time>2012-04-07T07:59:11Z</time>
      </trkpt>
      <trkpt lat="45.63703" lon="4.51902">
        <ele>654.31469726562</ele>
        <time>2012-04-07T07:59:20Z</time>
      </trkpt>
      <trkpt lat="45.63757" lon="4.51919">
        <ele>654.31469726562</ele>
        <time>2012-04-07T07:59:30Z</time>
      </trkpt>
      <trkpt lat="45.63802" lon="4.5193">
        <ele>655.27587890625</ele>
        <time>2012-04-07T07:59:39Z</time>
      </trkpt>
      <trkpt lat="45.63845" lon="4.51939">
        <ele>654.31469726562</ele>
        <time>2012-04-07T07:59:47Z</time>
      </trkpt>
      <trkpt lat="45.63903" lon="4.51954">
        <ele>652.87255859375</ele>
        <time>2012-04-07T07:59:57Z</time>
      </trkpt>
      <trkpt lat="45.63961" lon="4.51966">
        <ele>651.43041992188</ele>
        <time>2012-04-07T08:00:07Z</time>
      </trkpt>
      <trkpt lat="45.64023" lon="4.51979">
        <ele>651.43041992188</ele>
        <time>2012-04-07T08:00:18Z</time>
      </trkpt>
      <trkpt lat="45.64047" lon="4.51987">
        <ele>651.9111328125</ele>
        <time>2012-04-07T08:00:23Z</time>
      </trkpt>
      <trkpt lat="45.64059" lon="4.51994">
        <ele>651.9111328125</ele>
        <time>2012-04-07T08:00:26Z</time>
      </trkpt>
      <trkpt lat="45.64069" lon="4.52002">
        <ele>651.9111328125</ele>
        <time>2012-04-07T08:00:31Z</time>
      </trkpt>
      <trkpt lat="45.64091" lon="4.52002">
        <ele>651.43041992188</ele>
        <time>2012-04-07T08:00:36Z</time>
      </trkpt>
      <trkpt lat="45.64117" lon="4.52008">
        <ele>653.35327148438</ele>
        <time>2012-04-07T08:00:42Z</time>
      </trkpt>
      <trkpt lat="45.64154" lon="4.5202">
        <ele>655.75659179688</ele>
        <time>2012-04-07T08:00:52Z</time>
      </trkpt>
      <trkpt lat="45.64192" lon="4.52031">
        <ele>659.12109375</ele>
        <time>2012-04-07T08:01:03Z</time>
      </trkpt>
      <trkpt lat="45.64219" lon="4.52044">
        <ele>662.00512695312</ele>
        <time>2012-04-07T08:01:12Z</time>
      </trkpt>
      <trkpt lat="45.6424" lon="4.5205">
        <ele>664.408203125</ele>
        <time>2012-04-07T08:01:19Z</time>
      </trkpt>
      <trkpt lat="45.64256" lon="4.52056">
        <ele>666.8115234375</ele>
        <time>2012-04-07T08:01:25Z</time>
      </trkpt>
      <trkpt lat="45.64285" lon="4.52065">
        <ele>669.69580078125</ele>
        <time>2012-04-07T08:01:35Z</time>
      </trkpt>
      <trkpt lat="45.64307" lon="4.52074">
        <ele>672.09887695312</ele>
        <time>2012-04-07T08:01:43Z</time>
      </trkpt>
      <trkpt lat="45.64327" lon="4.52079">
        <ele>673.541015625</ele>
        <time>2012-04-07T08:01:50Z</time>
      </trkpt>
      <trkpt lat="45.64347" lon="4.52079">
        <ele>675.46337890625</ele>
        <time>2012-04-07T08:01:57Z</time>
      </trkpt>
      <trkpt lat="45.64375" lon="4.52066">
        <ele>677.86669921875</ele>
        <time>2012-04-07T08:02:07Z</time>
      </trkpt>
      <trkpt lat="45.644" lon="4.52052">
        <ele>680.27001953125</ele>
        <time>2012-04-07T08:02:17Z</time>
      </trkpt>
      <trkpt lat="45.64418" lon="4.52042">
        <ele>682.67333984375</ele>
        <time>2012-04-07T08:02:25Z</time>
      </trkpt>
      <trkpt lat="45.64431" lon="4.52034">
        <ele>685.07690429688</ele>
        <time>2012-04-07T08:02:31Z</time>
      </trkpt>
      <trkpt lat="45.64451" lon="4.52027">
        <ele>688.92211914062</ele>
        <time>2012-04-07T08:02:40Z</time>
      </trkpt>
      <trkpt lat="45.64461" lon="4.52034">
        <ele>690.84448242188</ele>
        <time>2012-04-07T08:02:45Z</time>
      </trkpt>
      <trkpt lat="45.64466" lon="4.52053">
        <ele>691.80590820312</ele>
        <time>2012-04-07T08:02:51Z</time>
      </trkpt>
      <trkpt lat="45.64466" lon="4.52086">
        <ele>692.76733398438</ele>
        <time>2012-04-07T08:02:59Z</time>
      </trkpt>
      <trkpt lat="45.6447" lon="4.52124">
        <ele>692.76733398438</ele>
        <time>2012-04-07T08:03:07Z</time>
      </trkpt>
      <trkpt lat="45.6448" lon="4.52142">
        <ele>692.76733398438</ele>
        <time>2012-04-07T08:03:11Z</time>
      </trkpt>
      <trkpt lat="45.64488" lon="4.52147">
        <ele>692.76733398438</ele>
        <time>2012-04-07T08:03:13Z</time>
      </trkpt>
      <trkpt lat="45.64515" lon="4.52149">
        <ele>692.76733398438</ele>
        <time>2012-04-07T08:03:19Z</time>
      </trkpt>
      <trkpt lat="45.64555" lon="4.52137">
        <ele>693.24780273438</ele>
        <time>2012-04-07T08:03:28Z</time>
      </trkpt>
      <trkpt lat="45.64595" lon="4.52124">
        <ele>691.80590820312</ele>
        <time>2012-04-07T08:03:36Z</time>
      </trkpt>
      <trkpt lat="45.64615" lon="4.52106">
        <ele>692.28662109375</ele>
        <time>2012-04-07T08:03:41Z</time>
      </trkpt>
      <trkpt lat="45.64621" lon="4.52084">
        <ele>693.728515625</ele>
        <time>2012-04-07T08:03:45Z</time>
      </trkpt>
      <trkpt lat="45.6462" lon="4.52073">
        <ele>694.68969726562</ele>
        <time>2012-04-07T08:03:47Z</time>
      </trkpt>
      <trkpt lat="45.64618" lon="4.52022">
        <ele>697.09301757812</ele>
        <time>2012-04-07T08:03:57Z</time>
      </trkpt>
      <trkpt lat="45.64625" lon="4.52008">
        <ele>698.05444335938</ele>
        <time>2012-04-07T08:04:01Z</time>
      </trkpt>
      <trkpt lat="45.64645" lon="4.52">
        <ele>697.57373046875</ele>
        <time>2012-04-07T08:04:07Z</time>
      </trkpt>
      <trkpt lat="45.64669" lon="4.51994">
        <ele>698.53491210938</ele>
        <time>2012-04-07T08:04:14Z</time>
      </trkpt>
      <trkpt lat="45.64705" lon="4.51993">
        <ele>699.015625</ele>
        <time>2012-04-07T08:04:24Z</time>
      </trkpt>
      <trkpt lat="45.64725" lon="4.51998">
        <ele>699.015625</ele>
        <time>2012-04-07T08:04:30Z</time>
      </trkpt>
      <trkpt lat="45.64732" lon="4.51998">
        <ele>701.89990234375</ele>
        <time>2012-04-07T08:05:39Z</time>
      </trkpt>
      <trkpt lat="45.64734" lon="4.51998">
        <ele>701.89990234375</ele>
        <time>2012-04-07T08:05:40Z</time>
      </trkpt>
      <trkpt lat="45.64746" lon="4.52001">
        <ele>702.86108398438</ele>
        <time>2012-04-07T08:05:44Z</time>
      </trkpt>
      <trkpt lat="45.64762" lon="4.52009">
        <ele>703.82250976562</ele>
        <time>2012-04-07T08:05:50Z</time>
      </trkpt>
      <trkpt lat="45.64774" lon="4.52037">
        <ele>704.30322265625</ele>
        <time>2012-04-07T08:05:57Z</time>
      </trkpt>
      <trkpt lat="45.64788" lon="4.52073">
        <ele>704.30322265625</ele>
        <time>2012-04-07T08:06:04Z</time>
      </trkpt>
      <trkpt lat="45.64803" lon="4.52108">
        <ele>703.341796875</ele>
        <time>2012-04-07T08:06:09Z</time>
      </trkpt>
      <trkpt lat="45.64817" lon="4.52141">
        <ele>701.89990234375</ele>
        <time>2012-04-07T08:06:13Z</time>
      </trkpt>
      <trkpt lat="45.64835" lon="4.52177">
        <ele>699.015625</ele>
        <time>2012-04-07T08:06:18Z</time>
      </trkpt>
      <trkpt lat="45.64838" lon="4.52187">
        <ele>698.05444335938</ele>
        <time>2012-04-07T08:06:19Z</time>
      </trkpt>
      <trkpt lat="45.64857" lon="4.52251">
        <ele>692.28662109375</ele>
        <time>2012-04-07T08:06:25Z</time>
      </trkpt>
      <trkpt lat="45.64865" lon="4.5229">
        <ele>689.88330078125</ele>
        <time>2012-04-07T08:06:28Z</time>
      </trkpt>
      <trkpt lat="45.64882" lon="4.52361">
        <ele>687.96069335938</ele>
        <time>2012-04-07T08:06:34Z</time>
      </trkpt>
      <trkpt lat="45.64898" lon="4.52413">
        <ele>688.92211914062</ele>
        <time>2012-04-07T08:06:40Z</time>
      </trkpt>
      <trkpt lat="45.64911" lon="4.52449">
        <ele>690.36401367188</ele>
        <time>2012-04-07T08:06:46Z</time>
      </trkpt>
      <trkpt lat="45.64918" lon="4.52468">
        <ele>692.76733398438</ele>
        <time>2012-04-07T08:06:50Z</time>
      </trkpt>
      <trkpt lat="45.6493" lon="4.52492">
        <ele>695.17041015625</ele>
        <time>2012-04-07T08:06:56Z</time>
      </trkpt>
      <trkpt lat="45.64945" lon="4.52522">
        <ele>695.65112304688</ele>
        <time>2012-04-07T08:07:03Z</time>
      </trkpt>
      <trkpt lat="45.64958" lon="4.5256">
        <ele>693.728515625</ele>
        <time>2012-04-07T08:07:09Z</time>
      </trkpt>
      <trkpt lat="45.64974" lon="4.52609">
        <ele>694.68969726562</ele>
        <time>2012-04-07T08:07:16Z</time>
      </trkpt>
      <trkpt lat="45.64978" lon="4.52622">
        <ele>694.68969726562</ele>
        <time>2012-04-07T08:07:18Z</time>
      </trkpt>
      <trkpt lat="45.64982" lon="4.52643">
        <ele>694.68969726562</ele>
        <time>2012-04-07T08:07:21Z</time>
      </trkpt>
      <trkpt lat="45.64988" lon="4.52663">
        <ele>694.20922851562</ele>
        <time>2012-04-07T08:07:24Z</time>
      </trkpt>
      <trkpt lat="45.65006" lon="4.52694">
        <ele>693.728515625</ele>
        <time>2012-04-07T08:07:30Z</time>
      </trkpt>
      <trkpt lat="45.65033" lon="4.52717">
        <ele>692.28662109375</ele>
        <time>2012-04-07T08:07:36Z</time>
      </trkpt>
      <trkpt lat="45.65072" lon="4.52738">
        <ele>689.40258789062</ele>
        <time>2012-04-07T08:07:42Z</time>
      </trkpt>
      <trkpt lat="45.65113" lon="4.52771">
        <ele>686.99926757812</ele>
        <time>2012-04-07T08:07:48Z</time>
      </trkpt>
      <trkpt lat="45.65141" lon="4.5279">
        <ele>686.51879882812</ele>
        <time>2012-04-07T08:07:52Z</time>
      </trkpt>
      <trkpt lat="45.65168" lon="4.528">
        <ele>686.51879882812</ele>
        <time>2012-04-07T08:07:56Z</time>
      </trkpt>
      <trkpt lat="45.65221" lon="4.528">
        <ele>686.99926757812</ele>
        <time>2012-04-07T08:08:04Z</time>
      </trkpt>
      <trkpt lat="45.65233" lon="4.528">
        <ele>687.47998046875</ele>
        <time>2012-04-07T08:08:06Z</time>
      </trkpt>
      <trkpt lat="45.6527" lon="4.52812">
        <ele>689.40258789062</ele>
        <time>2012-04-07T08:08:13Z</time>
      </trkpt>
      <trkpt lat="45.653" lon="4.52841">
        <ele>689.88330078125</ele>
        <time>2012-04-07T08:08:20Z</time>
      </trkpt>
      <trkpt lat="45.65335" lon="4.52885">
        <ele>689.40258789062</ele>
        <time>2012-04-07T08:08:29Z</time>
      </trkpt>
      <trkpt lat="45.65347" lon="4.529">
        <ele>688.92211914062</ele>
        <time>2012-04-07T08:08:32Z</time>
      </trkpt>
      <trkpt lat="45.65359" lon="4.52922">
        <ele>687.96069335938</ele>
        <time>2012-04-07T08:08:36Z</time>
      </trkpt>
      <trkpt lat="45.65369" lon="4.52938">
        <ele>686.51879882812</ele>
        <time>2012-04-07T08:08:39Z</time>
      </trkpt>
      <trkpt lat="45.6538" lon="4.52958">
        <ele>686.51879882812</ele>
        <time>2012-04-07T08:08:44Z</time>
      </trkpt>
      <trkpt lat="45.65383" lon="4.52966">
        <ele>686.99926757812</ele>
        <time>2012-04-07T08:08:49Z</time>
      </trkpt>
      <trkpt lat="45.65393" lon="4.52979">
        <ele>685.07690429688</ele>
        <time>2012-04-07T08:08:54Z</time>
      </trkpt>
      <trkpt lat="45.65408" lon="4.52996">
        <ele>681.2314453125</ele>
        <time>2012-04-07T08:09:00Z</time>
      </trkpt>
      <trkpt lat="45.65424" lon="4.53013">
        <ele>675.94409179688</ele>
        <time>2012-04-07T08:09:05Z</time>
      </trkpt>
      <trkpt lat="45.65431" lon="4.53033">
        <ele>673.06030273438</ele>
        <time>2012-04-07T08:09:09Z</time>
      </trkpt>
      <trkpt lat="45.65432" lon="4.53037">
        <ele>672.09887695312</ele>
        <time>2012-04-07T08:09:10Z</time>
      </trkpt>
      <trkpt lat="45.65439" lon="4.53037">
        <ele>670.65698242188</ele>
        <time>2012-04-07T08:09:14Z</time>
      </trkpt>
      <trkpt lat="45.65453" lon="4.53027">
        <ele>668.25366210938</ele>
        <time>2012-04-07T08:09:17Z</time>
      </trkpt>
      <trkpt lat="45.65476" lon="4.53042">
        <ele>665.36962890625</ele>
        <time>2012-04-07T08:09:20Z</time>
      </trkpt>
      <trkpt lat="45.65483" lon="4.53051">
        <ele>664.408203125</ele>
        <time>2012-04-07T08:09:21Z</time>
      </trkpt>
      <trkpt lat="45.65514" lon="4.53089">
        <ele>664.408203125</ele>
        <time>2012-04-07T08:09:26Z</time>
      </trkpt>
      <trkpt lat="45.65519" lon="4.53095">
        <ele>664.88891601562</ele>
        <time>2012-04-07T08:09:27Z</time>
      </trkpt>
      <trkpt lat="45.6553" lon="4.5312">
        <ele>668.734375</ele>
        <time>2012-04-07T08:09:31Z</time>
      </trkpt>
      <trkpt lat="45.65536" lon="4.53145">
        <ele>671.6181640625</ele>
        <time>2012-04-07T08:09:36Z</time>
      </trkpt>
      <trkpt lat="45.65551" lon="4.53168">
        <ele>674.98291015625</ele>
        <time>2012-04-07T08:09:42Z</time>
      </trkpt>
      <trkpt lat="45.65576" lon="4.53185">
        <ele>679.30859375</ele>
        <time>2012-04-07T08:09:51Z</time>
      </trkpt>
      <trkpt lat="45.65587" lon="4.532">
        <ele>681.7119140625</ele>
        <time>2012-04-07T08:09:57Z</time>
      </trkpt>
      <trkpt lat="45.65598" lon="4.5323">
        <ele>682.67333984375</ele>
        <time>2012-04-07T08:10:05Z</time>
      </trkpt>
      <trkpt lat="45.6561" lon="4.53277">
        <ele>684.59619140625</ele>
        <time>2012-04-07T08:10:17Z</time>
      </trkpt>
      <trkpt lat="45.65614" lon="4.53304">
        <ele>686.51879882812</ele>
        <time>2012-04-07T08:10:24Z</time>
      </trkpt>
      <trkpt lat="45.6562" lon="4.53335">
        <ele>688.92211914062</ele>
        <time>2012-04-07T08:10:33Z</time>
      </trkpt>
      <trkpt lat="45.65628" lon="4.53361">
        <ele>691.3251953125</ele>
        <time>2012-04-07T08:10:41Z</time>
      </trkpt>
      <trkpt lat="45.65643" lon="4.53383">
        <ele>692.76733398438</ele>
        <time>2012-04-07T08:10:50Z</time>
      </trkpt>
      <trkpt lat="45.65659" lon="4.53402">
        <ele>694.20922851562</ele>
        <time>2012-04-07T08:10:59Z</time>
      </trkpt>
      <trkpt lat="45.65681" lon="4.5343">
        <ele>695.17041015625</ele>
        <time>2012-04-07T08:11:10Z</time>
      </trkpt>
      <trkpt lat="45.65703" lon="4.53455">
        <ele>694.20922851562</ele>
        <time>2012-04-07T08:11:18Z</time>
      </trkpt>
      <trkpt lat="45.65728" lon="4.53483">
        <ele>692.28662109375</ele>
        <time>2012-04-07T08:11:25Z</time>
      </trkpt>
      <trkpt lat="45.65756" lon="4.53509">
        <ele>689.40258789062</ele>
        <time>2012-04-07T08:11:31Z</time>
      </trkpt>
      <trkpt lat="45.65773" lon="4.53523">
        <ele>686.51879882812</ele>
        <time>2012-04-07T08:11:34Z</time>
      </trkpt>
      <trkpt lat="45.65789" lon="4.53541">
        <ele>684.11547851562</ele>
        <time>2012-04-07T08:11:37Z</time>
      </trkpt>
      <trkpt lat="45.65819" lon="4.53569">
        <ele>679.78930664062</ele>
        <time>2012-04-07T08:11:42Z</time>
      </trkpt>
      <trkpt lat="45.65834" lon="4.53597">
        <ele>677.86669921875</ele>
        <time>2012-04-07T08:11:46Z</time>
      </trkpt>
      <trkpt lat="45.65836" lon="4.53618">
        <ele>676.90551757812</ele>
        <time>2012-04-07T08:11:50Z</time>
      </trkpt>
      <trkpt lat="45.65836" lon="4.53657">
        <ele>674.021484375</ele>
        <time>2012-04-07T08:11:57Z</time>
      </trkpt>
      <trkpt lat="45.65833" lon="4.53697">
        <ele>673.06030273438</ele>
        <time>2012-04-07T08:12:03Z</time>
      </trkpt>
      <trkpt lat="45.65825" lon="4.53743">
        <ele>671.1376953125</ele>
        <time>2012-04-07T08:12:10Z</time>
      </trkpt>
      <trkpt lat="45.65828" lon="4.538">
        <ele>669.69580078125</ele>
        <time>2012-04-07T08:12:18Z</time>
      </trkpt>
      <trkpt lat="45.65828" lon="4.53843">
        <ele>668.25366210938</ele>
        <time>2012-04-07T08:12:24Z</time>
      </trkpt>
      <trkpt lat="45.65828" lon="4.53851">
        <ele>667.77270507812</ele>
        <time>2012-04-07T08:12:25Z</time>
      </trkpt>
      <trkpt lat="45.65818" lon="4.53922">
        <ele>664.88891601562</ele>
        <time>2012-04-07T08:12:34Z</time>
      </trkpt>
      <trkpt lat="45.65819" lon="4.53967">
        <ele>663.92749023438</ele>
        <time>2012-04-07T08:12:40Z</time>
      </trkpt>
      <trkpt lat="45.65825" lon="4.53993">
        <ele>662.96630859375</ele>
        <time>2012-04-07T08:12:44Z</time>
      </trkpt>
      <trkpt lat="45.65829" lon="4.54025">
        <ele>660.56298828125</ele>
        <time>2012-04-07T08:12:48Z</time>
      </trkpt>
      <trkpt lat="45.65839" lon="4.54079">
        <ele>654.31469726562</ele>
        <time>2012-04-07T08:12:52Z</time>
      </trkpt>
      <trkpt lat="45.65842" lon="4.54095">
        <ele>652.87255859375</ele>
        <time>2012-04-07T08:12:53Z</time>
      </trkpt>
      <trkpt lat="45.65856" lon="4.54208">
        <ele>642.77880859375</ele>
        <time>2012-04-07T08:12:59Z</time>
      </trkpt>
      <trkpt lat="45.65858" lon="4.54267">
        <ele>637.97216796875</ele>
        <time>2012-04-07T08:13:02Z</time>
      </trkpt>
      <trkpt lat="45.65845" lon="4.54335">
        <ele>632.68481445312</ele>
        <time>2012-04-07T08:13:06Z</time>
      </trkpt>
      <trkpt lat="45.65833" lon="4.54364">
        <ele>629.32006835938</ele>
        <time>2012-04-07T08:13:08Z</time>
      </trkpt>
      <trkpt lat="45.65823" lon="4.54426">
        <ele>624.513671875</ele>
        <time>2012-04-07T08:13:12Z</time>
      </trkpt>
      <trkpt lat="45.65822" lon="4.54456">
        <ele>623.07177734375</ele>
        <time>2012-04-07T08:13:14Z</time>
      </trkpt>
      <trkpt lat="45.6581" lon="4.54502">
        <ele>623.07177734375</ele>
        <time>2012-04-07T08:13:18Z</time>
      </trkpt>
      <trkpt lat="45.658" lon="4.54515">
        <ele>623.07177734375</ele>
        <time>2012-04-07T08:13:20Z</time>
      </trkpt>
      <trkpt lat="45.65781" lon="4.54535">
        <ele>625.47485351562</ele>
        <time>2012-04-07T08:13:25Z</time>
      </trkpt>
      <trkpt lat="45.65773" lon="4.54543">
        <ele>626.9169921875</ele>
        <time>2012-04-07T08:13:28Z</time>
      </trkpt>
      <trkpt lat="45.65758" lon="4.54554">
        <ele>629.80078125</ele>
        <time>2012-04-07T08:13:35Z</time>
      </trkpt>
      <trkpt lat="45.65754" lon="4.54567">
        <ele>630.76220703125</ele>
        <time>2012-04-07T08:13:39Z</time>
      </trkpt>
      <trkpt lat="45.65738" lon="4.54576">
        <ele>631.24291992188</ele>
        <time>2012-04-07T08:13:45Z</time>
      </trkpt>
      <trkpt lat="45.65724" lon="4.54588">
        <ele>633.16528320312</ele>
        <time>2012-04-07T08:13:51Z</time>
      </trkpt>
      <trkpt lat="45.65722" lon="4.54591">
        <ele>633.64599609375</ele>
        <time>2012-04-07T08:13:53Z</time>
      </trkpt>
      <trkpt lat="45.65707" lon="4.54603">
        <ele>636.04956054688</ele>
        <time>2012-04-07T08:14:02Z</time>
      </trkpt>
      <trkpt lat="45.65698" lon="4.5461">
        <ele>638.93359375</ele>
        <time>2012-04-07T08:14:08Z</time>
      </trkpt>
      <trkpt lat="45.65695" lon="4.54613">
        <ele>640.37548828125</ele>
        <time>2012-04-07T08:14:11Z</time>
      </trkpt>
      <trkpt lat="45.65686" lon="4.5462">
        <ele>643.25927734375</ele>
        <time>2012-04-07T08:14:19Z</time>
      </trkpt>
      <trkpt lat="45.65678" lon="4.5463">
        <ele>645.18188476562</ele>
        <time>2012-04-07T08:14:25Z</time>
      </trkpt>
      <trkpt lat="45.65667" lon="4.5464">
        <ele>648.54638671875</ele>
        <time>2012-04-07T08:14:33Z</time>
      </trkpt>
      <trkpt lat="45.65662" lon="4.54644">
        <ele>650.46923828125</ele>
        <time>2012-04-07T08:14:37Z</time>
      </trkpt>
      <trkpt lat="45.65658" lon="4.54646">
        <ele>651.9111328125</ele>
        <time>2012-04-07T08:14:41Z</time>
      </trkpt>
      <trkpt lat="45.65649" lon="4.54655">
        <ele>653.833984375</ele>
        <time>2012-04-07T08:14:48Z</time>
      </trkpt>
      <trkpt lat="45.65639" lon="4.54666">
        <ele>657.19848632812</ele>
        <time>2012-04-07T08:14:57Z</time>
      </trkpt>
      <trkpt lat="45.65631" lon="4.5468">
        <ele>657.19848632812</ele>
        <time>2012-04-07T08:15:05Z</time>
      </trkpt>
      <trkpt lat="45.65619" lon="4.54696">
        <ele>658.15991210938</ele>
        <time>2012-04-07T08:15:14Z</time>
      </trkpt>
      <trkpt lat="45.65608" lon="4.54711">
        <ele>659.60180664062</ele>
        <time>2012-04-07T08:15:23Z</time>
      </trkpt>
      <trkpt lat="45.65598" lon="4.54726">
        <ele>661.04370117188</ele>
        <time>2012-04-07T08:15:33Z</time>
      </trkpt>
      <trkpt lat="45.65586" lon="4.54741">
        <ele>662.00512695312</ele>
        <time>2012-04-07T08:15:43Z</time>
      </trkpt>
      <trkpt lat="45.65574" lon="4.54752">
        <ele>665.36962890625</ele>
        <time>2012-04-07T08:15:52Z</time>
      </trkpt>
      <trkpt lat="45.65565" lon="4.54757">
        <ele>667.29223632812</ele>
        <time>2012-04-07T08:15:59Z</time>
      </trkpt>
      <trkpt lat="45.65556" lon="4.54763">
        <ele>669.69580078125</ele>
        <time>2012-04-07T08:16:05Z</time>
      </trkpt>
      <trkpt lat="45.65543" lon="4.54769">
        <ele>672.09887695312</ele>
        <time>2012-04-07T08:16:14Z</time>
      </trkpt>
      <trkpt lat="45.65532" lon="4.54773">
        <ele>674.021484375</ele>
        <time>2012-04-07T08:16:23Z</time>
      </trkpt>
      <trkpt lat="45.65524" lon="4.54784">
        <ele>674.98291015625</ele>
        <time>2012-04-07T08:16:30Z</time>
      </trkpt>
      <trkpt lat="45.65516" lon="4.54785">
        <ele>676.90551757812</ele>
        <time>2012-04-07T08:16:36Z</time>
      </trkpt>
      <trkpt lat="45.65505" lon="4.54788">
        <ele>678.828125</ele>
        <time>2012-04-07T08:16:45Z</time>
      </trkpt>
      <trkpt lat="45.65497" lon="4.54794">
        <ele>680.75073242188</ele>
        <time>2012-04-07T08:16:52Z</time>
      </trkpt>
      <trkpt lat="45.65484" lon="4.548">
        <ele>683.63452148438</ele>
        <time>2012-04-07T08:17:01Z</time>
      </trkpt>
      <trkpt lat="45.65472" lon="4.54798">
        <ele>685.55737304688</ele>
        <time>2012-04-07T08:17:09Z</time>
      </trkpt>
      <trkpt lat="45.65462" lon="4.54797">
        <ele>686.99926757812</ele>
        <time>2012-04-07T08:17:15Z</time>
      </trkpt>
      <trkpt lat="45.6545" lon="4.54802">
        <ele>688.44140625</ele>
        <time>2012-04-07T08:17:24Z</time>
      </trkpt>
      <trkpt lat="45.65435" lon="4.54813">
        <ele>690.36401367188</ele>
        <time>2012-04-07T08:17:35Z</time>
      </trkpt>
      <trkpt lat="45.65427" lon="4.5482">
        <ele>691.3251953125</ele>
        <time>2012-04-07T08:17:41Z</time>
      </trkpt>
      <trkpt lat="45.65414" lon="4.5483">
        <ele>693.24780273438</ele>
        <time>2012-04-07T08:17:51Z</time>
      </trkpt>
      <trkpt lat="45.65403" lon="4.5484">
        <ele>694.20922851562</ele>
        <time>2012-04-07T08:18:00Z</time>
      </trkpt>
      <trkpt lat="45.65394" lon="4.54847">
        <ele>696.1318359375</ele>
        <time>2012-04-07T08:18:07Z</time>
      </trkpt>
      <trkpt lat="45.65384" lon="4.54854">
        <ele>697.57373046875</ele>
        <time>2012-04-07T08:18:15Z</time>
      </trkpt>
      <trkpt lat="45.65371" lon="4.5486">
        <ele>699.97705078125</ele>
        <time>2012-04-07T08:18:24Z</time>
      </trkpt>
      <trkpt lat="45.65355" lon="4.54864">
        <ele>702.38037109375</ele>
        <time>2012-04-07T08:18:34Z</time>
      </trkpt>
      <trkpt lat="45.6534" lon="4.54867">
        <ele>704.78369140625</ele>
        <time>2012-04-07T08:18:43Z</time>
      </trkpt>
      <trkpt lat="45.65326" lon="4.54872">
        <ele>707.66772460938</ele>
        <time>2012-04-07T08:18:52Z</time>
      </trkpt>
      <trkpt lat="45.65311" lon="4.54881">
        <ele>710.07080078125</ele>
        <time>2012-04-07T08:19:02Z</time>
      </trkpt>
      <trkpt lat="45.653" lon="4.54889">
        <ele>709.59033203125</ele>
        <time>2012-04-07T08:19:09Z</time>
      </trkpt>
      <trkpt lat="45.65287" lon="4.54899">
        <ele>710.07080078125</ele>
        <time>2012-04-07T08:19:18Z</time>
      </trkpt>
      <trkpt lat="45.65276" lon="4.54911">
        <ele>710.55151367188</ele>
        <time>2012-04-07T08:19:27Z</time>
      </trkpt>
      <trkpt lat="45.65263" lon="4.54922">
        <ele>712.47412109375</ele>
        <time>2012-04-07T08:19:36Z</time>
      </trkpt>
      <trkpt lat="45.65253" lon="4.54932">
        <ele>713.435546875</ele>
        <time>2012-04-07T08:19:43Z</time>
      </trkpt>
      <trkpt lat="45.65249" lon="4.54936">
        <ele>713.916015625</ele>
        <time>2012-04-07T08:19:46Z</time>
      </trkpt>
      <trkpt lat="45.65248" lon="4.54937">
        <ele>714.39672851562</ele>
        <time>2012-04-07T08:19:48Z</time>
      </trkpt>
      <trkpt lat="45.65245" lon="4.54948">
        <ele>719.20361328125</ele>
        <time>2012-04-07T08:22:01Z</time>
      </trkpt>
      <trkpt lat="45.65234" lon="4.54957">
        <ele>719.20361328125</ele>
        <time>2012-04-07T08:22:08Z</time>
      </trkpt>
      <trkpt lat="45.65223" lon="4.54968">
        <ele>720.16479492188</ele>
        <time>2012-04-07T08:22:16Z</time>
      </trkpt>
      <trkpt lat="45.65213" lon="4.54979">
        <ele>720.6455078125</ele>
        <time>2012-04-07T08:22:24Z</time>
      </trkpt>
      <trkpt lat="45.65201" lon="4.54993">
        <ele>721.12622070312</ele>
        <time>2012-04-07T08:22:32Z</time>
      </trkpt>
      <trkpt lat="45.65183" lon="4.55014">
        <ele>721.60668945312</ele>
        <time>2012-04-07T08:22:43Z</time>
      </trkpt>
      <trkpt lat="45.65165" lon="4.55032">
        <ele>722.08740234375</ele>
        <time>2012-04-07T08:22:52Z</time>
      </trkpt>
      <trkpt lat="45.65137" lon="4.55053">
        <ele>723.048828125</ele>
        <time>2012-04-07T08:23:02Z</time>
      </trkpt>
      <trkpt lat="45.65114" lon="4.55067">
        <ele>724.97143554688</ele>
        <time>2012-04-07T08:23:11Z</time>
      </trkpt>
      <trkpt lat="45.65088" lon="4.55083">
        <ele>726.89404296875</ele>
        <time>2012-04-07T08:23:22Z</time>
      </trkpt>
      <trkpt lat="45.65062" lon="4.55098">
        <ele>728.3359375</ele>
        <time>2012-04-07T08:23:33Z</time>
      </trkpt>
      <trkpt lat="45.65044" lon="4.55113">
        <ele>729.77783203125</ele>
        <time>2012-04-07T08:23:42Z</time>
      </trkpt>
      <trkpt lat="45.6503" lon="4.55126">
        <ele>731.21997070312</ele>
        <time>2012-04-07T08:23:50Z</time>
      </trkpt>
      <trkpt lat="45.65012" lon="4.55142">
        <ele>732.662109375</ele>
        <time>2012-04-07T08:24:01Z</time>
      </trkpt>
      <trkpt lat="45.64999" lon="4.55158">
        <ele>734.10400390625</ele>
        <time>2012-04-07T08:24:10Z</time>
      </trkpt>
      <trkpt lat="45.64983" lon="4.55172">
        <ele>736.02661132812</ele>
        <time>2012-04-07T08:24:20Z</time>
      </trkpt>
      <trkpt lat="45.64972" lon="4.55177">
        <ele>737.46850585938</ele>
        <time>2012-04-07T08:24:27Z</time>
      </trkpt>
      <trkpt lat="45.64958" lon="4.55181">
        <ele>738.91064453125</ele>
        <time>2012-04-07T08:24:33Z</time>
      </trkpt>
      <trkpt lat="45.64939" lon="4.55187">
        <ele>741.31372070312</ele>
        <time>2012-04-07T08:24:43Z</time>
      </trkpt>
      <trkpt lat="45.64925" lon="4.55194">
        <ele>742.755859375</ele>
        <time>2012-04-07T08:24:51Z</time>
      </trkpt>
      <trkpt lat="45.6491" lon="4.55206">
        <ele>742.755859375</ele>
        <time>2012-04-07T08:25:00Z</time>
      </trkpt>
      <trkpt lat="45.64906" lon="4.5521">
        <ele>742.755859375</ele>
        <time>2012-04-07T08:25:03Z</time>
      </trkpt>
      <trkpt lat="45.64904" lon="4.55214">
        <ele>742.755859375</ele>
        <time>2012-04-07T08:25:08Z</time>
      </trkpt>
      <trkpt lat="45.64904" lon="4.55212">
        <ele>742.27514648438</ele>
        <time>2012-04-07T08:25:19Z</time>
      </trkpt>
      <trkpt lat="45.64909" lon="4.55206">
        <ele>741.79443359375</ele>
        <time>2012-04-07T08:25:24Z</time>
      </trkpt>
      <trkpt lat="45.64924" lon="4.55195">
        <ele>741.31372070312</ele>
        <time>2012-04-07T08:25:31Z</time>
      </trkpt>
      <trkpt lat="45.64943" lon="4.55186">
        <ele>739.87182617188</ele>
        <time>2012-04-07T08:25:36Z</time>
      </trkpt>
      <trkpt lat="45.6497" lon="4.55178">
        <ele>737.46850585938</ele>
        <time>2012-04-07T08:25:42Z</time>
      </trkpt>
      <trkpt lat="45.64982" lon="4.55186">
        <ele>737.94921875</ele>
        <time>2012-04-07T08:25:46Z</time>
      </trkpt>
      <trkpt lat="45.64985" lon="4.55194">
        <ele>738.42993164062</ele>
        <time>2012-04-07T08:25:48Z</time>
      </trkpt>
      <trkpt lat="45.64994" lon="4.55232">
        <ele>740.3525390625</ele>
        <time>2012-04-07T08:25:58Z</time>
      </trkpt>
      <trkpt lat="45.6499" lon="4.55255">
        <ele>742.27514648438</ele>
        <time>2012-04-07T08:26:05Z</time>
      </trkpt>
      <trkpt lat="45.64985" lon="4.55266">
        <ele>743.236328125</ele>
        <time>2012-04-07T08:26:10Z</time>
      </trkpt>
      <trkpt lat="45.64977" lon="4.55282">
        <ele>746.12036132812</ele>
        <time>2012-04-07T08:26:17Z</time>
      </trkpt>
      <trkpt lat="45.64966" lon="4.55301">
        <ele>748.52368164062</ele>
        <time>2012-04-07T08:26:26Z</time>
      </trkpt>
      <trkpt lat="45.64957" lon="4.55317">
        <ele>750.44653320312</ele>
        <time>2012-04-07T08:26:34Z</time>
      </trkpt>
      <trkpt lat="45.64948" lon="4.55339">
        <ele>752.849609375</ele>
        <time>2012-04-07T08:26:43Z</time>
      </trkpt>
      <trkpt lat="45.64943" lon="4.55362">
        <ele>754.77221679688</ele>
        <time>2012-04-07T08:26:51Z</time>
      </trkpt>
      <trkpt lat="45.64938" lon="4.55387">
        <ele>756.69482421875</ele>
        <time>2012-04-07T08:27:00Z</time>
      </trkpt>
      <trkpt lat="45.64935" lon="4.55403">
        <ele>758.13696289062</ele>
        <time>2012-04-07T08:27:06Z</time>
      </trkpt>
      <trkpt lat="45.64933" lon="4.55417">
        <ele>760.05932617188</ele>
        <time>2012-04-07T08:27:11Z</time>
      </trkpt>
      <trkpt lat="45.64929" lon="4.55432">
        <ele>760.5400390625</ele>
        <time>2012-04-07T08:27:17Z</time>
      </trkpt>
      <trkpt lat="45.64925" lon="4.55452">
        <ele>761.98217773438</ele>
        <time>2012-04-07T08:27:24Z</time>
      </trkpt>
      <trkpt lat="45.64922" lon="4.55471">
        <ele>762.943359375</ele>
        <time>2012-04-07T08:27:30Z</time>
      </trkpt>
      <trkpt lat="45.64925" lon="4.55485">
        <ele>763.90454101562</ele>
        <time>2012-04-07T08:27:35Z</time>
      </trkpt>
      <trkpt lat="45.64935" lon="4.55497">
        <ele>764.38549804688</ele>
        <time>2012-04-07T08:27:41Z</time>
      </trkpt>
      <trkpt lat="45.64941" lon="4.55505">
        <ele>764.38549804688</ele>
        <time>2012-04-07T08:27:45Z</time>
      </trkpt>
      <trkpt lat="45.64942" lon="4.55507">
        <ele>764.8662109375</ele>
        <time>2012-04-07T08:27:49Z</time>
      </trkpt>
      <trkpt lat="45.64944" lon="4.55506">
        <ele>770.63403320312</ele>
        <time>2012-04-07T08:28:52Z</time>
      </trkpt>
      <trkpt lat="45.64946" lon="4.55507">
        <ele>770.63403320312</ele>
        <time>2012-04-07T08:28:53Z</time>
      </trkpt>
      <trkpt lat="45.64955" lon="4.5552">
        <ele>771.11474609375</ele>
        <time>2012-04-07T08:28:57Z</time>
      </trkpt>
      <trkpt lat="45.6497" lon="4.5554">
        <ele>770.63403320312</ele>
        <time>2012-04-07T08:29:03Z</time>
      </trkpt>
      <trkpt lat="45.64993" lon="4.55563">
        <ele>770.1533203125</ele>
        <time>2012-04-07T08:29:09Z</time>
      </trkpt>
      <trkpt lat="45.65024" lon="4.55602">
        <ele>769.19213867188</ele>
        <time>2012-04-07T08:29:18Z</time>
      </trkpt>
      <trkpt lat="45.65054" lon="4.55632">
        <ele>769.19213867188</ele>
        <time>2012-04-07T08:29:26Z</time>
      </trkpt>
      <trkpt lat="45.65086" lon="4.55669">
        <ele>768.23071289062</ele>
        <time>2012-04-07T08:29:35Z</time>
      </trkpt>
      <trkpt lat="45.65107" lon="4.55697">
        <ele>767.75</ele>
        <time>2012-04-07T08:29:42Z</time>
      </trkpt>
      <trkpt lat="45.65119" lon="4.55735">
        <ele>767.75</ele>
        <time>2012-04-07T08:29:49Z</time>
      </trkpt>
      <trkpt lat="45.65125" lon="4.55773">
        <ele>768.71142578125</ele>
        <time>2012-04-07T08:29:57Z</time>
      </trkpt>
      <trkpt lat="45.65128" lon="4.55796">
        <ele>768.71142578125</ele>
        <time>2012-04-07T08:30:03Z</time>
      </trkpt>
      <trkpt lat="45.65139" lon="4.55837">
        <ele>769.19213867188</ele>
        <time>2012-04-07T08:30:11Z</time>
      </trkpt>
      <trkpt lat="45.65155" lon="4.55885">
        <ele>770.63403320312</ele>
        <time>2012-04-07T08:30:20Z</time>
      </trkpt>
      <trkpt lat="45.65166" lon="4.55932">
        <ele>771.59521484375</ele>
        <time>2012-04-07T08:30:28Z</time>
      </trkpt>
      <trkpt lat="45.6517" lon="4.55981">
        <ele>772.556640625</ele>
        <time>2012-04-07T08:30:36Z</time>
      </trkpt>
      <trkpt lat="45.65175" lon="4.56045">
        <ele>773.99853515625</ele>
        <time>2012-04-07T08:30:46Z</time>
      </trkpt>
      <trkpt lat="45.65182" lon="4.56087">
        <ele>775.4404296875</ele>
        <time>2012-04-07T08:30:53Z</time>
      </trkpt>
      <trkpt lat="45.65191" lon="4.56139">
        <ele>777.36328125</ele>
        <time>2012-04-07T08:31:02Z</time>
      </trkpt>
      <trkpt lat="45.65192" lon="4.56145">
        <ele>777.36328125</ele>
        <time>2012-04-07T08:31:03Z</time>
      </trkpt>
      <trkpt lat="45.65193" lon="4.56219">
        <ele>778.80517578125</ele>
        <time>2012-04-07T08:31:16Z</time>
      </trkpt>
      <trkpt lat="45.65187" lon="4.56277">
        <ele>779.28564453125</ele>
        <time>2012-04-07T08:31:26Z</time>
      </trkpt>
      <trkpt lat="45.65183" lon="4.56321">
        <ele>779.28564453125</ele>
        <time>2012-04-07T08:31:34Z</time>
      </trkpt>
      <trkpt lat="45.65178" lon="4.56372">
        <ele>779.76635742188</ele>
        <time>2012-04-07T08:31:43Z</time>
      </trkpt>
      <trkpt lat="45.65173" lon="4.56442">
        <ele>781.68920898438</ele>
        <time>2012-04-07T08:31:55Z</time>
      </trkpt>
      <trkpt lat="45.65176" lon="4.56499">
        <ele>783.61181640625</ele>
        <time>2012-04-07T08:32:05Z</time>
      </trkpt>
      <trkpt lat="45.65186" lon="4.56536">
        <ele>785.05395507812</ele>
        <time>2012-04-07T08:32:12Z</time>
      </trkpt>
      <trkpt lat="45.65194" lon="4.56563">
        <ele>786.01513671875</ele>
        <time>2012-04-07T08:32:17Z</time>
      </trkpt>
      <trkpt lat="45.65197" lon="4.5658">
        <ele>786.01513671875</ele>
        <time>2012-04-07T08:32:20Z</time>
      </trkpt>
      <trkpt lat="45.65193" lon="4.56607">
        <ele>786.97631835938</ele>
        <time>2012-04-07T08:32:25Z</time>
      </trkpt>
      <trkpt lat="45.65184" lon="4.56619">
        <ele>787.45703125</ele>
        <time>2012-04-07T08:32:28Z</time>
      </trkpt>
      <trkpt lat="45.65162" lon="4.56637">
        <ele>789.8603515625</ele>
        <time>2012-04-07T08:32:35Z</time>
      </trkpt>
      <trkpt lat="45.6514" lon="4.56657">
        <ele>790.82153320312</ele>
        <time>2012-04-07T08:32:42Z</time>
      </trkpt>
      <trkpt lat="45.65112" lon="4.56683">
        <ele>792.263671875</ele>
        <time>2012-04-07T08:32:50Z</time>
      </trkpt>
      <trkpt lat="45.65089" lon="4.56704">
        <ele>794.18627929688</ele>
        <time>2012-04-07T08:32:56Z</time>
      </trkpt>
      <trkpt lat="45.65078" lon="4.56713">
        <ele>795.62817382812</ele>
        <time>2012-04-07T08:32:59Z</time>
      </trkpt>
      <trkpt lat="45.65051" lon="4.56747">
        <ele>798.03173828125</ele>
        <time>2012-04-07T08:33:09Z</time>
      </trkpt>
      <trkpt lat="45.65033" lon="4.56768">
        <ele>798.99291992188</ele>
        <time>2012-04-07T08:33:16Z</time>
      </trkpt>
      <trkpt lat="45.65008" lon="4.56794">
        <ele>799.4736328125</ele>
        <time>2012-04-07T08:33:25Z</time>
      </trkpt>
      <trkpt lat="45.64982" lon="4.56826">
        <ele>799.95434570312</ele>
        <time>2012-04-07T08:33:34Z</time>
      </trkpt>
      <trkpt lat="45.64956" lon="4.56874">
        <ele>799.95434570312</ele>
        <time>2012-04-07T08:33:45Z</time>
      </trkpt>
      <trkpt lat="45.64936" lon="4.56909">
        <ele>799.4736328125</ele>
        <time>2012-04-07T08:33:53Z</time>
      </trkpt>
      <trkpt lat="45.64912" lon="4.56955">
        <ele>799.95434570312</ele>
        <time>2012-04-07T08:34:03Z</time>
      </trkpt>
      <trkpt lat="45.64889" lon="4.56998">
        <ele>800.43505859375</ele>
        <time>2012-04-07T08:34:12Z</time>
      </trkpt>
      <trkpt lat="45.64863" lon="4.57029">
        <ele>801.39624023438</ele>
        <time>2012-04-07T08:34:20Z</time>
      </trkpt>
      <trkpt lat="45.64849" lon="4.57043">
        <ele>802.357421875</ele>
        <time>2012-04-07T08:34:24Z</time>
      </trkpt>
      <trkpt lat="45.64823" lon="4.57083">
        <ele>803.31884765625</ele>
        <time>2012-04-07T08:34:33Z</time>
      </trkpt>
      <trkpt lat="45.64793" lon="4.57126">
        <ele>805.24145507812</ele>
        <time>2012-04-07T08:34:43Z</time>
      </trkpt>
      <trkpt lat="45.64762" lon="4.57157">
        <ele>806.68334960938</ele>
        <time>2012-04-07T08:34:52Z</time>
      </trkpt>
      <trkpt lat="45.64726" lon="4.57185">
        <ele>807.64477539062</ele>
        <time>2012-04-07T08:35:01Z</time>
      </trkpt>
      <trkpt lat="45.64691" lon="4.57209">
        <ele>807.64477539062</ele>
        <time>2012-04-07T08:35:10Z</time>
      </trkpt>
      <trkpt lat="45.64682" lon="4.57215">
        <ele>807.64477539062</ele>
        <time>2012-04-07T08:35:13Z</time>
      </trkpt>
      <trkpt lat="45.64684" lon="4.57218">
        <ele>811.48999023438</ele>
        <time>2012-04-07T08:37:09Z</time>
      </trkpt>
      <trkpt lat="45.64692" lon="4.57234">
        <ele>812.45141601562</ele>
        <time>2012-04-07T08:37:14Z</time>
      </trkpt>
      <trkpt lat="45.64708" lon="4.57278">
        <ele>813.41284179688</ele>
        <time>2012-04-07T08:37:24Z</time>
      </trkpt>
      <trkpt lat="45.64721" lon="4.57318">
        <ele>812.93212890625</ele>
        <time>2012-04-07T08:37:32Z</time>
      </trkpt>
      <trkpt lat="45.6473" lon="4.57372">
        <ele>811.48999023438</ele>
        <time>2012-04-07T08:37:40Z</time>
      </trkpt>
      <trkpt lat="45.64743" lon="4.57436">
        <ele>811.00927734375</ele>
        <time>2012-04-07T08:37:49Z</time>
      </trkpt>
      <trkpt lat="45.6476" lon="4.57505">
        <ele>809.5673828125</ele>
        <time>2012-04-07T08:37:59Z</time>
      </trkpt>
      <trkpt lat="45.64775" lon="4.57556">
        <ele>809.08666992188</ele>
        <time>2012-04-07T08:38:07Z</time>
      </trkpt>
      <trkpt lat="45.64795" lon="4.57615">
        <ele>809.08666992188</ele>
        <time>2012-04-07T08:38:17Z</time>
      </trkpt>
      <trkpt lat="45.64801" lon="4.57661">
        <ele>808.60595703125</ele>
        <time>2012-04-07T08:38:24Z</time>
      </trkpt>
      <trkpt lat="45.64807" lon="4.57716">
        <ele>808.60595703125</ele>
        <time>2012-04-07T08:38:32Z</time>
      </trkpt>
      <trkpt lat="45.64811" lon="4.57777">
        <ele>809.08666992188</ele>
        <time>2012-04-07T08:38:41Z</time>
      </trkpt>
      <trkpt lat="45.64819" lon="4.57826">
        <ele>809.5673828125</ele>
        <time>2012-04-07T08:38:49Z</time>
      </trkpt>
      <trkpt lat="45.64829" lon="4.57867">
        <ele>811.00927734375</ele>
        <time>2012-04-07T08:38:57Z</time>
      </trkpt>
      <trkpt lat="45.64833" lon="4.57899">
        <ele>811.48999023438</ele>
        <time>2012-04-07T08:39:03Z</time>
      </trkpt>
      <trkpt lat="45.64832" lon="4.57939">
        <ele>811.48999023438</ele>
        <time>2012-04-07T08:39:10Z</time>
      </trkpt>
      <trkpt lat="45.64832" lon="4.57988">
        <ele>811.970703125</ele>
        <time>2012-04-07T08:39:18Z</time>
      </trkpt>
      <trkpt lat="45.64833" lon="4.58034">
        <ele>812.93212890625</ele>
        <time>2012-04-07T08:39:26Z</time>
      </trkpt>
      <trkpt lat="45.64832" lon="4.58067">
        <ele>812.93212890625</ele>
        <time>2012-04-07T08:39:32Z</time>
      </trkpt>
      <trkpt lat="45.64817" lon="4.58089">
        <ele>812.93212890625</ele>
        <time>2012-04-07T08:39:37Z</time>
      </trkpt>
      <trkpt lat="45.64784" lon="4.58137">
        <ele>812.45141601562</ele>
        <time>2012-04-07T08:39:47Z</time>
      </trkpt>
      <trkpt lat="45.64752" lon="4.58181">
        <ele>812.45141601562</ele>
        <time>2012-04-07T08:39:56Z</time>
      </trkpt>
      <trkpt lat="45.64722" lon="4.58207">
        <ele>811.970703125</ele>
        <time>2012-04-07T08:40:03Z</time>
      </trkpt>
      <trkpt lat="45.64667" lon="4.5824">
        <ele>812.93212890625</ele>
        <time>2012-04-07T08:40:15Z</time>
      </trkpt>
      <trkpt lat="45.64631" lon="4.58264">
        <ele>812.93212890625</ele>
        <time>2012-04-07T08:40:23Z</time>
      </trkpt>
      <trkpt lat="45.64599" lon="4.58291">
        <ele>813.89331054688</ele>
        <time>2012-04-07T08:40:31Z</time>
      </trkpt>
      <trkpt lat="45.64559" lon="4.58329">
        <ele>813.89331054688</ele>
        <time>2012-04-07T08:40:41Z</time>
      </trkpt>
      <trkpt lat="45.64517" lon="4.58369">
        <ele>814.85473632812</ele>
        <time>2012-04-07T08:40:52Z</time>
      </trkpt>
      <trkpt lat="45.64482" lon="4.58408">
        <ele>815.81616210938</ele>
        <time>2012-04-07T08:41:02Z</time>
      </trkpt>
      <trkpt lat="45.64457" lon="4.58441">
        <ele>817.25805664062</ele>
        <time>2012-04-07T08:41:10Z</time>
      </trkpt>
      <trkpt lat="45.64433" lon="4.58472">
        <ele>818.21923828125</ele>
        <time>2012-04-07T08:41:18Z</time>
      </trkpt>
      <trkpt lat="45.64396" lon="4.58521">
        <ele>819.66137695312</ele>
        <time>2012-04-07T08:41:31Z</time>
      </trkpt>
      <trkpt lat="45.64385" lon="4.58544">
        <ele>820.62255859375</ele>
        <time>2012-04-07T08:41:36Z</time>
      </trkpt>
      <trkpt lat="45.64379" lon="4.58574">
        <ele>823.02587890625</ele>
        <time>2012-04-07T08:41:42Z</time>
      </trkpt>
      <trkpt lat="45.64375" lon="4.58599">
        <ele>825.90966796875</ele>
        <time>2012-04-07T08:41:48Z</time>
      </trkpt>
      <trkpt lat="45.64366" lon="4.58613">
        <ele>826.87109375</ele>
        <time>2012-04-07T08:41:53Z</time>
      </trkpt>
      <trkpt lat="45.64344" lon="4.58632">
        <ele>829.75512695312</ele>
        <time>2012-04-07T08:42:02Z</time>
      </trkpt>
      <trkpt lat="45.64324" lon="4.58648">
        <ele>832.15844726562</ele>
        <time>2012-04-07T08:42:11Z</time>
      </trkpt>
      <trkpt lat="45.64304" lon="4.58659">
        <ele>835.04248046875</ele>
        <time>2012-04-07T08:42:20Z</time>
      </trkpt>
      <trkpt lat="45.64291" lon="4.58669">
        <ele>837.44555664062</ele>
        <time>2012-04-07T08:42:27Z</time>
      </trkpt>
      <trkpt lat="45.64272" lon="4.58682">
        <ele>839.84887695312</ele>
        <time>2012-04-07T08:42:37Z</time>
      </trkpt>
      <trkpt lat="45.64255" lon="4.58693">
        <ele>843.69409179688</ele>
        <time>2012-04-07T08:42:47Z</time>
      </trkpt>
      <trkpt lat="45.64249" lon="4.58704">
        <ele>844.17504882812</ele>
        <time>2012-04-07T08:42:53Z</time>
      </trkpt>
      <trkpt lat="45.64246" lon="4.5872">
        <ele>845.61694335938</ele>
        <time>2012-04-07T08:43:00Z</time>
      </trkpt>
      <trkpt lat="45.64244" lon="4.58737">
        <ele>847.53955078125</ele>
        <time>2012-04-07T08:43:07Z</time>
      </trkpt>
      <trkpt lat="45.64235" lon="4.5875">
        <ele>848.9814453125</ele>
        <time>2012-04-07T08:43:14Z</time>
      </trkpt>
      <trkpt lat="45.64223" lon="4.58761">
        <ele>851.384765625</ele>
        <time>2012-04-07T08:43:22Z</time>
      </trkpt>
      <trkpt lat="45.64209" lon="4.5877">
        <ele>853.7880859375</ele>
        <time>2012-04-07T08:43:31Z</time>
      </trkpt>
      <trkpt lat="45.64196" lon="4.58776">
        <ele>855.71069335938</ele>
        <time>2012-04-07T08:43:39Z</time>
      </trkpt>
      <trkpt lat="45.64182" lon="4.58781">
        <ele>857.63330078125</ele>
        <time>2012-04-07T08:43:47Z</time>
      </trkpt>
      <trkpt lat="45.64164" lon="4.58788">
        <ele>860.03662109375</ele>
        <time>2012-04-07T08:43:57Z</time>
      </trkpt>
      <trkpt lat="45.64149" lon="4.58794">
        <ele>862.43994140625</ele>
        <time>2012-04-07T08:44:06Z</time>
      </trkpt>
      <trkpt lat="45.64133" lon="4.58801">
        <ele>864.36254882812</ele>
        <time>2012-04-07T08:44:15Z</time>
      </trkpt>
      <trkpt lat="45.64117" lon="4.58808">
        <ele>866.28515625</ele>
        <time>2012-04-07T08:44:24Z</time>
      </trkpt>
      <trkpt lat="45.64106" lon="4.58813">
        <ele>868.20776367188</ele>
        <time>2012-04-07T08:44:31Z</time>
      </trkpt>
      <trkpt lat="45.64103" lon="4.58814">
        <ele>869.16918945312</ele>
        <time>2012-04-07T08:44:33Z</time>
      </trkpt>
      <trkpt lat="45.6409" lon="4.58807">
        <ele>871.091796875</ele>
        <time>2012-04-07T08:44:41Z</time>
      </trkpt>
      <trkpt lat="45.64079" lon="4.58803">
        <ele>872.05297851562</ele>
        <time>2012-04-07T08:44:48Z</time>
      </trkpt>
      <trkpt lat="45.64077" lon="4.58815">
        <ele>873.01440429688</ele>
        <time>2012-04-07T08:44:54Z</time>
      </trkpt>
      <trkpt lat="45.64075" lon="4.58821">
        <ele>873.4951171875</ele>
        <time>2012-04-07T08:44:56Z</time>
      </trkpt>
      <trkpt lat="45.64067" lon="4.58837">
        <ele>874.93701171875</ele>
        <time>2012-04-07T08:45:03Z</time>
      </trkpt>
      <trkpt lat="45.64061" lon="4.5885">
        <ele>877.82104492188</ele>
        <time>2012-04-07T08:45:09Z</time>
      </trkpt>
      <trkpt lat="45.64061" lon="4.58852">
        <ele>877.82104492188</ele>
        <time>2012-04-07T08:45:10Z</time>
      </trkpt>
      <trkpt lat="45.64056" lon="4.58864">
        <ele>880.22436523438</ele>
        <time>2012-04-07T08:45:16Z</time>
      </trkpt>
      <trkpt lat="45.6405" lon="4.58875">
        <ele>882.14697265625</ele>
        <time>2012-04-07T08:45:21Z</time>
      </trkpt>
      <trkpt lat="45.64049" lon="4.5888">
        <ele>882.62768554688</ele>
        <time>2012-04-07T08:45:23Z</time>
      </trkpt>
      <trkpt lat="45.6405" lon="4.589">
        <ele>885.51147460938</ele>
        <time>2012-04-07T08:45:30Z</time>
      </trkpt>
      <trkpt lat="45.6405" lon="4.58909">
        <ele>884.06958007812</ele>
        <time>2012-04-07T08:45:33Z</time>
      </trkpt>
      <trkpt lat="45.64049" lon="4.58926">
        <ele>885.03100585938</ele>
        <time>2012-04-07T08:45:39Z</time>
      </trkpt>
      <trkpt lat="45.64049" lon="4.58941">
        <ele>885.9921875</ele>
        <time>2012-04-07T08:45:44Z</time>
      </trkpt>
      <trkpt lat="45.64049" lon="4.58957">
        <ele>887.43408203125</ele>
        <time>2012-04-07T08:45:49Z</time>
      </trkpt>
      <trkpt lat="45.6405" lon="4.58972">
        <ele>888.87622070312</ele>
        <time>2012-04-07T08:45:54Z</time>
      </trkpt>
      <trkpt lat="45.6405" lon="4.58977">
        <ele>889.35668945312</ele>
        <time>2012-04-07T08:45:56Z</time>
      </trkpt>
      <trkpt lat="45.64049" lon="4.58992">
        <ele>890.79858398438</ele>
        <time>2012-04-07T08:46:02Z</time>
      </trkpt>
      <trkpt lat="45.64048" lon="4.58997">
        <ele>892.24096679688</ele>
        <time>2012-04-07T08:46:04Z</time>
      </trkpt>
      <trkpt lat="45.64043" lon="4.59014">
        <ele>896.56689453125</ele>
        <time>2012-04-07T08:46:10Z</time>
      </trkpt>
      <trkpt lat="45.6404" lon="4.59023">
        <ele>897.52807617188</ele>
        <time>2012-04-07T08:46:14Z</time>
      </trkpt>
      <trkpt lat="45.6403" lon="4.5904">
        <ele>897.52807617188</ele>
        <time>2012-04-07T08:46:21Z</time>
      </trkpt>
      <trkpt lat="45.64024" lon="4.59051">
        <ele>897.52807617188</ele>
        <time>2012-04-07T08:46:27Z</time>
      </trkpt>
      <trkpt lat="45.64019" lon="4.59063">
        <ele>898.0087890625</ele>
        <time>2012-04-07T08:46:33Z</time>
      </trkpt>
      <trkpt lat="45.64018" lon="4.59066">
        <ele>898.0087890625</ele>
        <time>2012-04-07T08:46:34Z</time>
      </trkpt>
      <trkpt lat="45.64016" lon="4.5907">
        <ele>897.52807617188</ele>
        <time>2012-04-07T08:46:36Z</time>
      </trkpt>
      <trkpt lat="45.64009" lon="4.59082">
        <ele>897.04736328125</ele>
        <time>2012-04-07T08:46:42Z</time>
      </trkpt>
      <trkpt lat="45.64003" lon="4.59093">
        <ele>896.08618164062</ele>
        <time>2012-04-07T08:46:47Z</time>
      </trkpt>
      <trkpt lat="45.63996" lon="4.59109">
        <ele>897.04736328125</ele>
        <time>2012-04-07T08:46:54Z</time>
      </trkpt>
      <trkpt lat="45.6399" lon="4.59114">
        <ele>899.45068359375</ele>
        <time>2012-04-07T08:46:58Z</time>
      </trkpt>
      <trkpt lat="45.63982" lon="4.59121">
        <ele>903.2958984375</ele>
        <time>2012-04-07T08:47:04Z</time>
      </trkpt>
      <trkpt lat="45.63974" lon="4.59128">
        <ele>907.14111328125</ele>
        <time>2012-04-07T08:47:11Z</time>
      </trkpt>
      <trkpt lat="45.63968" lon="4.59134">
        <ele>908.10278320312</ele>
        <time>2012-04-07T08:47:16Z</time>
      </trkpt>
      <trkpt lat="45.63964" lon="4.59138">
        <ele>909.06396484375</ele>
        <time>2012-04-07T08:47:19Z</time>
      </trkpt>
      <trkpt lat="45.63956" lon="4.59151">
        <ele>911.46728515625</ele>
        <time>2012-04-07T08:47:26Z</time>
      </trkpt>
      <trkpt lat="45.63949" lon="4.59165">
        <ele>912.9091796875</ele>
        <time>2012-04-07T08:47:32Z</time>
      </trkpt>
      <trkpt lat="45.6395" lon="4.59178">
        <ele>913.87036132812</ele>
        <time>2012-04-07T08:47:36Z</time>
      </trkpt>
      <trkpt lat="45.63951" lon="4.59184">
        <ele>913.87036132812</ele>
        <time>2012-04-07T08:47:38Z</time>
      </trkpt>
      <trkpt lat="45.63953" lon="4.59195">
        <ele>915.3125</ele>
        <time>2012-04-07T08:47:42Z</time>
      </trkpt>
      <trkpt lat="45.6396" lon="4.59221">
        <ele>916.75439453125</ele>
        <time>2012-04-07T08:47:49Z</time>
      </trkpt>
      <trkpt lat="45.63964" lon="4.59237">
        <ele>918.67700195312</ele>
        <time>2012-04-07T08:47:53Z</time>
      </trkpt>
      <trkpt lat="45.63967" lon="4.59247">
        <ele>916.75439453125</ele>
        <time>2012-04-07T08:47:55Z</time>
      </trkpt>
      <trkpt lat="45.63968" lon="4.59262">
        <ele>917.71557617188</ele>
        <time>2012-04-07T08:47:59Z</time>
      </trkpt>
      <trkpt lat="45.63974" lon="4.59292">
        <ele>921.08032226562</ele>
        <time>2012-04-07T08:48:07Z</time>
      </trkpt>
      <trkpt lat="45.63974" lon="4.59308">
        <ele>921.08032226562</ele>
        <time>2012-04-07T08:48:12Z</time>
      </trkpt>
      <trkpt lat="45.63974" lon="4.59311">
        <ele>920.599609375</ele>
        <time>2012-04-07T08:48:13Z</time>
      </trkpt>
      <trkpt lat="45.63975" lon="4.59327">
        <ele>919.63842773438</ele>
        <time>2012-04-07T08:48:19Z</time>
      </trkpt>
      <trkpt lat="45.63974" lon="4.59332">
        <ele>920.11889648438</ele>
        <time>2012-04-07T08:48:21Z</time>
      </trkpt>
      <trkpt lat="45.63974" lon="4.59345">
        <ele>921.08032226562</ele>
        <time>2012-04-07T08:48:26Z</time>
      </trkpt>
      <trkpt lat="45.63972" lon="4.59364">
        <ele>920.11889648438</ele>
        <time>2012-04-07T08:48:33Z</time>
      </trkpt>
      <trkpt lat="45.63965" lon="4.59379">
        <ele>920.11889648438</ele>
        <time>2012-04-07T08:48:39Z</time>
      </trkpt>
      <trkpt lat="45.63958" lon="4.59389">
        <ele>921.56079101562</ele>
        <time>2012-04-07T08:48:45Z</time>
      </trkpt>
      <trkpt lat="45.63956" lon="4.59395">
        <ele>922.04150390625</ele>
        <time>2012-04-07T08:48:47Z</time>
      </trkpt>
      <trkpt lat="45.63957" lon="4.59408">
        <ele>924.92578125</ele>
        <time>2012-04-07T08:48:51Z</time>
      </trkpt>
      <trkpt lat="45.63951" lon="4.5942">
        <ele>925.88696289062</ele>
        <time>2012-04-07T08:48:56Z</time>
      </trkpt>
      <trkpt lat="45.63947" lon="4.59422">
        <ele>925.40625</ele>
        <time>2012-04-07T08:48:58Z</time>
      </trkpt>
      <trkpt lat="45.63935" lon="4.59418">
        <ele>925.40625</ele>
        <time>2012-04-07T08:49:03Z</time>
      </trkpt>
      <trkpt lat="45.63924" lon="4.59408">
        <ele>924.92578125</ele>
        <time>2012-04-07T08:49:08Z</time>
      </trkpt>
      <trkpt lat="45.63921" lon="4.59403">
        <ele>925.40625</ele>
        <time>2012-04-07T08:49:10Z</time>
      </trkpt>
      <trkpt lat="45.63916" lon="4.59411">
        <ele>925.40625</ele>
        <time>2012-04-07T08:49:14Z</time>
      </trkpt>
      <trkpt lat="45.63912" lon="4.59425">
        <ele>924.92578125</ele>
        <time>2012-04-07T08:49:18Z</time>
      </trkpt>
      <trkpt lat="45.63898" lon="4.5945">
        <ele>921.08032226562</ele>
        <time>2012-04-07T08:49:23Z</time>
      </trkpt>
      <trkpt lat="45.63884" lon="4.59459">
        <ele>921.08032226562</ele>
        <time>2012-04-07T08:49:27Z</time>
      </trkpt>
      <trkpt lat="45.63881" lon="4.5946">
        <ele>921.56079101562</ele>
        <time>2012-04-07T08:49:28Z</time>
      </trkpt>
      <trkpt lat="45.63873" lon="4.5946">
        <ele>921.56079101562</ele>
        <time>2012-04-07T08:49:30Z</time>
      </trkpt>
      <trkpt lat="45.63852" lon="4.59455">
        <ele>922.04150390625</ele>
        <time>2012-04-07T08:49:36Z</time>
      </trkpt>
      <trkpt lat="45.63838" lon="4.59454">
        <ele>920.599609375</ele>
        <time>2012-04-07T08:49:40Z</time>
      </trkpt>
      <trkpt lat="45.63819" lon="4.5945">
        <ele>919.63842773438</ele>
        <time>2012-04-07T08:49:46Z</time>
      </trkpt>
      <trkpt lat="45.63805" lon="4.59441">
        <ele>921.08032226562</ele>
        <time>2012-04-07T08:49:52Z</time>
      </trkpt>
      <trkpt lat="45.63803" lon="4.59439">
        <ele>921.08032226562</ele>
        <time>2012-04-07T08:49:54Z</time>
      </trkpt>
      <trkpt lat="45.63801" lon="4.59439">
        <ele>921.56079101562</ele>
        <time>2012-04-07T08:49:57Z</time>
      </trkpt>
      <trkpt lat="45.63509" lon="4.59407">
        <ele>856.671875</ele>
        <time>2012-04-07T08:56:38Z</time>
      </trkpt>
      <trkpt lat="45.63511" lon="4.59402">
        <ele>856.671875</ele>
        <time>2012-04-07T08:56:39Z</time>
      </trkpt>
      <trkpt lat="45.63514" lon="4.59384">
        <ele>857.15258789062</ele>
        <time>2012-04-07T08:56:41Z</time>
      </trkpt>
      <trkpt lat="45.63516" lon="4.59331">
        <ele>858.59448242188</ele>
        <time>2012-04-07T08:56:50Z</time>
      </trkpt>
      <trkpt lat="45.63518" lon="4.5928">
        <ele>860.03662109375</ele>
        <time>2012-04-07T08:56:59Z</time>
      </trkpt>
      <trkpt lat="45.63515" lon="4.59253">
        <ele>860.998046875</ele>
        <time>2012-04-07T08:57:04Z</time>
      </trkpt>
      <trkpt lat="45.63509" lon="4.59225">
        <ele>859.55590820312</ele>
        <time>2012-04-07T08:57:09Z</time>
      </trkpt>
      <trkpt lat="45.63494" lon="4.59188">
        <ele>857.63330078125</ele>
        <time>2012-04-07T08:57:13Z</time>
      </trkpt>
      <trkpt lat="45.63466" lon="4.59106">
        <ele>851.384765625</ele>
        <time>2012-04-07T08:57:20Z</time>
      </trkpt>
      <trkpt lat="45.63465" lon="4.59052">
        <ele>848.50073242188</ele>
        <time>2012-04-07T08:57:24Z</time>
      </trkpt>
      <trkpt lat="45.63467" lon="4.59038">
        <ele>848.02026367188</ele>
        <time>2012-04-07T08:57:25Z</time>
      </trkpt>
      <trkpt lat="45.6348" lon="4.58972">
        <ele>845.13623046875</ele>
        <time>2012-04-07T08:57:31Z</time>
      </trkpt>
      <trkpt lat="45.63486" lon="4.58934">
        <ele>842.73291015625</ele>
        <time>2012-04-07T08:57:35Z</time>
      </trkpt>
      <trkpt lat="45.63495" lon="4.58864">
        <ele>838.8876953125</ele>
        <time>2012-04-07T08:57:41Z</time>
      </trkpt>
      <trkpt lat="45.63497" lon="4.58853">
        <ele>838.40698242188</ele>
        <time>2012-04-07T08:57:42Z</time>
      </trkpt>
      <trkpt lat="45.63501" lon="4.58828">
        <ele>836.484375</ele>
        <time>2012-04-07T08:57:45Z</time>
      </trkpt>
      <trkpt lat="45.6349" lon="4.58803">
        <ele>836.00366210938</ele>
        <time>2012-04-07T08:57:49Z</time>
      </trkpt>
      <trkpt lat="45.63483" lon="4.58776">
        <ele>835.04248046875</ele>
        <time>2012-04-07T08:57:53Z</time>
      </trkpt>
      <trkpt lat="45.63472" lon="4.5874">
        <ele>836.00366210938</ele>
        <time>2012-04-07T08:57:58Z</time>
      </trkpt>
      <trkpt lat="45.63463" lon="4.58702">
        <ele>837.44555664062</ele>
        <time>2012-04-07T08:58:03Z</time>
      </trkpt>
      <trkpt lat="45.63454" lon="4.58675">
        <ele>837.44555664062</ele>
        <time>2012-04-07T08:58:07Z</time>
      </trkpt>
      <trkpt lat="45.63449" lon="4.58646">
        <ele>836.00366210938</ele>
        <time>2012-04-07T08:58:11Z</time>
      </trkpt>
      <trkpt lat="45.63445" lon="4.58632">
        <ele>836.484375</ele>
        <time>2012-04-07T08:58:13Z</time>
      </trkpt>
      <trkpt lat="45.63438" lon="4.58584">
        <ele>835.04248046875</ele>
        <time>2012-04-07T08:58:19Z</time>
      </trkpt>
      <trkpt lat="45.6343" lon="4.58543">
        <ele>832.15844726562</ele>
        <time>2012-04-07T08:58:24Z</time>
      </trkpt>
      <trkpt lat="45.63427" lon="4.58534">
        <ele>831.677734375</ele>
        <time>2012-04-07T08:58:25Z</time>
      </trkpt>
      <trkpt lat="45.63419" lon="4.58489">
        <ele>830.23583984375</ele>
        <time>2012-04-07T08:58:31Z</time>
      </trkpt>
      <trkpt lat="45.6341" lon="4.5844">
        <ele>828.31323242188</ele>
        <time>2012-04-07T08:58:39Z</time>
      </trkpt>
      <trkpt lat="45.63401" lon="4.58381">
        <ele>828.7939453125</ele>
        <time>2012-04-07T08:58:48Z</time>
      </trkpt>
      <trkpt lat="45.63398" lon="4.58361">
        <ele>829.2744140625</ele>
        <time>2012-04-07T08:58:51Z</time>
      </trkpt>
      <trkpt lat="45.63392" lon="4.58326">
        <ele>830.71655273438</ele>
        <time>2012-04-07T08:58:57Z</time>
      </trkpt>
      <trkpt lat="45.63391" lon="4.58316">
        <ele>831.197265625</ele>
        <time>2012-04-07T08:58:59Z</time>
      </trkpt>
      <trkpt lat="45.63389" lon="4.58286">
        <ele>833.60034179688</ele>
        <time>2012-04-07T08:59:05Z</time>
      </trkpt>
      <trkpt lat="45.63389" lon="4.58264">
        <ele>835.04248046875</ele>
        <time>2012-04-07T08:59:10Z</time>
      </trkpt>
      <trkpt lat="45.63388" lon="4.58233">
        <ele>836.00366210938</ele>
        <time>2012-04-07T08:59:17Z</time>
      </trkpt>
      <trkpt lat="45.63382" lon="4.58209">
        <ele>837.44555664062</ele>
        <time>2012-04-07T08:59:22Z</time>
      </trkpt>
      <trkpt lat="45.63369" lon="4.58182">
        <ele>835.52294921875</ele>
        <time>2012-04-07T08:59:27Z</time>
      </trkpt>
      <trkpt lat="45.63361" lon="4.58171">
        <ele>834.0810546875</ele>
        <time>2012-04-07T08:59:29Z</time>
      </trkpt>
      <trkpt lat="45.63347" lon="4.58156">
        <ele>831.677734375</ele>
        <time>2012-04-07T08:59:32Z</time>
      </trkpt>
      <trkpt lat="45.63335" lon="4.58146">
        <ele>829.75512695312</ele>
        <time>2012-04-07T08:59:35Z</time>
      </trkpt>
      <trkpt lat="45.63317" lon="4.58121">
        <ele>825.42895507812</ele>
        <time>2012-04-07T08:59:40Z</time>
      </trkpt>
      <trkpt lat="45.63299" lon="4.58089">
        <ele>821.10327148438</ele>
        <time>2012-04-07T08:59:44Z</time>
      </trkpt>
      <trkpt lat="45.63275" lon="4.58056">
        <ele>815.81616210938</ele>
        <time>2012-04-07T08:59:48Z</time>
      </trkpt>
      <trkpt lat="45.63258" lon="4.58035">
        <ele>811.970703125</ele>
        <time>2012-04-07T08:59:52Z</time>
      </trkpt>
      <trkpt lat="45.63251" lon="4.58014">
        <ele>809.08666992188</ele>
        <time>2012-04-07T08:59:55Z</time>
      </trkpt>
      <trkpt lat="45.63231" lon="4.57956">
        <ele>801.876953125</ele>
        <time>2012-04-07T09:00:01Z</time>
      </trkpt>
      <trkpt lat="45.63213" lon="4.57902">
        <ele>796.10913085938</ele>
        <time>2012-04-07T09:00:06Z</time>
      </trkpt>
      <trkpt lat="45.63197" lon="4.57855">
        <ele>791.30224609375</ele>
        <time>2012-04-07T09:00:11Z</time>
      </trkpt>
      <trkpt lat="45.63185" lon="4.57803">
        <ele>785.53442382812</ele>
        <time>2012-04-07T09:00:16Z</time>
      </trkpt>
      <trkpt lat="45.63167" lon="4.57734">
        <ele>778.80517578125</ele>
        <time>2012-04-07T09:00:22Z</time>
      </trkpt>
      <trkpt lat="45.63155" lon="4.57675">
        <ele>773.99853515625</ele>
        <time>2012-04-07T09:00:27Z</time>
      </trkpt>
      <trkpt lat="45.63148" lon="4.576">
        <ele>769.6728515625</ele>
        <time>2012-04-07T09:00:33Z</time>
      </trkpt>
      <trkpt lat="45.63146" lon="4.57589">
        <ele>769.19213867188</ele>
        <time>2012-04-07T09:00:34Z</time>
      </trkpt>
      <trkpt lat="45.63133" lon="4.57567">
        <ele>768.23071289062</ele>
        <time>2012-04-07T09:00:38Z</time>
      </trkpt>
      <trkpt lat="45.63112" lon="4.57562">
        <ele>766.78881835938</ele>
        <time>2012-04-07T09:00:42Z</time>
      </trkpt>
      <trkpt lat="45.63095" lon="4.57559">
        <ele>765.34692382812</ele>
        <time>2012-04-07T09:00:46Z</time>
      </trkpt>
      <trkpt lat="45.63092" lon="4.57562">
        <ele>764.8662109375</ele>
        <time>2012-04-07T09:00:47Z</time>
      </trkpt>
      <trkpt lat="45.63066" lon="4.57589">
        <ele>763.42407226562</ele>
        <time>2012-04-07T09:00:53Z</time>
      </trkpt>
      <trkpt lat="45.63038" lon="4.57629">
        <ele>761.98217773438</ele>
        <time>2012-04-07T09:01:00Z</time>
      </trkpt>
      <trkpt lat="45.63011" lon="4.57661">
        <ele>762.46264648438</ele>
        <time>2012-04-07T09:01:07Z</time>
      </trkpt>
      <trkpt lat="45.62988" lon="4.57688">
        <ele>762.943359375</ele>
        <time>2012-04-07T09:01:14Z</time>
      </trkpt>
      <trkpt lat="45.62963" lon="4.57716">
        <ele>763.42407226562</ele>
        <time>2012-04-07T09:01:22Z</time>
      </trkpt>
      <trkpt lat="45.62944" lon="4.57743">
        <ele>763.90454101562</ele>
        <time>2012-04-07T09:01:29Z</time>
      </trkpt>
      <trkpt lat="45.62925" lon="4.57773">
        <ele>761.98217773438</ele>
        <time>2012-04-07T09:01:35Z</time>
      </trkpt>
      <trkpt lat="45.62922" lon="4.5778">
        <ele>761.98217773438</ele>
        <time>2012-04-07T09:01:36Z</time>
      </trkpt>
      <trkpt lat="45.62912" lon="4.57822">
        <ele>760.5400390625</ele>
        <time>2012-04-07T09:01:42Z</time>
      </trkpt>
      <trkpt lat="45.62903" lon="4.579">
        <ele>757.65625</ele>
        <time>2012-04-07T09:01:50Z</time>
      </trkpt>
      <trkpt lat="45.629" lon="4.57973">
        <ele>754.77221679688</ele>
        <time>2012-04-07T09:01:57Z</time>
      </trkpt>
      <trkpt lat="45.62905" lon="4.58073">
        <ele>751.88842773438</ele>
        <time>2012-04-07T09:02:06Z</time>
      </trkpt>
      <trkpt lat="45.62909" lon="4.58135">
        <ele>750.92700195312</ele>
        <time>2012-04-07T09:02:12Z</time>
      </trkpt>
      <trkpt lat="45.62917" lon="4.58192">
        <ele>749.9658203125</ele>
        <time>2012-04-07T09:02:18Z</time>
      </trkpt>
      <trkpt lat="45.62914" lon="4.58229">
        <ele>749.48510742188</ele>
        <time>2012-04-07T09:02:22Z</time>
      </trkpt>
      <trkpt lat="45.62912" lon="4.58237">
        <ele>749.48510742188</ele>
        <time>2012-04-07T09:02:23Z</time>
      </trkpt>
      <trkpt lat="45.62904" lon="4.58259">
        <ele>749.00439453125</ele>
        <time>2012-04-07T09:02:26Z</time>
      </trkpt>
      <trkpt lat="45.62885" lon="4.5828">
        <ele>746.60107421875</ele>
        <time>2012-04-07T09:02:30Z</time>
      </trkpt>
      <trkpt lat="45.62868" lon="4.58286">
        <ele>745.15893554688</ele>
        <time>2012-04-07T09:02:33Z</time>
      </trkpt>
      <trkpt lat="45.62853" lon="4.58281">
        <ele>745.6396484375</ele>
        <time>2012-04-07T09:02:37Z</time>
      </trkpt>
      <trkpt lat="45.62842" lon="4.58274">
        <ele>746.60107421875</ele>
        <time>2012-04-07T09:02:40Z</time>
      </trkpt>
      <trkpt lat="45.62819" lon="4.58263">
        <ele>749.48510742188</ele>
        <time>2012-04-07T09:02:46Z</time>
      </trkpt>
      <trkpt lat="45.6281" lon="4.58262">
        <ele>751.88842773438</ele>
        <time>2012-04-07T09:02:50Z</time>
      </trkpt>
      <trkpt lat="45.62794" lon="4.58262">
        <ele>754.29174804688</ele>
        <time>2012-04-07T09:02:57Z</time>
      </trkpt>
      <trkpt lat="45.62778" lon="4.58258">
        <ele>756.21411132812</ele>
        <time>2012-04-07T09:03:05Z</time>
      </trkpt>
      <trkpt lat="45.6276" lon="4.58253">
        <ele>757.65625</ele>
        <time>2012-04-07T09:03:13Z</time>
      </trkpt>
      <trkpt lat="45.6275" lon="4.5824">
        <ele>758.13696289062</ele>
        <time>2012-04-07T09:03:19Z</time>
      </trkpt>
      <trkpt lat="45.62746" lon="4.58224">
        <ele>758.13696289062</ele>
        <time>2012-04-07T09:03:23Z</time>
      </trkpt>
      <trkpt lat="45.62735" lon="4.58187">
        <ele>758.13696289062</ele>
        <time>2012-04-07T09:03:31Z</time>
      </trkpt>
      <trkpt lat="45.6272" lon="4.58142">
        <ele>756.69482421875</ele>
        <time>2012-04-07T09:03:39Z</time>
      </trkpt>
      <trkpt lat="45.62715" lon="4.58122">
        <ele>756.21411132812</ele>
        <time>2012-04-07T09:03:42Z</time>
      </trkpt>
      <trkpt lat="45.62696" lon="4.58061">
        <ele>753.81103515625</ele>
        <time>2012-04-07T09:03:51Z</time>
      </trkpt>
      <trkpt lat="45.62693" lon="4.58054">
        <ele>753.81103515625</ele>
        <time>2012-04-07T09:03:52Z</time>
      </trkpt>
      <trkpt lat="45.62687" lon="4.58026">
        <ele>752.849609375</ele>
        <time>2012-04-07T09:03:56Z</time>
      </trkpt>
      <trkpt lat="45.62677" lon="4.57996">
        <ele>751.88842773438</ele>
        <time>2012-04-07T09:04:01Z</time>
      </trkpt>
      <trkpt lat="45.62661" lon="4.57959">
        <ele>751.88842773438</ele>
        <time>2012-04-07T09:04:07Z</time>
      </trkpt>
      <trkpt lat="45.62648" lon="4.57934">
        <ele>751.88842773438</ele>
        <time>2012-04-07T09:04:11Z</time>
      </trkpt>
      <trkpt lat="45.62638" lon="4.579">
        <ele>749.48510742188</ele>
        <time>2012-04-07T09:04:16Z</time>
      </trkpt>
      <trkpt lat="45.62636" lon="4.57893">
        <ele>749.00439453125</ele>
        <time>2012-04-07T09:04:17Z</time>
      </trkpt>
      <trkpt lat="45.62629" lon="4.57871">
        <ele>749.00439453125</ele>
        <time>2012-04-07T09:04:20Z</time>
      </trkpt>
      <trkpt lat="45.62615" lon="4.57846">
        <ele>749.00439453125</ele>
        <time>2012-04-07T09:04:25Z</time>
      </trkpt>
      <trkpt lat="45.62604" lon="4.57818">
        <ele>749.9658203125</ele>
        <time>2012-04-07T09:04:30Z</time>
      </trkpt>
      <trkpt lat="45.62604" lon="4.57812">
        <ele>749.9658203125</ele>
        <time>2012-04-07T09:04:31Z</time>
      </trkpt>
      <trkpt lat="45.62604" lon="4.57801">
        <ele>749.9658203125</ele>
        <time>2012-04-07T09:04:33Z</time>
      </trkpt>
      <trkpt lat="45.62603" lon="4.57789">
        <ele>750.44653320312</ele>
        <time>2012-04-07T09:04:35Z</time>
      </trkpt>
      <trkpt lat="45.626" lon="4.57774">
        <ele>751.88842773438</ele>
        <time>2012-04-07T09:04:38Z</time>
      </trkpt>
      <trkpt lat="45.62584" lon="4.57744">
        <ele>752.849609375</ele>
        <time>2012-04-07T09:04:45Z</time>
      </trkpt>
      <trkpt lat="45.62564" lon="4.57716">
        <ele>753.33032226562</ele>
        <time>2012-04-07T09:04:53Z</time>
      </trkpt>
      <trkpt lat="45.62552" lon="4.57694">
        <ele>756.21411132812</ele>
        <time>2012-04-07T09:05:00Z</time>
      </trkpt>
      <trkpt lat="45.62543" lon="4.57668">
        <ele>759.09814453125</ele>
        <time>2012-04-07T09:05:08Z</time>
      </trkpt>
      <trkpt lat="45.62545" lon="4.57645">
        <ele>759.57885742188</ele>
        <time>2012-04-07T09:05:15Z</time>
      </trkpt>
      <trkpt lat="45.62552" lon="4.57626">
        <ele>759.57885742188</ele>
        <time>2012-04-07T09:05:21Z</time>
      </trkpt>
      <trkpt lat="45.62561" lon="4.5761">
        <ele>759.57885742188</ele>
        <time>2012-04-07T09:05:26Z</time>
      </trkpt>
      <trkpt lat="45.62573" lon="4.57586">
        <ele>760.5400390625</ele>
        <time>2012-04-07T09:05:33Z</time>
      </trkpt>
      <trkpt lat="45.62568" lon="4.57578">
        <ele>761.50146484375</ele>
        <time>2012-04-07T09:05:37Z</time>
      </trkpt>
      <trkpt lat="45.62553" lon="4.57586">
        <ele>761.02075195312</ele>
        <time>2012-04-07T09:05:42Z</time>
      </trkpt>
      <trkpt lat="45.62526" lon="4.57589">
        <ele>761.98217773438</ele>
        <time>2012-04-07T09:05:49Z</time>
      </trkpt>
      <trkpt lat="45.62494" lon="4.57602">
        <ele>764.38549804688</ele>
        <time>2012-04-07T09:05:58Z</time>
      </trkpt>
      <trkpt lat="45.62473" lon="4.57605">
        <ele>765.82763671875</ele>
        <time>2012-04-07T09:06:04Z</time>
      </trkpt>
      <trkpt lat="45.62452" lon="4.57593">
        <ele>767.26953125</ele>
        <time>2012-04-07T09:06:11Z</time>
      </trkpt>
      <trkpt lat="45.62423" lon="4.57579">
        <ele>770.1533203125</ele>
        <time>2012-04-07T09:06:21Z</time>
      </trkpt>
      <trkpt lat="45.62402" lon="4.5757">
        <ele>771.59521484375</ele>
        <time>2012-04-07T09:06:28Z</time>
      </trkpt>
      <trkpt lat="45.62376" lon="4.57554">
        <ele>774.47924804688</ele>
        <time>2012-04-07T09:06:37Z</time>
      </trkpt>
      <trkpt lat="45.62361" lon="4.57541">
        <ele>775.92114257812</ele>
        <time>2012-04-07T09:06:43Z</time>
      </trkpt>
      <trkpt lat="45.62336" lon="4.57527">
        <ele>779.28564453125</ele>
        <time>2012-04-07T09:06:53Z</time>
      </trkpt>
      <trkpt lat="45.62323" lon="4.57527">
        <ele>781.20874023438</ele>
        <time>2012-04-07T09:06:59Z</time>
      </trkpt>
      <trkpt lat="45.62305" lon="4.57512">
        <ele>783.13110351562</ele>
        <time>2012-04-07T09:07:07Z</time>
      </trkpt>
      <trkpt lat="45.62292" lon="4.57497">
        <ele>785.53442382812</ele>
        <time>2012-04-07T09:07:14Z</time>
      </trkpt>
      <trkpt lat="45.62279" lon="4.57483">
        <ele>786.49584960938</ele>
        <time>2012-04-07T09:07:20Z</time>
      </trkpt>
      <trkpt lat="45.62253" lon="4.57462">
        <ele>786.97631835938</ele>
        <time>2012-04-07T09:07:29Z</time>
      </trkpt>
      <trkpt lat="45.62219" lon="4.57432">
        <ele>787.93774414062</ele>
        <time>2012-04-07T09:07:39Z</time>
      </trkpt>
      <trkpt lat="45.62204" lon="4.57417">
        <ele>787.45703125</ele>
        <time>2012-04-07T09:07:44Z</time>
      </trkpt>
      <trkpt lat="45.62182" lon="4.57389">
        <ele>786.97631835938</ele>
        <time>2012-04-07T09:07:50Z</time>
      </trkpt>
      <trkpt lat="45.62174" lon="4.57377">
        <ele>786.49584960938</ele>
        <time>2012-04-07T09:07:52Z</time>
      </trkpt>
      <trkpt lat="45.62137" lon="4.5734">
        <ele>786.01513671875</ele>
        <time>2012-04-07T09:08:00Z</time>
      </trkpt>
      <trkpt lat="45.62103" lon="4.57314">
        <ele>784.5732421875</ele>
        <time>2012-04-07T09:08:07Z</time>
      </trkpt>
      <trkpt lat="45.62078" lon="4.57286">
        <ele>781.68920898438</ele>
        <time>2012-04-07T09:08:12Z</time>
      </trkpt>
      <trkpt lat="45.62066" lon="4.57269">
        <ele>779.76635742188</ele>
        <time>2012-04-07T09:08:14Z</time>
      </trkpt>
      <trkpt lat="45.62025" lon="4.57231">
        <ele>774.47924804688</ele>
        <time>2012-04-07T09:08:19Z</time>
      </trkpt>
      <trkpt lat="45.61998" lon="4.5721">
        <ele>771.59521484375</ele>
        <time>2012-04-07T09:08:22Z</time>
      </trkpt>
      <trkpt lat="45.61951" lon="4.57197">
        <ele>769.19213867188</ele>
        <time>2012-04-07T09:08:27Z</time>
      </trkpt>
      <trkpt lat="45.61922" lon="4.57196">
        <ele>771.11474609375</ele>
        <time>2012-04-07T09:08:31Z</time>
      </trkpt>
      <trkpt lat="45.61884" lon="4.57191">
        <ele>773.03735351562</ele>
        <time>2012-04-07T09:08:38Z</time>
      </trkpt>
      <trkpt lat="45.61857" lon="4.57189">
        <ele>774.9599609375</ele>
        <time>2012-04-07T09:08:44Z</time>
      </trkpt>
      <trkpt lat="45.61827" lon="4.57191">
        <ele>777.36328125</ele>
        <time>2012-04-07T09:08:51Z</time>
      </trkpt>
      <trkpt lat="45.61798" lon="4.57197">
        <ele>780.24731445312</ele>
        <time>2012-04-07T09:09:00Z</time>
      </trkpt>
      <trkpt lat="45.6177" lon="4.57205">
        <ele>782.169921875</ele>
        <time>2012-04-07T09:09:10Z</time>
      </trkpt>
      <trkpt lat="45.61743" lon="4.57209">
        <ele>784.5732421875</ele>
        <time>2012-04-07T09:09:20Z</time>
      </trkpt>
      <trkpt lat="45.6172" lon="4.57209">
        <ele>786.49584960938</ele>
        <time>2012-04-07T09:09:28Z</time>
      </trkpt>
      <trkpt lat="45.61691" lon="4.5721">
        <ele>788.89916992188</ele>
        <time>2012-04-07T09:09:37Z</time>
      </trkpt>
      <trkpt lat="45.61668" lon="4.57212">
        <ele>790.82153320312</ele>
        <time>2012-04-07T09:09:45Z</time>
      </trkpt>
      <trkpt lat="45.61642" lon="4.57228">
        <ele>791.78295898438</ele>
        <time>2012-04-07T09:09:54Z</time>
      </trkpt>
      <trkpt lat="45.61623" lon="4.57242">
        <ele>793.22485351562</ele>
        <time>2012-04-07T09:10:01Z</time>
      </trkpt>
      <trkpt lat="45.61604" lon="4.57262">
        <ele>791.30224609375</ele>
        <time>2012-04-07T09:10:06Z</time>
      </trkpt>
      <trkpt lat="45.6158" lon="4.57285">
        <ele>788.89916992188</ele>
        <time>2012-04-07T09:10:11Z</time>
      </trkpt>
      <trkpt lat="45.61557" lon="4.57297">
        <ele>787.45703125</ele>
        <time>2012-04-07T09:10:16Z</time>
      </trkpt>
      <trkpt lat="45.61543" lon="4.57305">
        <ele>786.49584960938</ele>
        <time>2012-04-07T09:10:20Z</time>
      </trkpt>
      <trkpt lat="45.61539" lon="4.57309">
        <ele>786.49584960938</ele>
        <time>2012-04-07T09:10:25Z</time>
      </trkpt>
      <trkpt lat="45.61539" lon="4.57309">
        <ele>786.49584960938</ele>
        <time>2012-04-07T09:10:30Z</time>
      </trkpt>
      <trkpt lat="45.61526" lon="4.57314">
        <ele>786.01513671875</ele>
        <time>2012-04-07T09:10:35Z</time>
      </trkpt>
      <trkpt lat="45.61505" lon="4.57331">
        <ele>785.53442382812</ele>
        <time>2012-04-07T09:10:40Z</time>
      </trkpt>
      <trkpt lat="45.61494" lon="4.57346">
        <ele>785.05395507812</ele>
        <time>2012-04-07T09:10:43Z</time>
      </trkpt>
      <trkpt lat="45.6147" lon="4.57373">
        <ele>785.05395507812</ele>
        <time>2012-04-07T09:10:49Z</time>
      </trkpt>
      <trkpt lat="45.61437" lon="4.57387">
        <ele>782.65063476562</ele>
        <time>2012-04-07T09:10:54Z</time>
      </trkpt>
      <trkpt lat="45.61421" lon="4.57391">
        <ele>780.72802734375</ele>
        <time>2012-04-07T09:10:56Z</time>
      </trkpt>
      <trkpt lat="45.61398" lon="4.57401">
        <ele>778.80517578125</ele>
        <time>2012-04-07T09:10:59Z</time>
      </trkpt>
      <trkpt lat="45.61377" lon="4.57396">
        <ele>776.40185546875</ele>
        <time>2012-04-07T09:11:03Z</time>
      </trkpt>
      <trkpt lat="45.61372" lon="4.57391">
        <ele>775.92114257812</ele>
        <time>2012-04-07T09:11:04Z</time>
      </trkpt>
      <trkpt lat="45.61344" lon="4.57353">
        <ele>771.11474609375</ele>
        <time>2012-04-07T09:11:09Z</time>
      </trkpt>
      <trkpt lat="45.61319" lon="4.57311">
        <ele>766.78881835938</ele>
        <time>2012-04-07T09:11:13Z</time>
      </trkpt>
      <trkpt lat="45.61287" lon="4.57278">
        <ele>763.42407226562</ele>
        <time>2012-04-07T09:11:17Z</time>
      </trkpt>
      <trkpt lat="45.61278" lon="4.57273">
        <ele>762.943359375</ele>
        <time>2012-04-07T09:11:18Z</time>
      </trkpt>
      <trkpt lat="45.61195" lon="4.57228">
        <ele>756.21411132812</ele>
        <time>2012-04-07T09:11:27Z</time>
      </trkpt>
      <trkpt lat="45.61187" lon="4.57223">
        <ele>755.73364257812</ele>
        <time>2012-04-07T09:11:28Z</time>
      </trkpt>
      <trkpt lat="45.61154" lon="4.57185">
        <ele>754.29174804688</ele>
        <time>2012-04-07T09:11:33Z</time>
      </trkpt>
      <trkpt lat="45.61109" lon="4.57128">
        <ele>752.36889648438</ele>
        <time>2012-04-07T09:11:41Z</time>
      </trkpt>
      <trkpt lat="45.61071" lon="4.57092">
        <ele>751.40771484375</ele>
        <time>2012-04-07T09:11:48Z</time>
      </trkpt>
      <trkpt lat="45.61043" lon="4.5707">
        <ele>750.92700195312</ele>
        <time>2012-04-07T09:11:54Z</time>
      </trkpt>
      <trkpt lat="45.61034" lon="4.57061">
        <ele>750.92700195312</ele>
        <time>2012-04-07T09:11:59Z</time>
      </trkpt>
      <trkpt lat="45.61025" lon="4.57046">
        <ele>750.92700195312</ele>
        <time>2012-04-07T09:12:04Z</time>
      </trkpt>
      <trkpt lat="45.61023" lon="4.57038">
        <ele>749.9658203125</ele>
        <time>2012-04-07T09:12:09Z</time>
      </trkpt>
      <trkpt lat="45.61024" lon="4.57039">
        <ele>749.48510742188</ele>
        <time>2012-04-07T09:12:17Z</time>
      </trkpt>
      <trkpt lat="45.60965" lon="4.56912">
        <ele>743.236328125</ele>
        <time>2012-04-07T09:14:25Z</time>
      </trkpt>
      <trkpt lat="45.60963" lon="4.56911">
        <ele>742.755859375</ele>
        <time>2012-04-07T09:14:27Z</time>
      </trkpt>
      <trkpt lat="45.60947" lon="4.56897">
        <ele>739.87182617188</ele>
        <time>2012-04-07T09:14:32Z</time>
      </trkpt>
      <trkpt lat="45.60917" lon="4.5687">
        <ele>735.0654296875</ele>
        <time>2012-04-07T09:14:40Z</time>
      </trkpt>
      <trkpt lat="45.60901" lon="4.56857">
        <ele>731.70043945312</ele>
        <time>2012-04-07T09:14:45Z</time>
      </trkpt>
      <trkpt lat="45.60887" lon="4.56844">
        <ele>730.25854492188</ele>
        <time>2012-04-07T09:14:50Z</time>
      </trkpt>
      <trkpt lat="45.6087" lon="4.56831">
        <ele>727.85522460938</ele>
        <time>2012-04-07T09:14:55Z</time>
      </trkpt>
      <trkpt lat="45.60855" lon="4.56816">
        <ele>725.45190429688</ele>
        <time>2012-04-07T09:14:59Z</time>
      </trkpt>
      <trkpt lat="45.60828" lon="4.56793">
        <ele>723.048828125</ele>
        <time>2012-04-07T09:15:04Z</time>
      </trkpt>
      <trkpt lat="45.60804" lon="4.56779">
        <ele>722.08740234375</ele>
        <time>2012-04-07T09:15:09Z</time>
      </trkpt>
      <trkpt lat="45.60798" lon="4.56773">
        <ele>722.56811523438</ele>
        <time>2012-04-07T09:15:11Z</time>
      </trkpt>
      <trkpt lat="45.60782" lon="4.56764">
        <ele>722.56811523438</ele>
        <time>2012-04-07T09:15:16Z</time>
      </trkpt>
      <trkpt lat="45.60768" lon="4.56758">
        <ele>724.01000976562</ele>
        <time>2012-04-07T09:15:22Z</time>
      </trkpt>
      <trkpt lat="45.6076" lon="4.56755">
        <ele>725.45190429688</ele>
        <time>2012-04-07T09:15:27Z</time>
      </trkpt>
      <trkpt lat="45.60748" lon="4.56748">
        <ele>727.37475585938</ele>
        <time>2012-04-07T09:15:36Z</time>
      </trkpt>
      <trkpt lat="45.60735" lon="4.56742">
        <ele>730.25854492188</ele>
        <time>2012-04-07T09:15:45Z</time>
      </trkpt>
      <trkpt lat="45.60726" lon="4.56736">
        <ele>732.662109375</ele>
        <time>2012-04-07T09:15:53Z</time>
      </trkpt>
      <trkpt lat="45.60717" lon="4.5673">
        <ele>735.5458984375</ele>
        <time>2012-04-07T09:16:01Z</time>
      </trkpt>
      <trkpt lat="45.60709" lon="4.56724">
        <ele>737.94921875</ele>
        <time>2012-04-07T09:16:08Z</time>
      </trkpt>
      <trkpt lat="45.60694" lon="4.56713">
        <ele>739.39111328125</ele>
        <time>2012-04-07T09:16:19Z</time>
      </trkpt>
      <trkpt lat="45.60682" lon="4.56706">
        <ele>740.8330078125</ele>
        <time>2012-04-07T09:16:27Z</time>
      </trkpt>
      <trkpt lat="45.60667" lon="4.56696">
        <ele>741.31372070312</ele>
        <time>2012-04-07T09:16:35Z</time>
      </trkpt>
      <trkpt lat="45.6065" lon="4.5668">
        <ele>741.31372070312</ele>
        <time>2012-04-07T09:16:43Z</time>
      </trkpt>
      <trkpt lat="45.60634" lon="4.56665">
        <ele>740.8330078125</ele>
        <time>2012-04-07T09:16:51Z</time>
      </trkpt>
      <trkpt lat="45.60614" lon="4.56644">
        <ele>739.39111328125</ele>
        <time>2012-04-07T09:16:59Z</time>
      </trkpt>
      <trkpt lat="45.60589" lon="4.56623">
        <ele>738.42993164062</ele>
        <time>2012-04-07T09:17:07Z</time>
      </trkpt>
      <trkpt lat="45.60573" lon="4.56614">
        <ele>736.98779296875</ele>
        <time>2012-04-07T09:17:12Z</time>
      </trkpt>
      <trkpt lat="45.60559" lon="4.56601">
        <ele>735.5458984375</ele>
        <time>2012-04-07T09:17:15Z</time>
      </trkpt>
      <trkpt lat="45.60542" lon="4.56584">
        <ele>733.142578125</ele>
        <time>2012-04-07T09:17:18Z</time>
      </trkpt>
      <trkpt lat="45.60506" lon="4.56527">
        <ele>727.85522460938</ele>
        <time>2012-04-07T09:17:24Z</time>
      </trkpt>
      <trkpt lat="45.60472" lon="4.56464">
        <ele>721.60668945312</ele>
        <time>2012-04-07T09:17:30Z</time>
      </trkpt>
      <trkpt lat="45.60462" lon="4.56447">
        <ele>720.16479492188</ele>
        <time>2012-04-07T09:17:33Z</time>
      </trkpt>
      <trkpt lat="45.60452" lon="4.56425">
        <ele>717.76147460938</ele>
        <time>2012-04-07T09:17:37Z</time>
      </trkpt>
      <trkpt lat="45.60427" lon="4.56378">
        <ele>711.99365234375</ele>
        <time>2012-04-07T09:17:43Z</time>
      </trkpt>
      <trkpt lat="45.60399" lon="4.56334">
        <ele>704.78369140625</ele>
        <time>2012-04-07T09:17:49Z</time>
      </trkpt>
      <trkpt lat="45.60381" lon="4.56314">
        <ele>701.89990234375</ele>
        <time>2012-04-07T09:17:52Z</time>
      </trkpt>
      <trkpt lat="45.60353" lon="4.56292">
        <ele>697.57373046875</ele>
        <time>2012-04-07T09:17:56Z</time>
      </trkpt>
      <trkpt lat="45.60328" lon="4.5629">
        <ele>694.20922851562</ele>
        <time>2012-04-07T09:18:00Z</time>
      </trkpt>
      <trkpt lat="45.60318" lon="4.56297">
        <ele>692.76733398438</ele>
        <time>2012-04-07T09:18:02Z</time>
      </trkpt>
      <trkpt lat="45.60268" lon="4.56332">
        <ele>688.44140625</ele>
        <time>2012-04-07T09:18:12Z</time>
      </trkpt>
      <trkpt lat="45.60253" lon="4.56325">
        <ele>686.99926757812</ele>
        <time>2012-04-07T09:18:16Z</time>
      </trkpt>
      <trkpt lat="45.60251" lon="4.56319">
        <ele>686.51879882812</ele>
        <time>2012-04-07T09:18:17Z</time>
      </trkpt>
      <trkpt lat="45.60232" lon="4.56261">
        <ele>679.78930664062</ele>
        <time>2012-04-07T09:18:25Z</time>
      </trkpt>
      <trkpt lat="45.60228" lon="4.56244">
        <ele>677.86669921875</ele>
        <time>2012-04-07T09:18:28Z</time>
      </trkpt>
      <trkpt lat="45.60223" lon="4.56236">
        <ele>676.4248046875</ele>
        <time>2012-04-07T09:18:33Z</time>
      </trkpt>
      <trkpt lat="45.60218" lon="4.5624">
        <ele>675.94409179688</ele>
        <time>2012-04-07T09:18:36Z</time>
      </trkpt>
      <trkpt lat="45.60202" lon="4.56263">
        <ele>676.4248046875</ele>
        <time>2012-04-07T09:18:43Z</time>
      </trkpt>
      <trkpt lat="45.602" lon="4.56267">
        <ele>676.4248046875</ele>
        <time>2012-04-07T09:18:44Z</time>
      </trkpt>
      <trkpt lat="45.60194" lon="4.56265">
        <ele>676.4248046875</ele>
        <time>2012-04-07T09:18:48Z</time>
      </trkpt>
      <trkpt lat="45.60197" lon="4.56257">
        <ele>675.94409179688</ele>
        <time>2012-04-07T09:18:50Z</time>
      </trkpt>
      <trkpt lat="45.60207" lon="4.56226">
        <ele>674.021484375</ele>
        <time>2012-04-07T09:18:55Z</time>
      </trkpt>
      <trkpt lat="45.60209" lon="4.56178">
        <ele>672.57958984375</ele>
        <time>2012-04-07T09:19:01Z</time>
      </trkpt>
      <trkpt lat="45.60204" lon="4.56123">
        <ele>672.09887695312</ele>
        <time>2012-04-07T09:19:08Z</time>
      </trkpt>
      <trkpt lat="45.602" lon="4.56087">
        <ele>674.021484375</ele>
        <time>2012-04-07T09:19:14Z</time>
      </trkpt>
      <trkpt lat="45.60195" lon="4.56065">
        <ele>675.94409179688</ele>
        <time>2012-04-07T09:19:20Z</time>
      </trkpt>
      <trkpt lat="45.60197" lon="4.56048">
        <ele>676.90551757812</ele>
        <time>2012-04-07T09:19:25Z</time>
      </trkpt>
      <trkpt lat="45.60202" lon="4.56023">
        <ele>678.828125</ele>
        <time>2012-04-07T09:19:33Z</time>
      </trkpt>
      <trkpt lat="45.60208" lon="4.56003">
        <ele>681.2314453125</ele>
        <time>2012-04-07T09:19:41Z</time>
      </trkpt>
      <trkpt lat="45.60212" lon="4.55983">
        <ele>683.63452148438</ele>
        <time>2012-04-07T09:19:49Z</time>
      </trkpt>
      <trkpt lat="45.60213" lon="4.55965">
        <ele>686.51879882812</ele>
        <time>2012-04-07T09:19:57Z</time>
      </trkpt>
      <trkpt lat="45.60214" lon="4.55953">
        <ele>687.96069335938</ele>
        <time>2012-04-07T09:20:02Z</time>
      </trkpt>
      <trkpt lat="45.60215" lon="4.55939">
        <ele>689.88330078125</ele>
        <time>2012-04-07T09:20:08Z</time>
      </trkpt>
      <trkpt lat="45.60217" lon="4.55922">
        <ele>691.80590820312</ele>
        <time>2012-04-07T09:20:16Z</time>
      </trkpt>
      <trkpt lat="45.60217" lon="4.55905">
        <ele>694.20922851562</ele>
        <time>2012-04-07T09:20:24Z</time>
      </trkpt>
      <trkpt lat="45.60213" lon="4.55893">
        <ele>696.1318359375</ele>
        <time>2012-04-07T09:20:30Z</time>
      </trkpt>
      <trkpt lat="45.60205" lon="4.55883">
        <ele>698.53491210938</ele>
        <time>2012-04-07T09:20:38Z</time>
      </trkpt>
      <trkpt lat="45.60197" lon="4.55873">
        <ele>700.9384765625</ele>
        <time>2012-04-07T09:20:45Z</time>
      </trkpt>
      <trkpt lat="45.60195" lon="4.5586">
        <ele>702.38037109375</ele>
        <time>2012-04-07T09:20:51Z</time>
      </trkpt>
      <trkpt lat="45.60191" lon="4.55837">
        <ele>702.86108398438</ele>
        <time>2012-04-07T09:21:00Z</time>
      </trkpt>
      <trkpt lat="45.60189" lon="4.55822">
        <ele>704.78369140625</ele>
        <time>2012-04-07T09:21:06Z</time>
      </trkpt>
      <trkpt lat="45.60188" lon="4.55807">
        <ele>705.26440429688</ele>
        <time>2012-04-07T09:21:13Z</time>
      </trkpt>
      <trkpt lat="45.60188" lon="4.55803">
        <ele>705.26440429688</ele>
        <time>2012-04-07T09:21:15Z</time>
      </trkpt>
      <trkpt lat="45.60188" lon="4.55786">
        <ele>705.26440429688</ele>
        <time>2012-04-07T09:21:23Z</time>
      </trkpt>
      <trkpt lat="45.60184" lon="4.55761">
        <ele>708.1484375</ele>
        <time>2012-04-07T09:21:32Z</time>
      </trkpt>
      <trkpt lat="45.60183" lon="4.55741">
        <ele>710.55151367188</ele>
        <time>2012-04-07T09:21:39Z</time>
      </trkpt>
      <trkpt lat="45.60181" lon="4.55724">
        <ele>713.916015625</ele>
        <time>2012-04-07T09:21:46Z</time>
      </trkpt>
      <trkpt lat="45.60179" lon="4.55701">
        <ele>714.39672851562</ele>
        <time>2012-04-07T09:21:54Z</time>
      </trkpt>
      <trkpt lat="45.60178" lon="4.5567">
        <ele>715.35815429688</ele>
        <time>2012-04-07T09:22:05Z</time>
      </trkpt>
      <trkpt lat="45.60176" lon="4.55646">
        <ele>716.31958007812</ele>
        <time>2012-04-07T09:22:14Z</time>
      </trkpt>
      <trkpt lat="45.60173" lon="4.55622">
        <ele>717.76147460938</ele>
        <time>2012-04-07T09:22:23Z</time>
      </trkpt>
      <trkpt lat="45.6017" lon="4.55604">
        <ele>718.72290039062</ele>
        <time>2012-04-07T09:22:29Z</time>
      </trkpt>
      <trkpt lat="45.60159" lon="4.55597">
        <ele>719.20361328125</ele>
        <time>2012-04-07T09:22:34Z</time>
      </trkpt>
      <trkpt lat="45.6014" lon="4.55594">
        <ele>720.16479492188</ele>
        <time>2012-04-07T09:22:41Z</time>
      </trkpt>
      <trkpt lat="45.60117" lon="4.55599">
        <ele>721.60668945312</ele>
        <time>2012-04-07T09:22:50Z</time>
      </trkpt>
      <trkpt lat="45.60101" lon="4.55606">
        <ele>722.08740234375</ele>
        <time>2012-04-07T09:22:57Z</time>
      </trkpt>
      <trkpt lat="45.60093" lon="4.55611">
        <ele>722.08740234375</ele>
        <time>2012-04-07T09:23:01Z</time>
      </trkpt>
      <trkpt lat="45.60094" lon="4.55613">
        <ele>725.45190429688</ele>
        <time>2012-04-07T09:24:12Z</time>
      </trkpt>
      <trkpt lat="45.60095" lon="4.55612">
        <ele>725.45190429688</ele>
        <time>2012-04-07T09:24:13Z</time>
      </trkpt>
      <trkpt lat="45.60108" lon="4.55607">
        <ele>724.97143554688</ele>
        <time>2012-04-07T09:24:17Z</time>
      </trkpt>
      <trkpt lat="45.60133" lon="4.55597">
        <ele>723.048828125</ele>
        <time>2012-04-07T09:24:23Z</time>
      </trkpt>
      <trkpt lat="45.60142" lon="4.55595">
        <ele>723.048828125</ele>
        <time>2012-04-07T09:24:25Z</time>
      </trkpt>
      <trkpt lat="45.60145" lon="4.55582">
        <ele>722.08740234375</ele>
        <time>2012-04-07T09:24:29Z</time>
      </trkpt>
      <trkpt lat="45.60139" lon="4.55546">
        <ele>723.52954101562</ele>
        <time>2012-04-07T09:24:37Z</time>
      </trkpt>
      <trkpt lat="45.60131" lon="4.55509">
        <ele>723.048828125</ele>
        <time>2012-04-07T09:24:45Z</time>
      </trkpt>
      <trkpt lat="45.60123" lon="4.55471">
        <ele>722.08740234375</ele>
        <time>2012-04-07T09:24:52Z</time>
      </trkpt>
      <trkpt lat="45.60111" lon="4.55424">
        <ele>721.60668945312</ele>
        <time>2012-04-07T09:25:00Z</time>
      </trkpt>
      <trkpt lat="45.60098" lon="4.55386">
        <ele>720.16479492188</ele>
        <time>2012-04-07T09:25:07Z</time>
      </trkpt>
      <trkpt lat="45.60085" lon="4.55351">
        <ele>720.16479492188</ele>
        <time>2012-04-07T09:25:14Z</time>
      </trkpt>
      <trkpt lat="45.60074" lon="4.5532">
        <ele>721.60668945312</ele>
        <time>2012-04-07T09:25:21Z</time>
      </trkpt>
      <trkpt lat="45.60064" lon="4.55291">
        <ele>723.048828125</ele>
        <time>2012-04-07T09:25:28Z</time>
      </trkpt>
      <trkpt lat="45.60051" lon="4.55261">
        <ele>723.048828125</ele>
        <time>2012-04-07T09:25:35Z</time>
      </trkpt>
      <trkpt lat="45.60039" lon="4.55233">
        <ele>723.048828125</ele>
        <time>2012-04-07T09:25:42Z</time>
      </trkpt>
      <trkpt lat="45.6003" lon="4.55216">
        <ele>724.01000976562</ele>
        <time>2012-04-07T09:25:47Z</time>
      </trkpt>
      <trkpt lat="45.60019" lon="4.55198">
        <ele>724.01000976562</ele>
        <time>2012-04-07T09:25:53Z</time>
      </trkpt>
      <trkpt lat="45.60012" lon="4.55186">
        <ele>726.41333007812</ele>
        <time>2012-04-07T09:25:58Z</time>
      </trkpt>
      <trkpt lat="45.60008" lon="4.55169">
        <ele>731.70043945312</ele>
        <time>2012-04-07T09:26:03Z</time>
      </trkpt>
      <trkpt lat="45.60003" lon="4.5515">
        <ele>734.58471679688</ele>
        <time>2012-04-07T09:26:08Z</time>
      </trkpt>
      <trkpt lat="45.59997" lon="4.55133">
        <ele>736.98779296875</ele>
        <time>2012-04-07T09:26:13Z</time>
      </trkpt>
      <trkpt lat="45.59992" lon="4.55116">
        <ele>740.3525390625</ele>
        <time>2012-04-07T09:26:18Z</time>
      </trkpt>
      <trkpt lat="45.59984" lon="4.55099">
        <ele>742.27514648438</ele>
        <time>2012-04-07T09:26:24Z</time>
      </trkpt>
      <trkpt lat="45.59981" lon="4.55084">
        <ele>745.15893554688</ele>
        <time>2012-04-07T09:26:29Z</time>
      </trkpt>
      <trkpt lat="45.59974" lon="4.55068">
        <ele>746.60107421875</ele>
        <time>2012-04-07T09:26:34Z</time>
      </trkpt>
      <trkpt lat="45.59963" lon="4.55053">
        <ele>746.12036132812</ele>
        <time>2012-04-07T09:26:40Z</time>
      </trkpt>
      <trkpt lat="45.59952" lon="4.55042">
        <ele>745.6396484375</ele>
        <time>2012-04-07T09:26:46Z</time>
      </trkpt>
      <trkpt lat="45.59941" lon="4.55028">
        <ele>746.60107421875</ele>
        <time>2012-04-07T09:26:52Z</time>
      </trkpt>
      <trkpt lat="45.59933" lon="4.55015">
        <ele>747.56225585938</ele>
        <time>2012-04-07T09:26:58Z</time>
      </trkpt>
      <trkpt lat="45.59924" lon="4.55003">
        <ele>748.04321289062</ele>
        <time>2012-04-07T09:27:04Z</time>
      </trkpt>
      <trkpt lat="45.59912" lon="4.54994">
        <ele>747.56225585938</ele>
        <time>2012-04-07T09:27:10Z</time>
      </trkpt>
      <trkpt lat="45.59903" lon="4.54987">
        <ele>749.48510742188</ele>
        <time>2012-04-07T09:27:16Z</time>
      </trkpt>
      <trkpt lat="45.599" lon="4.54985">
        <ele>749.00439453125</ele>
        <time>2012-04-07T09:27:18Z</time>
      </trkpt>
      <trkpt lat="45.59892" lon="4.5499">
        <ele>747.56225585938</ele>
        <time>2012-04-07T09:27:23Z</time>
      </trkpt>
      <trkpt lat="45.59887" lon="4.55009">
        <ele>746.12036132812</ele>
        <time>2012-04-07T09:27:32Z</time>
      </trkpt>
      <trkpt lat="45.59886" lon="4.5503">
        <ele>745.6396484375</ele>
        <time>2012-04-07T09:27:42Z</time>
      </trkpt>
      <trkpt lat="45.59884" lon="4.55045">
        <ele>745.15893554688</ele>
        <time>2012-04-07T09:27:50Z</time>
      </trkpt>
      <trkpt lat="45.59883" lon="4.55048">
        <ele>746.12036132812</ele>
        <time>2012-04-07T09:27:52Z</time>
      </trkpt>
      <trkpt lat="45.59878" lon="4.55061">
        <ele>748.52368164062</ele>
        <time>2012-04-07T09:28:00Z</time>
      </trkpt>
      <trkpt lat="45.59874" lon="4.55075">
        <ele>751.88842773438</ele>
        <time>2012-04-07T09:28:08Z</time>
      </trkpt>
      <trkpt lat="45.59872" lon="4.55086">
        <ele>754.77221679688</ele>
        <time>2012-04-07T09:28:14Z</time>
      </trkpt>
      <trkpt lat="45.59871" lon="4.55097">
        <ele>757.17553710938</ele>
        <time>2012-04-07T09:28:20Z</time>
      </trkpt>
      <trkpt lat="45.59868" lon="4.55114">
        <ele>762.943359375</ele>
        <time>2012-04-07T09:28:30Z</time>
      </trkpt>
      <trkpt lat="45.59865" lon="4.55126">
        <ele>765.82763671875</ele>
        <time>2012-04-07T09:28:37Z</time>
      </trkpt>
      <trkpt lat="45.59863" lon="4.55135">
        <ele>767.75</ele>
        <time>2012-04-07T09:28:43Z</time>
      </trkpt>
      <trkpt lat="45.59861" lon="4.5514">
        <ele>769.19213867188</ele>
        <time>2012-04-07T09:28:46Z</time>
      </trkpt>
      <trkpt lat="45.59858" lon="4.55152">
        <ele>770.63403320312</ele>
        <time>2012-04-07T09:28:54Z</time>
      </trkpt>
      <trkpt lat="45.59856" lon="4.55164">
        <ele>770.63403320312</ele>
        <time>2012-04-07T09:29:01Z</time>
      </trkpt>
      <trkpt lat="45.59855" lon="4.55174">
        <ele>772.07592773438</ele>
        <time>2012-04-07T09:29:07Z</time>
      </trkpt>
      <trkpt lat="45.59854" lon="4.55188">
        <ele>773.51806640625</ele>
        <time>2012-04-07T09:29:15Z</time>
      </trkpt>
      <trkpt lat="45.59855" lon="4.55203">
        <ele>773.99853515625</ele>
        <time>2012-04-07T09:29:23Z</time>
      </trkpt>
      <trkpt lat="45.59854" lon="4.55216">
        <ele>773.99853515625</ele>
        <time>2012-04-07T09:29:30Z</time>
      </trkpt>
      <trkpt lat="45.59854" lon="4.55231">
        <ele>775.4404296875</ele>
        <time>2012-04-07T09:29:38Z</time>
      </trkpt>
      <trkpt lat="45.59854" lon="4.55235">
        <ele>775.92114257812</ele>
        <time>2012-04-07T09:29:40Z</time>
      </trkpt>
      <trkpt lat="45.59848" lon="4.55257">
        <ele>777.84375</ele>
        <time>2012-04-07T09:29:50Z</time>
      </trkpt>
      <trkpt lat="45.59842" lon="4.55275">
        <ele>779.76635742188</ele>
        <time>2012-04-07T09:29:58Z</time>
      </trkpt>
      <trkpt lat="45.59834" lon="4.5529">
        <ele>781.20874023438</ele>
        <time>2012-04-07T09:30:06Z</time>
      </trkpt>
      <trkpt lat="45.59822" lon="4.55292">
        <ele>782.169921875</ele>
        <time>2012-04-07T09:30:13Z</time>
      </trkpt>
      <trkpt lat="45.59812" lon="4.55278">
        <ele>784.5732421875</ele>
        <time>2012-04-07T09:30:21Z</time>
      </trkpt>
      <trkpt lat="45.59799" lon="4.55258">
        <ele>787.45703125</ele>
        <time>2012-04-07T09:30:32Z</time>
      </trkpt>
      <trkpt lat="45.59788" lon="4.55242">
        <ele>788.41845703125</ele>
        <time>2012-04-07T09:30:39Z</time>
      </trkpt>
      <trkpt lat="45.59768" lon="4.55221">
        <ele>788.89916992188</ele>
        <time>2012-04-07T09:30:49Z</time>
      </trkpt>
      <trkpt lat="45.59747" lon="4.55202">
        <ele>789.8603515625</ele>
        <time>2012-04-07T09:30:58Z</time>
      </trkpt>
      <trkpt lat="45.59739" lon="4.55186">
        <ele>790.82153320312</ele>
        <time>2012-04-07T09:31:03Z</time>
      </trkpt>
      <trkpt lat="45.59719" lon="4.5517">
        <ele>791.78295898438</ele>
        <time>2012-04-07T09:31:11Z</time>
      </trkpt>
      <trkpt lat="45.59696" lon="4.55154">
        <ele>793.22485351562</ele>
        <time>2012-04-07T09:31:20Z</time>
      </trkpt>
      <trkpt lat="45.59679" lon="4.55139">
        <ele>794.18627929688</ele>
        <time>2012-04-07T09:31:27Z</time>
      </trkpt>
      <trkpt lat="45.59668" lon="4.55126">
        <ele>794.66674804688</ele>
        <time>2012-04-07T09:31:32Z</time>
      </trkpt>
      <trkpt lat="45.59649" lon="4.55115">
        <ele>795.62817382812</ele>
        <time>2012-04-07T09:31:38Z</time>
      </trkpt>
      <trkpt lat="45.59625" lon="4.55103">
        <ele>795.1474609375</ele>
        <time>2012-04-07T09:31:45Z</time>
      </trkpt>
      <trkpt lat="45.59606" lon="4.55101">
        <ele>795.62817382812</ele>
        <time>2012-04-07T09:31:51Z</time>
      </trkpt>
      <trkpt lat="45.59587" lon="4.55106">
        <ele>795.1474609375</ele>
        <time>2012-04-07T09:31:57Z</time>
      </trkpt>
      <trkpt lat="45.59568" lon="4.55124">
        <ele>795.1474609375</ele>
        <time>2012-04-07T09:32:04Z</time>
      </trkpt>
      <trkpt lat="45.59544" lon="4.55151">
        <ele>794.66674804688</ele>
        <time>2012-04-07T09:32:12Z</time>
      </trkpt>
      <trkpt lat="45.59521" lon="4.5517">
        <ele>795.62817382812</ele>
        <time>2012-04-07T09:32:19Z</time>
      </trkpt>
      <trkpt lat="45.59505" lon="4.55182">
        <ele>798.03173828125</ele>
        <time>2012-04-07T09:32:26Z</time>
      </trkpt>
      <trkpt lat="45.59493" lon="4.55191">
        <ele>800.43505859375</ele>
        <time>2012-04-07T09:32:33Z</time>
      </trkpt>
      <trkpt lat="45.59482" lon="4.55199">
        <ele>802.357421875</ele>
        <time>2012-04-07T09:32:39Z</time>
      </trkpt>
      <trkpt lat="45.59469" lon="4.55206">
        <ele>804.7607421875</ele>
        <time>2012-04-07T09:32:47Z</time>
      </trkpt>
      <trkpt lat="45.59464" lon="4.5521">
        <ele>805.72216796875</ele>
        <time>2012-04-07T09:32:50Z</time>
      </trkpt>
      <trkpt lat="45.59459" lon="4.55202">
        <ele>807.1640625</ele>
        <time>2012-04-07T09:32:55Z</time>
      </trkpt>
      <trkpt lat="45.59459" lon="4.55199">
        <ele>807.1640625</ele>
        <time>2012-04-07T09:32:56Z</time>
      </trkpt>
      <trkpt lat="45.59456" lon="4.55173">
        <ele>808.12548828125</ele>
        <time>2012-04-07T09:33:07Z</time>
      </trkpt>
      <trkpt lat="45.59452" lon="4.55156">
        <ele>809.08666992188</ele>
        <time>2012-04-07T09:33:14Z</time>
      </trkpt>
      <trkpt lat="45.59447" lon="4.55136">
        <ele>811.00927734375</ele>
        <time>2012-04-07T09:33:22Z</time>
      </trkpt>
      <trkpt lat="45.59443" lon="4.55109">
        <ele>813.89331054688</ele>
        <time>2012-04-07T09:33:32Z</time>
      </trkpt>
      <trkpt lat="45.59443" lon="4.55087">
        <ele>815.33544921875</ele>
        <time>2012-04-07T09:33:39Z</time>
      </trkpt>
      <trkpt lat="45.59442" lon="4.55063">
        <ele>816.77734375</ele>
        <time>2012-04-07T09:33:47Z</time>
      </trkpt>
      <trkpt lat="45.59438" lon="4.55034">
        <ele>817.25805664062</ele>
        <time>2012-04-07T09:33:56Z</time>
      </trkpt>
      <trkpt lat="45.5943" lon="4.55014">
        <ele>818.21923828125</ele>
        <time>2012-04-07T09:34:03Z</time>
      </trkpt>
      <trkpt lat="45.59419" lon="4.54992">
        <ele>819.1806640625</ele>
        <time>2012-04-07T09:34:11Z</time>
      </trkpt>
      <trkpt lat="45.59409" lon="4.54973">
        <ele>820.62255859375</ele>
        <time>2012-04-07T09:34:19Z</time>
      </trkpt>
      <trkpt lat="45.59399" lon="4.54955">
        <ele>822.54516601562</ele>
        <time>2012-04-07T09:34:27Z</time>
      </trkpt>
      <trkpt lat="45.59386" lon="4.54931">
        <ele>824.94848632812</ele>
        <time>2012-04-07T09:34:37Z</time>
      </trkpt>
      <trkpt lat="45.59372" lon="4.54911">
        <ele>825.90966796875</ele>
        <time>2012-04-07T09:34:46Z</time>
      </trkpt>
      <trkpt lat="45.59357" lon="4.54888">
        <ele>828.31323242188</ele>
        <time>2012-04-07T09:34:53Z</time>
      </trkpt>
      <trkpt lat="45.59345" lon="4.5487">
        <ele>828.7939453125</ele>
        <time>2012-04-07T09:34:58Z</time>
      </trkpt>
      <trkpt lat="45.59324" lon="4.54837">
        <ele>830.23583984375</ele>
        <time>2012-04-07T09:35:06Z</time>
      </trkpt>
      <trkpt lat="45.59302" lon="4.54809">
        <ele>829.2744140625</ele>
        <time>2012-04-07T09:35:12Z</time>
      </trkpt>
      <trkpt lat="45.59287" lon="4.54794">
        <ele>829.75512695312</ele>
        <time>2012-04-07T09:35:16Z</time>
      </trkpt>
      <trkpt lat="45.59276" lon="4.54783">
        <ele>830.23583984375</ele>
        <time>2012-04-07T09:35:19Z</time>
      </trkpt>
      <trkpt lat="45.59237" lon="4.54765">
        <ele>824.4677734375</ele>
        <time>2012-04-07T09:35:26Z</time>
      </trkpt>
      <trkpt lat="45.5922" lon="4.54763">
        <ele>822.54516601562</ele>
        <time>2012-04-07T09:35:29Z</time>
      </trkpt>
      <trkpt lat="45.59175" lon="4.54764">
        <ele>818.21923828125</ele>
        <time>2012-04-07T09:35:36Z</time>
      </trkpt>
      <trkpt lat="45.5915" lon="4.54757">
        <ele>817.73852539062</ele>
        <time>2012-04-07T09:35:40Z</time>
      </trkpt>
      <trkpt lat="45.5912" lon="4.54733">
        <ele>818.21923828125</ele>
        <time>2012-04-07T09:35:47Z</time>
      </trkpt>
      <trkpt lat="45.59106" lon="4.54719">
        <ele>818.21923828125</ele>
        <time>2012-04-07T09:35:51Z</time>
      </trkpt>
      <trkpt lat="45.59084" lon="4.54693">
        <ele>818.69995117188</ele>
        <time>2012-04-07T09:35:58Z</time>
      </trkpt>
      <trkpt lat="45.59081" lon="4.5469">
        <ele>818.69995117188</ele>
        <time>2012-04-07T09:35:59Z</time>
      </trkpt>
      <trkpt lat="45.59056" lon="4.54659">
        <ele>819.66137695312</ele>
        <time>2012-04-07T09:36:07Z</time>
      </trkpt>
      <trkpt lat="45.59052" lon="4.54655">
        <ele>819.66137695312</ele>
        <time>2012-04-07T09:36:08Z</time>
      </trkpt>
      <trkpt lat="45.59042" lon="4.54626">
        <ele>821.10327148438</ele>
        <time>2012-04-07T09:36:14Z</time>
      </trkpt>
      <trkpt lat="45.59035" lon="4.54582">
        <ele>823.02587890625</ele>
        <time>2012-04-07T09:36:23Z</time>
      </trkpt>
      <trkpt lat="45.59024" lon="4.54555">
        <ele>824.4677734375</ele>
        <time>2012-04-07T09:36:29Z</time>
      </trkpt>
      <trkpt lat="45.59009" lon="4.54533">
        <ele>825.42895507812</ele>
        <time>2012-04-07T09:36:36Z</time>
      </trkpt>
      <trkpt lat="45.58997" lon="4.54514">
        <ele>827.35180664062</ele>
        <time>2012-04-07T09:36:43Z</time>
      </trkpt>
      <trkpt lat="45.58984" lon="4.54498">
        <ele>828.7939453125</ele>
        <time>2012-04-07T09:36:50Z</time>
      </trkpt>
      <trkpt lat="45.5897" lon="4.54478">
        <ele>829.2744140625</ele>
        <time>2012-04-07T09:36:58Z</time>
      </trkpt>
      <trkpt lat="45.58963" lon="4.54455">
        <ele>830.23583984375</ele>
        <time>2012-04-07T09:37:04Z</time>
      </trkpt>
      <trkpt lat="45.58955" lon="4.54429">
        <ele>830.23583984375</ele>
        <time>2012-04-07T09:37:10Z</time>
      </trkpt>
      <trkpt lat="45.58945" lon="4.54397">
        <ele>830.23583984375</ele>
        <time>2012-04-07T09:37:17Z</time>
      </trkpt>
      <trkpt lat="45.58942" lon="4.54376">
        <ele>830.71655273438</ele>
        <time>2012-04-07T09:37:22Z</time>
      </trkpt>
      <trkpt lat="45.58942" lon="4.54354">
        <ele>829.75512695312</ele>
        <time>2012-04-07T09:37:26Z</time>
      </trkpt>
      <trkpt lat="45.58939" lon="4.54321">
        <ele>828.31323242188</ele>
        <time>2012-04-07T09:37:31Z</time>
      </trkpt>
      <trkpt lat="45.58932" lon="4.54288">
        <ele>825.42895507812</ele>
        <time>2012-04-07T09:37:36Z</time>
      </trkpt>
      <trkpt lat="45.5893" lon="4.54282">
        <ele>824.94848632812</ele>
        <time>2012-04-07T09:37:37Z</time>
      </trkpt>
      <trkpt lat="45.5891" lon="4.54212">
        <ele>824.94848632812</ele>
        <time>2012-04-07T09:37:48Z</time>
      </trkpt>
      <trkpt lat="45.589" lon="4.54175">
        <ele>825.42895507812</ele>
        <time>2012-04-07T09:37:54Z</time>
      </trkpt>
      <trkpt lat="45.58899" lon="4.54163">
        <ele>825.42895507812</ele>
        <time>2012-04-07T09:37:56Z</time>
      </trkpt>
      <trkpt lat="45.58897" lon="4.54145">
        <ele>825.42895507812</ele>
        <time>2012-04-07T09:37:59Z</time>
      </trkpt>
      <trkpt lat="45.58894" lon="4.54128">
        <ele>826.87109375</ele>
        <time>2012-04-07T09:38:02Z</time>
      </trkpt>
      <trkpt lat="45.58889" lon="4.54104">
        <ele>830.71655273438</ele>
        <time>2012-04-07T09:38:06Z</time>
      </trkpt>
      <trkpt lat="45.58885" lon="4.54081">
        <ele>833.11962890625</ele>
        <time>2012-04-07T09:38:09Z</time>
      </trkpt>
      <trkpt lat="45.58878" lon="4.54043">
        <ele>835.04248046875</ele>
        <time>2012-04-07T09:38:14Z</time>
      </trkpt>
      <trkpt lat="45.5887" lon="4.54022">
        <ele>832.63916015625</ele>
        <time>2012-04-07T09:38:17Z</time>
      </trkpt>
      <trkpt lat="45.58859" lon="4.53996">
        <ele>829.75512695312</ele>
        <time>2012-04-07T09:38:21Z</time>
      </trkpt>
      <trkpt lat="45.58845" lon="4.53946">
        <ele>827.35180664062</ele>
        <time>2012-04-07T09:38:29Z</time>
      </trkpt>
      <trkpt lat="45.58823" lon="4.53907">
        <ele>824.94848632812</ele>
        <time>2012-04-07T09:38:36Z</time>
      </trkpt>
      <trkpt lat="45.58814" lon="4.53897">
        <ele>824.4677734375</ele>
        <time>2012-04-07T09:38:38Z</time>
      </trkpt>
      <trkpt lat="45.5879" lon="4.5388">
        <ele>823.02587890625</ele>
        <time>2012-04-07T09:38:43Z</time>
      </trkpt>
      <trkpt lat="45.58755" lon="4.53855">
        <ele>822.54516601562</ele>
        <time>2012-04-07T09:38:51Z</time>
      </trkpt>
      <trkpt lat="45.58729" lon="4.53826">
        <ele>822.064453125</ele>
        <time>2012-04-07T09:38:58Z</time>
      </trkpt>
      <trkpt lat="45.58699" lon="4.53785">
        <ele>821.10327148438</ele>
        <time>2012-04-07T09:39:06Z</time>
      </trkpt>
      <trkpt lat="45.58688" lon="4.53757">
        <ele>820.62255859375</ele>
        <time>2012-04-07T09:39:11Z</time>
      </trkpt>
      <trkpt lat="45.58681" lon="4.53735">
        <ele>821.10327148438</ele>
        <time>2012-04-07T09:39:15Z</time>
      </trkpt>
      <trkpt lat="45.58667" lon="4.53683">
        <ele>820.14184570312</ele>
        <time>2012-04-07T09:39:23Z</time>
      </trkpt>
      <trkpt lat="45.58652" lon="4.53637">
        <ele>820.14184570312</ele>
        <time>2012-04-07T09:39:30Z</time>
      </trkpt>
      <trkpt lat="45.58646" lon="4.53626">
        <ele>820.62255859375</ele>
        <time>2012-04-07T09:39:32Z</time>
      </trkpt>
      <trkpt lat="45.58631" lon="4.53603">
        <ele>821.58374023438</ele>
        <time>2012-04-07T09:39:37Z</time>
      </trkpt>
      <trkpt lat="45.58618" lon="4.53578">
        <ele>821.10327148438</ele>
        <time>2012-04-07T09:39:42Z</time>
      </trkpt>
      <trkpt lat="45.58591" lon="4.53528">
        <ele>820.14184570312</ele>
        <time>2012-04-07T09:39:51Z</time>
      </trkpt>
      <trkpt lat="45.5856" lon="4.5348">
        <ele>818.69995117188</ele>
        <time>2012-04-07T09:40:00Z</time>
      </trkpt>
      <trkpt lat="45.58534" lon="4.53451">
        <ele>820.14184570312</ele>
        <time>2012-04-07T09:40:07Z</time>
      </trkpt>
      <trkpt lat="45.58512" lon="4.53427">
        <ele>821.10327148438</ele>
        <time>2012-04-07T09:40:13Z</time>
      </trkpt>
      <trkpt lat="45.58492" lon="4.53382">
        <ele>821.10327148438</ele>
        <time>2012-04-07T09:40:21Z</time>
      </trkpt>
      <trkpt lat="45.58479" lon="4.53353">
        <ele>822.064453125</ele>
        <time>2012-04-07T09:40:26Z</time>
      </trkpt>
      <trkpt lat="45.58454" lon="4.53314">
        <ele>824.4677734375</ele>
        <time>2012-04-07T09:40:34Z</time>
      </trkpt>
      <trkpt lat="45.58451" lon="4.53309">
        <ele>825.42895507812</ele>
        <time>2012-04-07T09:40:35Z</time>
      </trkpt>
      <trkpt lat="45.58429" lon="4.53271">
        <ele>824.94848632812</ele>
        <time>2012-04-07T09:40:43Z</time>
      </trkpt>
      <trkpt lat="45.5841" lon="4.53237">
        <ele>823.02587890625</ele>
        <time>2012-04-07T09:40:50Z</time>
      </trkpt>
      <trkpt lat="45.58387" lon="4.53205">
        <ele>822.064453125</ele>
        <time>2012-04-07T09:40:56Z</time>
      </trkpt>
      <trkpt lat="45.58374" lon="4.5317">
        <ele>819.66137695312</ele>
        <time>2012-04-07T09:41:01Z</time>
      </trkpt>
      <trkpt lat="45.58353" lon="4.53119">
        <ele>816.77734375</ele>
        <time>2012-04-07T09:41:07Z</time>
      </trkpt>
      <trkpt lat="45.58344" lon="4.53088">
        <ele>814.85473632812</ele>
        <time>2012-04-07T09:41:11Z</time>
      </trkpt>
      <trkpt lat="45.58344" lon="4.53026">
        <ele>813.41284179688</ele>
        <time>2012-04-07T09:41:20Z</time>
      </trkpt>
      <trkpt lat="45.58345" lon="4.53013">
        <ele>813.41284179688</ele>
        <time>2012-04-07T09:41:22Z</time>
      </trkpt>
      <trkpt lat="45.5835" lon="4.52996">
        <ele>813.41284179688</ele>
        <time>2012-04-07T09:41:25Z</time>
      </trkpt>
      <trkpt lat="45.58374" lon="4.52959">
        <ele>809.08666992188</ele>
        <time>2012-04-07T09:41:33Z</time>
      </trkpt>
      <trkpt lat="45.58382" lon="4.52947">
        <ele>808.12548828125</ele>
        <time>2012-04-07T09:41:35Z</time>
      </trkpt>
      <trkpt lat="45.58399" lon="4.52897">
        <ele>805.72216796875</ele>
        <time>2012-04-07T09:41:42Z</time>
      </trkpt>
      <trkpt lat="45.58409" lon="4.5285">
        <ele>803.31884765625</ele>
        <time>2012-04-07T09:41:48Z</time>
      </trkpt>
      <trkpt lat="45.58418" lon="4.528">
        <ele>799.95434570312</ele>
        <time>2012-04-07T09:41:54Z</time>
      </trkpt>
      <trkpt lat="45.58423" lon="4.52758">
        <ele>798.03173828125</ele>
        <time>2012-04-07T09:41:59Z</time>
      </trkpt>
      <trkpt lat="45.58424" lon="4.52726">
        <ele>799.4736328125</ele>
        <time>2012-04-07T09:42:04Z</time>
      </trkpt>
      <trkpt lat="45.58422" lon="4.52716">
        <ele>799.95434570312</ele>
        <time>2012-04-07T09:42:06Z</time>
      </trkpt>
      <trkpt lat="45.58417" lon="4.52666">
        <ele>798.51220703125</ele>
        <time>2012-04-07T09:42:14Z</time>
      </trkpt>
      <trkpt lat="45.58407" lon="4.52635">
        <ele>797.55102539062</ele>
        <time>2012-04-07T09:42:18Z</time>
      </trkpt>
      <trkpt lat="45.58376" lon="4.52597">
        <ele>795.1474609375</ele>
        <time>2012-04-07T09:42:23Z</time>
      </trkpt>
      <trkpt lat="45.58317" lon="4.52554">
        <ele>791.78295898438</ele>
        <time>2012-04-07T09:42:31Z</time>
      </trkpt>
      <trkpt lat="45.58311" lon="4.5255">
        <ele>791.78295898438</ele>
        <time>2012-04-07T09:42:32Z</time>
      </trkpt>
      <trkpt lat="45.58306" lon="4.52529">
        <ele>788.89916992188</ele>
        <time>2012-04-07T09:42:36Z</time>
      </trkpt>
      <trkpt lat="45.58311" lon="4.52502">
        <ele>785.53442382812</ele>
        <time>2012-04-07T09:42:39Z</time>
      </trkpt>
      <trkpt lat="45.58313" lon="4.52481">
        <ele>783.61181640625</ele>
        <time>2012-04-07T09:42:41Z</time>
      </trkpt>
      <trkpt lat="45.58313" lon="4.52444">
        <ele>779.28564453125</ele>
        <time>2012-04-07T09:42:45Z</time>
      </trkpt>
      <trkpt lat="45.58327" lon="4.52424">
        <ele>778.80517578125</ele>
        <time>2012-04-07T09:42:49Z</time>
      </trkpt>
      <trkpt lat="45.5833" lon="4.52421">
        <ele>778.80517578125</ele>
        <time>2012-04-07T09:42:50Z</time>
      </trkpt>
      <trkpt lat="45.58335" lon="4.52414">
        <ele>778.32446289062</ele>
        <time>2012-04-07T09:42:52Z</time>
      </trkpt>
      <trkpt lat="45.58348" lon="4.52398">
        <ele>776.40185546875</ele>
        <time>2012-04-07T09:42:57Z</time>
      </trkpt>
      <trkpt lat="45.58356" lon="4.52384">
        <ele>779.76635742188</ele>
        <time>2012-04-07T09:43:03Z</time>
      </trkpt>
      <trkpt lat="45.58369" lon="4.52368">
        <ele>783.13110351562</ele>
        <time>2012-04-07T09:43:10Z</time>
      </trkpt>
      <trkpt lat="45.58382" lon="4.52351">
        <ele>780.72802734375</ele>
        <time>2012-04-07T09:43:16Z</time>
      </trkpt>
      <trkpt lat="45.5839" lon="4.52333">
        <ele>777.36328125</ele>
        <time>2012-04-07T09:43:21Z</time>
      </trkpt>
      <trkpt lat="45.58395" lon="4.52318">
        <ele>777.84375</ele>
        <time>2012-04-07T09:43:26Z</time>
      </trkpt>
      <trkpt lat="45.584" lon="4.52304">
        <ele>779.76635742188</ele>
        <time>2012-04-07T09:43:31Z</time>
      </trkpt>
      <trkpt lat="45.58413" lon="4.52289">
        <ele>780.72802734375</ele>
        <time>2012-04-07T09:43:38Z</time>
      </trkpt>
      <trkpt lat="45.58435" lon="4.52262">
        <ele>778.32446289062</ele>
        <time>2012-04-07T09:43:46Z</time>
      </trkpt>
      <trkpt lat="45.5845" lon="4.5224">
        <ele>778.32446289062</ele>
        <time>2012-04-07T09:43:53Z</time>
      </trkpt>
      <trkpt lat="45.58462" lon="4.52218">
        <ele>778.80517578125</ele>
        <time>2012-04-07T09:44:01Z</time>
      </trkpt>
      <trkpt lat="45.58471" lon="4.52205">
        <ele>780.24731445312</ele>
        <time>2012-04-07T09:44:08Z</time>
      </trkpt>
      <trkpt lat="45.58484" lon="4.52197">
        <ele>783.13110351562</ele>
        <time>2012-04-07T09:44:16Z</time>
      </trkpt>
      <trkpt lat="45.58498" lon="4.5219">
        <ele>786.49584960938</ele>
        <time>2012-04-07T09:44:26Z</time>
      </trkpt>
      <trkpt lat="45.58509" lon="4.52185">
        <ele>788.89916992188</ele>
        <time>2012-04-07T09:44:34Z</time>
      </trkpt>
      <trkpt lat="45.5852" lon="4.52181">
        <ele>790.34106445312</ele>
        <time>2012-04-07T09:44:41Z</time>
      </trkpt>
      <trkpt lat="45.58532" lon="4.52181">
        <ele>792.74438476562</ele>
        <time>2012-04-07T09:44:49Z</time>
      </trkpt>
      <trkpt lat="45.58547" lon="4.52181">
        <ele>796.58984375</ele>
        <time>2012-04-07T09:44:59Z</time>
      </trkpt>
      <trkpt lat="45.58558" lon="4.5218">
        <ele>798.03173828125</ele>
        <time>2012-04-07T09:45:06Z</time>
      </trkpt>
      <trkpt lat="45.58566" lon="4.52183">
        <ele>800.43505859375</ele>
        <time>2012-04-07T09:45:13Z</time>
      </trkpt>
      <trkpt lat="45.58578" lon="4.52183">
        <ele>802.357421875</ele>
        <time>2012-04-07T09:45:22Z</time>
      </trkpt>
      <trkpt lat="45.5859" lon="4.52186">
        <ele>806.20263671875</ele>
        <time>2012-04-07T09:45:32Z</time>
      </trkpt>
      <trkpt lat="45.58601" lon="4.52189">
        <ele>809.5673828125</ele>
        <time>2012-04-07T09:45:41Z</time>
      </trkpt>
      <trkpt lat="45.58609" lon="4.5219">
        <ele>811.48999023438</ele>
        <time>2012-04-07T09:45:48Z</time>
      </trkpt>
      <trkpt lat="45.58617" lon="4.52186">
        <ele>811.970703125</ele>
        <time>2012-04-07T09:45:54Z</time>
      </trkpt>
      <trkpt lat="45.58621" lon="4.52173">
        <ele>812.93212890625</ele>
        <time>2012-04-07T09:46:01Z</time>
      </trkpt>
      <trkpt lat="45.58627" lon="4.52152">
        <ele>813.89331054688</ele>
        <time>2012-04-07T09:46:10Z</time>
      </trkpt>
      <trkpt lat="45.58636" lon="4.52122">
        <ele>814.3740234375</ele>
        <time>2012-04-07T09:46:22Z</time>
      </trkpt>
      <trkpt lat="45.58641" lon="4.521">
        <ele>815.81616210938</ele>
        <time>2012-04-07T09:46:30Z</time>
      </trkpt>
      <trkpt lat="45.58648" lon="4.52077">
        <ele>817.73852539062</ele>
        <time>2012-04-07T09:46:39Z</time>
      </trkpt>
      <trkpt lat="45.58654" lon="4.52047">
        <ele>818.69995117188</ele>
        <time>2012-04-07T09:46:49Z</time>
      </trkpt>
      <trkpt lat="45.58661" lon="4.52025">
        <ele>819.66137695312</ele>
        <time>2012-04-07T09:46:57Z</time>
      </trkpt>
      <trkpt lat="45.58674" lon="4.51999">
        <ele>820.62255859375</ele>
        <time>2012-04-07T09:47:07Z</time>
      </trkpt>
      <trkpt lat="45.58681" lon="4.51975">
        <ele>822.064453125</ele>
        <time>2012-04-07T09:47:15Z</time>
      </trkpt>
      <trkpt lat="45.58676" lon="4.51961">
        <ele>825.42895507812</ele>
        <time>2012-04-07T09:47:20Z</time>
      </trkpt>
      <trkpt lat="45.58672" lon="4.51941">
        <ele>832.15844726562</ele>
        <time>2012-04-07T09:47:27Z</time>
      </trkpt>
      <trkpt lat="45.58671" lon="4.51935">
        <ele>831.677734375</ele>
        <time>2012-04-07T09:47:29Z</time>
      </trkpt>
      <trkpt lat="45.58679" lon="4.5192">
        <ele>831.677734375</ele>
        <time>2012-04-07T09:47:35Z</time>
      </trkpt>
      <trkpt lat="45.58693" lon="4.51907">
        <ele>832.63916015625</ele>
        <time>2012-04-07T09:47:42Z</time>
      </trkpt>
      <trkpt lat="45.58715" lon="4.51889">
        <ele>832.63916015625</ele>
        <time>2012-04-07T09:47:53Z</time>
      </trkpt>
      <trkpt lat="45.58735" lon="4.51881">
        <ele>833.11962890625</ele>
        <time>2012-04-07T09:48:02Z</time>
      </trkpt>
      <trkpt lat="45.58742" lon="4.51876">
        <ele>833.60034179688</ele>
        <time>2012-04-07T09:48:06Z</time>
      </trkpt>
      <trkpt lat="45.58736" lon="4.51871">
        <ele>833.60034179688</ele>
        <time>2012-04-07T09:48:10Z</time>
      </trkpt>
      <trkpt lat="45.58717" lon="4.51873">
        <ele>833.60034179688</ele>
        <time>2012-04-07T09:48:17Z</time>
      </trkpt>
      <trkpt lat="45.58711" lon="4.51861">
        <ele>834.0810546875</ele>
        <time>2012-04-07T09:48:22Z</time>
      </trkpt>
      <trkpt lat="45.58713" lon="4.51855">
        <ele>834.56176757812</ele>
        <time>2012-04-07T09:48:24Z</time>
      </trkpt>
      <trkpt lat="45.58715" lon="4.5184">
        <ele>836.484375</ele>
        <time>2012-04-07T09:48:30Z</time>
      </trkpt>
      <trkpt lat="45.58718" lon="4.51825">
        <ele>838.8876953125</ele>
        <time>2012-04-07T09:48:36Z</time>
      </trkpt>
      <trkpt lat="45.58721" lon="4.51806">
        <ele>841.771484375</ele>
        <time>2012-04-07T09:48:44Z</time>
      </trkpt>
      <trkpt lat="45.5872" lon="4.51798">
        <ele>843.21337890625</ele>
        <time>2012-04-07T09:48:48Z</time>
      </trkpt>
      <trkpt lat="45.58724" lon="4.51789">
        <ele>844.17504882812</ele>
        <time>2012-04-07T09:48:54Z</time>
      </trkpt>
      <trkpt lat="45.58723" lon="4.51789">
        <ele>844.65551757812</ele>
        <time>2012-04-07T09:49:02Z</time>
      </trkpt>
      <trkpt lat="45.58724" lon="4.51784">
        <ele>846.09765625</ele>
        <time>2012-04-07T09:49:08Z</time>
      </trkpt>
      <trkpt lat="45.58725" lon="4.51769">
        <ele>848.50073242188</ele>
        <time>2012-04-07T09:49:18Z</time>
      </trkpt>
      <trkpt lat="45.58725" lon="4.51774">
        <ele>847.53955078125</ele>
        <time>2012-04-07T09:49:22Z</time>
      </trkpt>
      <trkpt lat="45.58722" lon="4.51799">
        <ele>844.65551757812</ele>
        <time>2012-04-07T09:49:26Z</time>
      </trkpt>
      <trkpt lat="45.58715" lon="4.51854">
        <ele>836.484375</ele>
        <time>2012-04-07T09:49:32Z</time>
      </trkpt>
      <trkpt lat="45.58704" lon="4.51869">
        <ele>832.15844726562</ele>
        <time>2012-04-07T09:49:36Z</time>
      </trkpt>
      <trkpt lat="45.5869" lon="4.51866">
        <ele>832.15844726562</ele>
        <time>2012-04-07T09:49:40Z</time>
      </trkpt>
      <trkpt lat="45.58665" lon="4.51846">
        <ele>833.60034179688</ele>
        <time>2012-04-07T09:49:50Z</time>
      </trkpt>
      <trkpt lat="45.58653" lon="4.51833">
        <ele>836.00366210938</ele>
        <time>2012-04-07T09:49:57Z</time>
      </trkpt>
      <trkpt lat="45.58634" lon="4.51822">
        <ele>836.96484375</ele>
        <time>2012-04-07T09:50:03Z</time>
      </trkpt>
      <trkpt lat="45.58614" lon="4.51819">
        <ele>834.56176757812</ele>
        <time>2012-04-07T09:50:07Z</time>
      </trkpt>
      <trkpt lat="45.58585" lon="4.51808">
        <ele>832.15844726562</ele>
        <time>2012-04-07T09:50:13Z</time>
      </trkpt>
      <trkpt lat="45.58574" lon="4.51798">
        <ele>831.197265625</ele>
        <time>2012-04-07T09:50:18Z</time>
      </trkpt>
      <trkpt lat="45.58574" lon="4.51798">
        <ele>830.23583984375</ele>
        <time>2012-04-07T09:50:22Z</time>
      </trkpt>
      <trkpt lat="45.58575" lon="4.51799">
        <ele>830.71655273438</ele>
        <time>2012-04-07T09:50:32Z</time>
      </trkpt>
      <trkpt lat="45.58574" lon="4.51803">
        <ele>832.15844726562</ele>
        <time>2012-04-07T09:50:52Z</time>
      </trkpt>
      <trkpt lat="45.58574" lon="4.51803">
        <ele>832.15844726562</ele>
        <time>2012-04-07T09:50:59Z</time>
      </trkpt>
      <trkpt lat="45.58575" lon="4.51804">
        <ele>831.677734375</ele>
        <time>2012-04-07T09:51:04Z</time>
      </trkpt>
      <trkpt lat="45.58575" lon="4.51805">
        <ele>830.71655273438</ele>
        <time>2012-04-07T09:51:07Z</time>
      </trkpt>
      <trkpt lat="45.58559" lon="4.51805">
        <ele>829.2744140625</ele>
        <time>2012-04-07T09:51:12Z</time>
      </trkpt>
      <trkpt lat="45.58528" lon="4.518">
        <ele>828.7939453125</ele>
        <time>2012-04-07T09:51:18Z</time>
      </trkpt>
      <trkpt lat="45.58497" lon="4.51796">
        <ele>828.31323242188</ele>
        <time>2012-04-07T09:51:23Z</time>
      </trkpt>
      <trkpt lat="45.58479" lon="4.51782">
        <ele>827.83227539062</ele>
        <time>2012-04-07T09:51:27Z</time>
      </trkpt>
      <trkpt lat="45.58479" lon="4.51767">
        <ele>826.87109375</ele>
        <time>2012-04-07T09:51:30Z</time>
      </trkpt>
      <trkpt lat="45.5848" lon="4.51762">
        <ele>826.39038085938</ele>
        <time>2012-04-07T09:51:31Z</time>
      </trkpt>
      <trkpt lat="45.58488" lon="4.5173">
        <ele>829.2744140625</ele>
        <time>2012-04-07T09:51:40Z</time>
      </trkpt>
      <trkpt lat="45.58489" lon="4.51707">
        <ele>831.677734375</ele>
        <time>2012-04-07T09:51:48Z</time>
      </trkpt>
      <trkpt lat="45.58492" lon="4.51689">
        <ele>833.60034179688</ele>
        <time>2012-04-07T09:51:55Z</time>
      </trkpt>
      <trkpt lat="45.58494" lon="4.51671">
        <ele>835.52294921875</ele>
        <time>2012-04-07T09:52:02Z</time>
      </trkpt>
      <trkpt lat="45.58504" lon="4.51651">
        <ele>837.92626953125</ele>
        <time>2012-04-07T09:52:11Z</time>
      </trkpt>
      <trkpt lat="45.58513" lon="4.51638">
        <ele>839.3681640625</ele>
        <time>2012-04-07T09:52:18Z</time>
      </trkpt>
      <trkpt lat="45.58518" lon="4.51625">
        <ele>840.81005859375</ele>
        <time>2012-04-07T09:52:24Z</time>
      </trkpt>
      <trkpt lat="45.58524" lon="4.51609">
        <ele>842.73291015625</ele>
        <time>2012-04-07T09:52:31Z</time>
      </trkpt>
      <trkpt lat="45.5853" lon="4.51595">
        <ele>844.17504882812</ele>
        <time>2012-04-07T09:52:38Z</time>
      </trkpt>
      <trkpt lat="45.58537" lon="4.51583">
        <ele>845.61694335938</ele>
        <time>2012-04-07T09:52:44Z</time>
      </trkpt>
      <trkpt lat="45.58541" lon="4.51566">
        <ele>847.05883789062</ele>
        <time>2012-04-07T09:52:51Z</time>
      </trkpt>
      <trkpt lat="45.58543" lon="4.51554">
        <ele>848.50073242188</ele>
        <time>2012-04-07T09:52:56Z</time>
      </trkpt>
      <trkpt lat="45.58544" lon="4.51542">
        <ele>849.46215820312</ele>
        <time>2012-04-07T09:53:01Z</time>
      </trkpt>
      <trkpt lat="45.58547" lon="4.51524">
        <ele>851.384765625</ele>
        <time>2012-04-07T09:53:08Z</time>
      </trkpt>
      <trkpt lat="45.58548" lon="4.51519">
        <ele>851.86547851562</ele>
        <time>2012-04-07T09:53:10Z</time>
      </trkpt>
      <trkpt lat="45.5855" lon="4.51494">
        <ele>854.26879882812</ele>
        <time>2012-04-07T09:53:20Z</time>
      </trkpt>
      <trkpt lat="45.58553" lon="4.5148">
        <ele>855.22998046875</ele>
        <time>2012-04-07T09:53:26Z</time>
      </trkpt>
      <trkpt lat="45.58553" lon="4.51462">
        <ele>857.15258789062</ele>
        <time>2012-04-07T09:53:33Z</time>
      </trkpt>
      <trkpt lat="45.58556" lon="4.51455">
        <ele>857.63330078125</ele>
        <time>2012-04-07T09:53:36Z</time>
      </trkpt>
      <trkpt lat="45.58556" lon="4.51443">
        <ele>859.0751953125</ele>
        <time>2012-04-07T09:53:41Z</time>
      </trkpt>
      <trkpt lat="45.58556" lon="4.51425">
        <ele>860.998046875</ele>
        <time>2012-04-07T09:53:48Z</time>
      </trkpt>
      <trkpt lat="45.58556" lon="4.51423">
        <ele>860.998046875</ele>
        <time>2012-04-07T09:53:49Z</time>
      </trkpt>
      <trkpt lat="45.58552" lon="4.51403">
        <ele>862.92065429688</ele>
        <time>2012-04-07T09:53:57Z</time>
      </trkpt>
      <trkpt lat="45.58549" lon="4.51384">
        <ele>863.8818359375</ele>
        <time>2012-04-07T09:54:04Z</time>
      </trkpt>
      <trkpt lat="45.58544" lon="4.51363">
        <ele>865.8046875</ele>
        <time>2012-04-07T09:54:12Z</time>
      </trkpt>
      <trkpt lat="45.5854" lon="4.5134">
        <ele>867.24658203125</ele>
        <time>2012-04-07T09:54:20Z</time>
      </trkpt>
      <trkpt lat="45.58539" lon="4.51316">
        <ele>868.20776367188</ele>
        <time>2012-04-07T09:54:28Z</time>
      </trkpt>
      <trkpt lat="45.58538" lon="4.51285">
        <ele>870.61108398438</ele>
        <time>2012-04-07T09:54:37Z</time>
      </trkpt>
      <trkpt lat="45.5854" lon="4.51255">
        <ele>873.01440429688</ele>
        <time>2012-04-07T09:54:46Z</time>
      </trkpt>
      <trkpt lat="45.58549" lon="4.51242">
        <ele>874.45629882812</ele>
        <time>2012-04-07T09:54:52Z</time>
      </trkpt>
      <trkpt lat="45.58561" lon="4.51234">
        <ele>876.85986328125</ele>
        <time>2012-04-07T09:54:59Z</time>
      </trkpt>
      <trkpt lat="45.58572" lon="4.51211">
        <ele>879.74365234375</ele>
        <time>2012-04-07T09:55:09Z</time>
      </trkpt>
      <trkpt lat="45.5858" lon="4.51187">
        <ele>881.66625976562</ele>
        <time>2012-04-07T09:55:18Z</time>
      </trkpt>
      <trkpt lat="45.58589" lon="4.51169">
        <ele>882.14697265625</ele>
        <time>2012-04-07T09:55:24Z</time>
      </trkpt>
      <trkpt lat="45.58602" lon="4.51133">
        <ele>881.66625976562</ele>
        <time>2012-04-07T09:55:32Z</time>
      </trkpt>
      <trkpt lat="45.58612" lon="4.51096">
        <ele>880.705078125</ele>
        <time>2012-04-07T09:55:38Z</time>
      </trkpt>
      <trkpt lat="45.5863" lon="4.51039">
        <ele>880.705078125</ele>
        <time>2012-04-07T09:55:47Z</time>
      </trkpt>
      <trkpt lat="45.58642" lon="4.51005">
        <ele>882.62768554688</ele>
        <time>2012-04-07T09:55:54Z</time>
      </trkpt>
      <trkpt lat="45.58657" lon="4.50971">
        <ele>884.06958007812</ele>
        <time>2012-04-07T09:56:02Z</time>
      </trkpt>
      <trkpt lat="45.58684" lon="4.50926">
        <ele>885.03100585938</ele>
        <time>2012-04-07T09:56:13Z</time>
      </trkpt>
      <trkpt lat="45.58703" lon="4.50888">
        <ele>885.51147460938</ele>
        <time>2012-04-07T09:56:21Z</time>
      </trkpt>
      <trkpt lat="45.58718" lon="4.50865">
        <ele>885.51147460938</ele>
        <time>2012-04-07T09:56:26Z</time>
      </trkpt>
      <trkpt lat="45.58743" lon="4.50851">
        <ele>885.9921875</ele>
        <time>2012-04-07T09:56:32Z</time>
      </trkpt>
      <trkpt lat="45.58764" lon="4.5086">
        <ele>887.91479492188</ele>
        <time>2012-04-07T09:56:37Z</time>
      </trkpt>
      <trkpt lat="45.58802" lon="4.50903">
        <ele>889.35668945312</ele>
        <time>2012-04-07T09:56:48Z</time>
      </trkpt>
      <trkpt lat="45.58834" lon="4.50944">
        <ele>890.31811523438</ele>
        <time>2012-04-07T09:56:57Z</time>
      </trkpt>
      <trkpt lat="45.58868" lon="4.50995">
        <ele>891.279296875</ele>
        <time>2012-04-07T09:57:06Z</time>
      </trkpt>
      <trkpt lat="45.58903" lon="4.51046">
        <ele>889.83740234375</ele>
        <time>2012-04-07T09:57:14Z</time>
      </trkpt>
      <trkpt lat="45.58921" lon="4.51072">
        <ele>889.35668945312</ele>
        <time>2012-04-07T09:57:18Z</time>
      </trkpt>
      <trkpt lat="45.58963" lon="4.51117">
        <ele>887.91479492188</ele>
        <time>2012-04-07T09:57:26Z</time>
      </trkpt>
      <trkpt lat="45.58992" lon="4.51145">
        <ele>886.95336914062</ele>
        <time>2012-04-07T09:57:31Z</time>
      </trkpt>
      <trkpt lat="45.59008" lon="4.51177">
        <ele>885.9921875</ele>
        <time>2012-04-07T09:57:35Z</time>
      </trkpt>
      <trkpt lat="45.59013" lon="4.51221">
        <ele>884.55029296875</ele>
        <time>2012-04-07T09:57:41Z</time>
      </trkpt>
      <trkpt lat="45.59007" lon="4.5129">
        <ele>882.62768554688</ele>
        <time>2012-04-07T09:57:50Z</time>
      </trkpt>
      <trkpt lat="45.59006" lon="4.51297">
        <ele>882.62768554688</ele>
        <time>2012-04-07T09:57:51Z</time>
      </trkpt>
      <trkpt lat="45.5901" lon="4.51307">
        <ele>881.66625976562</ele>
        <time>2012-04-07T09:57:55Z</time>
      </trkpt>
      <trkpt lat="45.5901" lon="4.51306">
        <ele>882.14697265625</ele>
        <time>2012-04-07T09:58:00Z</time>
      </trkpt>
      <trkpt lat="45.5901" lon="4.51305">
        <ele>881.66625976562</ele>
        <time>2012-04-07T09:58:06Z</time>
      </trkpt>
      <trkpt lat="45.5901" lon="4.51304">
        <ele>882.14697265625</ele>
        <time>2012-04-07T09:58:10Z</time>
      </trkpt>
      <trkpt lat="45.5901" lon="4.51305">
        <ele>884.06958007812</ele>
        <time>2012-04-07T09:58:22Z</time>
      </trkpt>
      <trkpt lat="45.5901" lon="4.51306">
        <ele>884.06958007812</ele>
        <time>2012-04-07T09:58:27Z</time>
      </trkpt>
      <trkpt lat="45.59009" lon="4.51304">
        <ele>882.62768554688</ele>
        <time>2012-04-07T09:58:30Z</time>
      </trkpt>
      <trkpt lat="45.59009" lon="4.51283">
        <ele>881.66625976562</ele>
        <time>2012-04-07T09:58:35Z</time>
      </trkpt>
      <trkpt lat="45.5901" lon="4.51277">
        <ele>881.66625976562</ele>
        <time>2012-04-07T09:58:36Z</time>
      </trkpt>
      <trkpt lat="45.59016" lon="4.51212">
        <ele>882.62768554688</ele>
        <time>2012-04-07T09:58:46Z</time>
      </trkpt>
      <trkpt lat="45.59015" lon="4.51194">
        <ele>883.10815429688</ele>
        <time>2012-04-07T09:58:49Z</time>
      </trkpt>
      <trkpt lat="45.59011" lon="4.51171">
        <ele>883.5888671875</ele>
        <time>2012-04-07T09:58:53Z</time>
      </trkpt>
      <trkpt lat="45.59005" lon="4.51156">
        <ele>884.06958007812</ele>
        <time>2012-04-07T09:58:56Z</time>
      </trkpt>
      <trkpt lat="45.58983" lon="4.51129">
        <ele>885.9921875</ele>
        <time>2012-04-07T09:59:03Z</time>
      </trkpt>
      <trkpt lat="45.58955" lon="4.51102">
        <ele>887.43408203125</ele>
        <time>2012-04-07T09:59:11Z</time>
      </trkpt>
      <trkpt lat="45.58926" lon="4.5107">
        <ele>889.35668945312</ele>
        <time>2012-04-07T09:59:20Z</time>
      </trkpt>
      <trkpt lat="45.589" lon="4.51031">
        <ele>890.79858398438</ele>
        <time>2012-04-07T09:59:29Z</time>
      </trkpt>
      <trkpt lat="45.58894" lon="4.51023">
        <ele>890.79858398438</ele>
        <time>2012-04-07T09:59:31Z</time>
      </trkpt>
      <trkpt lat="45.58876" lon="4.50999">
        <ele>891.76000976562</ele>
        <time>2012-04-07T09:59:37Z</time>
      </trkpt>
      <trkpt lat="45.58852" lon="4.50961">
        <ele>891.279296875</ele>
        <time>2012-04-07T09:59:45Z</time>
      </trkpt>
      <trkpt lat="45.58817" lon="4.50915">
        <ele>891.76000976562</ele>
        <time>2012-04-07T09:59:56Z</time>
      </trkpt>
      <trkpt lat="45.58789" lon="4.50883">
        <ele>891.279296875</ele>
        <time>2012-04-07T10:00:03Z</time>
      </trkpt>
      <trkpt lat="45.58766" lon="4.50861">
        <ele>890.79858398438</ele>
        <time>2012-04-07T10:00:08Z</time>
      </trkpt>
      <trkpt lat="45.58743" lon="4.50852">
        <ele>889.35668945312</ele>
        <time>2012-04-07T10:00:12Z</time>
      </trkpt>
      <trkpt lat="45.58723" lon="4.50854">
        <ele>888.87622070312</ele>
        <time>2012-04-07T10:00:15Z</time>
      </trkpt>
      <trkpt lat="45.58717" lon="4.50846">
        <ele>888.87622070312</ele>
        <time>2012-04-07T10:00:17Z</time>
      </trkpt>
      <trkpt lat="45.58722" lon="4.50833">
        <ele>889.35668945312</ele>
        <time>2012-04-07T10:00:20Z</time>
      </trkpt>
      <trkpt lat="45.58739" lon="4.50804">
        <ele>892.24096679688</ele>
        <time>2012-04-07T10:00:28Z</time>
      </trkpt>
      <trkpt lat="45.58755" lon="4.50776">
        <ele>894.64404296875</ele>
        <time>2012-04-07T10:00:37Z</time>
      </trkpt>
      <trkpt lat="45.58767" lon="4.50747">
        <ele>897.52807617188</ele>
        <time>2012-04-07T10:00:46Z</time>
      </trkpt>
      <trkpt lat="45.58773" lon="4.50711">
        <ele>899.45068359375</ele>
        <time>2012-04-07T10:00:56Z</time>
      </trkpt>
      <trkpt lat="45.58783" lon="4.50671">
        <ele>900.412109375</ele>
        <time>2012-04-07T10:01:06Z</time>
      </trkpt>
      <trkpt lat="45.58797" lon="4.50632">
        <ele>900.892578125</ele>
        <time>2012-04-07T10:01:15Z</time>
      </trkpt>
      <trkpt lat="45.58802" lon="4.50606">
        <ele>900.892578125</ele>
        <time>2012-04-07T10:01:21Z</time>
      </trkpt>
      <trkpt lat="45.58792" lon="4.5058">
        <ele>900.892578125</ele>
        <time>2012-04-07T10:01:26Z</time>
      </trkpt>
      <trkpt lat="45.58768" lon="4.50538">
        <ele>902.33447265625</ele>
        <time>2012-04-07T10:01:33Z</time>
      </trkpt>
      <trkpt lat="45.58738" lon="4.50496">
        <ele>902.81518554688</ele>
        <time>2012-04-07T10:01:41Z</time>
      </trkpt>
      <trkpt lat="45.58725" lon="4.50484">
        <ele>903.2958984375</ele>
        <time>2012-04-07T10:01:44Z</time>
      </trkpt>
      <trkpt lat="45.58695" lon="4.50443">
        <ele>904.25732421875</ele>
        <time>2012-04-07T10:01:52Z</time>
      </trkpt>
      <trkpt lat="45.58672" lon="4.5041">
        <ele>905.21850585938</ele>
        <time>2012-04-07T10:01:58Z</time>
      </trkpt>
      <trkpt lat="45.58652" lon="4.50375">
        <ele>905.69921875</ele>
        <time>2012-04-07T10:02:04Z</time>
      </trkpt>
      <trkpt lat="45.58644" lon="4.50356">
        <ele>906.66040039062</ele>
        <time>2012-04-07T10:02:08Z</time>
      </trkpt>
      <trkpt lat="45.58642" lon="4.50334">
        <ele>907.62182617188</ele>
        <time>2012-04-07T10:02:14Z</time>
      </trkpt>
      <trkpt lat="45.58638" lon="4.50306">
        <ele>908.10278320312</ele>
        <time>2012-04-07T10:02:22Z</time>
      </trkpt>
      <trkpt lat="45.58633" lon="4.50285">
        <ele>909.54467773438</ele>
        <time>2012-04-07T10:02:28Z</time>
      </trkpt>
      <trkpt lat="45.58627" lon="4.50268">
        <ele>910.505859375</ele>
        <time>2012-04-07T10:02:34Z</time>
      </trkpt>
      <trkpt lat="45.58615" lon="4.50242">
        <ele>911.94799804688</ele>
        <time>2012-04-07T10:02:43Z</time>
      </trkpt>
      <trkpt lat="45.58603" lon="4.50217">
        <ele>913.87036132812</ele>
        <time>2012-04-07T10:02:52Z</time>
      </trkpt>
      <trkpt lat="45.5859" lon="4.50196">
        <ele>914.35107421875</ele>
        <time>2012-04-07T10:02:59Z</time>
      </trkpt>
      <trkpt lat="45.5857" lon="4.50161">
        <ele>913.87036132812</ele>
        <time>2012-04-07T10:03:08Z</time>
      </trkpt>
      <trkpt lat="45.58557" lon="4.50128">
        <ele>911.46728515625</ele>
        <time>2012-04-07T10:03:13Z</time>
      </trkpt>
      <trkpt lat="45.5854" lon="4.50075">
        <ele>906.66040039062</ele>
        <time>2012-04-07T10:03:19Z</time>
      </trkpt>
      <trkpt lat="45.58517" lon="4.50001">
        <ele>899.93139648438</ele>
        <time>2012-04-07T10:03:26Z</time>
      </trkpt>
      <trkpt lat="45.58493" lon="4.49929">
        <ele>895.12475585938</ele>
        <time>2012-04-07T10:03:33Z</time>
      </trkpt>
      <trkpt lat="45.58482" lon="4.49877">
        <ele>893.2021484375</ele>
        <time>2012-04-07T10:03:38Z</time>
      </trkpt>
      <trkpt lat="45.5847" lon="4.49823">
        <ele>891.279296875</ele>
        <time>2012-04-07T10:03:44Z</time>
      </trkpt>
      <trkpt lat="45.58464" lon="4.49787">
        <ele>888.87622070312</ele>
        <time>2012-04-07T10:03:48Z</time>
      </trkpt>
      <trkpt lat="45.58458" lon="4.4975">
        <ele>886.47290039062</ele>
        <time>2012-04-07T10:03:52Z</time>
      </trkpt>
      <trkpt lat="45.58444" lon="4.49708">
        <ele>881.66625976562</ele>
        <time>2012-04-07T10:03:57Z</time>
      </trkpt>
      <trkpt lat="45.58442" lon="4.49702">
        <ele>881.18579101562</ele>
        <time>2012-04-07T10:03:58Z</time>
      </trkpt>
      <trkpt lat="45.58439" lon="4.49696">
        <ele>879.26293945312</ele>
        <time>2012-04-07T10:04:01Z</time>
      </trkpt>
      <trkpt lat="45.58433" lon="4.4968">
        <ele>875.41748046875</ele>
        <time>2012-04-07T10:04:06Z</time>
      </trkpt>
      <trkpt lat="45.58429" lon="4.49647">
        <ele>870.61108398438</ele>
        <time>2012-04-07T10:04:10Z</time>
      </trkpt>
      <trkpt lat="45.58432" lon="4.49616">
        <ele>867.24658203125</ele>
        <time>2012-04-07T10:04:13Z</time>
      </trkpt>
      <trkpt lat="45.58432" lon="4.49581">
        <ele>863.8818359375</ele>
        <time>2012-04-07T10:04:17Z</time>
      </trkpt>
      <trkpt lat="45.58442" lon="4.49546">
        <ele>860.998046875</ele>
        <time>2012-04-07T10:04:21Z</time>
      </trkpt>
      <trkpt lat="45.58453" lon="4.49501">
        <ele>857.15258789062</ele>
        <time>2012-04-07T10:04:25Z</time>
      </trkpt>
      <trkpt lat="45.5846" lon="4.49473">
        <ele>853.30737304688</ele>
        <time>2012-04-07T10:04:28Z</time>
      </trkpt>
      <trkpt lat="45.58476" lon="4.49431">
        <ele>849.46215820312</ele>
        <time>2012-04-07T10:04:33Z</time>
      </trkpt>
      <trkpt lat="45.58491" lon="4.49423">
        <ele>847.05883789062</ele>
        <time>2012-04-07T10:04:36Z</time>
      </trkpt>
      <trkpt lat="45.58506" lon="4.49427">
        <ele>846.09765625</ele>
        <time>2012-04-07T10:04:39Z</time>
      </trkpt>
      <trkpt lat="45.58524" lon="4.49409">
        <ele>840.81005859375</ele>
        <time>2012-04-07T10:04:43Z</time>
      </trkpt>
      <trkpt lat="45.58521" lon="4.4938">
        <ele>837.44555664062</ele>
        <time>2012-04-07T10:04:46Z</time>
      </trkpt>
      <trkpt lat="45.58516" lon="4.4936">
        <ele>836.96484375</ele>
        <time>2012-04-07T10:04:48Z</time>
      </trkpt>
      <trkpt lat="45.58508" lon="4.49327">
        <ele>836.96484375</ele>
        <time>2012-04-07T10:04:51Z</time>
      </trkpt>
      <trkpt lat="45.585" lon="4.49271">
        <ele>836.00366210938</ele>
        <time>2012-04-07T10:04:56Z</time>
      </trkpt>
      <trkpt lat="45.58492" lon="4.4922">
        <ele>835.52294921875</ele>
        <time>2012-04-07T10:05:01Z</time>
      </trkpt>
      <trkpt lat="45.58489" lon="4.49166">
        <ele>834.56176757812</ele>
        <time>2012-04-07T10:05:07Z</time>
      </trkpt>
      <trkpt lat="45.58493" lon="4.49121">
        <ele>830.71655273438</ele>
        <time>2012-04-07T10:05:12Z</time>
      </trkpt>
      <trkpt lat="45.58491" lon="4.49086">
        <ele>830.71655273438</ele>
        <time>2012-04-07T10:05:16Z</time>
      </trkpt>
      <trkpt lat="45.58475" lon="4.49036">
        <ele>830.23583984375</ele>
        <time>2012-04-07T10:05:23Z</time>
      </trkpt>
      <trkpt lat="45.58452" lon="4.49008">
        <ele>830.23583984375</ele>
        <time>2012-04-07T10:05:29Z</time>
      </trkpt>
      <trkpt lat="45.58441" lon="4.48993">
        <ele>829.75512695312</ele>
        <time>2012-04-07T10:05:32Z</time>
      </trkpt>
      <trkpt lat="45.58436" lon="4.48963">
        <ele>828.31323242188</ele>
        <time>2012-04-07T10:05:36Z</time>
      </trkpt>
      <trkpt lat="45.5845" lon="4.48941">
        <ele>825.90966796875</ele>
        <time>2012-04-07T10:05:39Z</time>
      </trkpt>
      <trkpt lat="45.58474" lon="4.48911">
        <ele>823.50659179688</ele>
        <time>2012-04-07T10:05:44Z</time>
      </trkpt>
      <trkpt lat="45.58494" lon="4.48861">
        <ele>823.98706054688</ele>
        <time>2012-04-07T10:05:51Z</time>
      </trkpt>
      <trkpt lat="45.58508" lon="4.48823">
        <ele>825.42895507812</ele>
        <time>2012-04-07T10:05:58Z</time>
      </trkpt>
      <trkpt lat="45.58521" lon="4.48784">
        <ele>826.87109375</ele>
        <time>2012-04-07T10:06:06Z</time>
      </trkpt>
      <trkpt lat="45.58524" lon="4.48752">
        <ele>829.75512695312</ele>
        <time>2012-04-07T10:06:13Z</time>
      </trkpt>
      <trkpt lat="45.5852" lon="4.48723">
        <ele>832.63916015625</ele>
        <time>2012-04-07T10:06:20Z</time>
      </trkpt>
      <trkpt lat="45.58512" lon="4.48699">
        <ele>833.11962890625</ele>
        <time>2012-04-07T10:06:26Z</time>
      </trkpt>
      <trkpt lat="45.58495" lon="4.48667">
        <ele>832.63916015625</ele>
        <time>2012-04-07T10:06:32Z</time>
      </trkpt>
      <trkpt lat="45.58476" lon="4.48627">
        <ele>831.677734375</ele>
        <time>2012-04-07T10:06:38Z</time>
      </trkpt>
      <trkpt lat="45.58446" lon="4.48553">
        <ele>829.2744140625</ele>
        <time>2012-04-07T10:06:47Z</time>
      </trkpt>
      <trkpt lat="45.58418" lon="4.48484">
        <ele>825.90966796875</ele>
        <time>2012-04-07T10:06:54Z</time>
      </trkpt>
      <trkpt lat="45.58401" lon="4.48422">
        <ele>823.50659179688</ele>
        <time>2012-04-07T10:06:59Z</time>
      </trkpt>
      <trkpt lat="45.58397" lon="4.4841">
        <ele>823.50659179688</ele>
        <time>2012-04-07T10:07:00Z</time>
      </trkpt>
      <trkpt lat="45.58371" lon="4.4836">
        <ele>824.4677734375</ele>
        <time>2012-04-07T10:07:05Z</time>
      </trkpt>
      <trkpt lat="45.58333" lon="4.48314">
        <ele>823.98706054688</ele>
        <time>2012-04-07T10:07:11Z</time>
      </trkpt>
      <trkpt lat="45.5829" lon="4.48257">
        <ele>822.54516601562</ele>
        <time>2012-04-07T10:07:18Z</time>
      </trkpt>
      <trkpt lat="45.58274" lon="4.48215">
        <ele>821.58374023438</ele>
        <time>2012-04-07T10:07:22Z</time>
      </trkpt>
      <trkpt lat="45.5826" lon="4.48131">
        <ele>819.66137695312</ele>
        <time>2012-04-07T10:07:29Z</time>
      </trkpt>
      <trkpt lat="45.58256" lon="4.48058">
        <ele>819.1806640625</ele>
        <time>2012-04-07T10:07:35Z</time>
      </trkpt>
      <trkpt lat="45.58247" lon="4.47979">
        <ele>819.1806640625</ele>
        <time>2012-04-07T10:07:42Z</time>
      </trkpt>
      <trkpt lat="45.58234" lon="4.47883">
        <ele>817.73852539062</ele>
        <time>2012-04-07T10:07:51Z</time>
      </trkpt>
      <trkpt lat="45.58224" lon="4.47795">
        <ele>816.29663085938</ele>
        <time>2012-04-07T10:07:59Z</time>
      </trkpt>
      <trkpt lat="45.58216" lon="4.47699">
        <ele>816.29663085938</ele>
        <time>2012-04-07T10:08:08Z</time>
      </trkpt>
      <trkpt lat="45.58218" lon="4.47617">
        <ele>817.73852539062</ele>
        <time>2012-04-07T10:08:16Z</time>
      </trkpt>
      <trkpt lat="45.58221" lon="4.47543">
        <ele>818.21923828125</ele>
        <time>2012-04-07T10:08:24Z</time>
      </trkpt>
      <trkpt lat="45.58221" lon="4.47534">
        <ele>818.21923828125</ele>
        <time>2012-04-07T10:08:25Z</time>
      </trkpt>
      <trkpt lat="45.58232" lon="4.47494">
        <ele>815.33544921875</ele>
        <time>2012-04-07T10:08:29Z</time>
      </trkpt>
      <trkpt lat="45.58255" lon="4.47436">
        <ele>810.0478515625</ele>
        <time>2012-04-07T10:08:34Z</time>
      </trkpt>
      <trkpt lat="45.58276" lon="4.47378">
        <ele>804.2802734375</ele>
        <time>2012-04-07T10:08:38Z</time>
      </trkpt>
      <trkpt lat="45.5828" lon="4.47362">
        <ele>803.31884765625</ele>
        <time>2012-04-07T10:08:39Z</time>
      </trkpt>
      <trkpt lat="45.58288" lon="4.47296">
        <ele>800.91552734375</ele>
        <time>2012-04-07T10:08:43Z</time>
      </trkpt>
      <trkpt lat="45.58287" lon="4.4728">
        <ele>800.43505859375</ele>
        <time>2012-04-07T10:08:44Z</time>
      </trkpt>
      <trkpt lat="45.5828" lon="4.47225">
        <ele>800.91552734375</ele>
        <time>2012-04-07T10:08:48Z</time>
      </trkpt>
      <trkpt lat="45.58279" lon="4.47169">
        <ele>800.91552734375</ele>
        <time>2012-04-07T10:08:53Z</time>
      </trkpt>
      <trkpt lat="45.5828" lon="4.47159">
        <ele>800.91552734375</ele>
        <time>2012-04-07T10:08:54Z</time>
      </trkpt>
      <trkpt lat="45.58296" lon="4.47094">
        <ele>798.99291992188</ele>
        <time>2012-04-07T10:09:01Z</time>
      </trkpt>
      <trkpt lat="45.58318" lon="4.47029">
        <ele>796.10913085938</ele>
        <time>2012-04-07T10:09:07Z</time>
      </trkpt>
      <trkpt lat="45.58348" lon="4.46947">
        <ele>791.78295898438</ele>
        <time>2012-04-07T10:09:14Z</time>
      </trkpt>
      <trkpt lat="45.58369" lon="4.46901">
        <ele>790.34106445312</ele>
        <time>2012-04-07T10:09:18Z</time>
      </trkpt>
      <trkpt lat="45.58396" lon="4.46868">
        <ele>788.89916992188</ele>
        <time>2012-04-07T10:09:22Z</time>
      </trkpt>
      <trkpt lat="45.58404" lon="4.46863">
        <ele>788.41845703125</ele>
        <time>2012-04-07T10:09:23Z</time>
      </trkpt>
      <trkpt lat="45.58485" lon="4.46823">
        <ele>785.05395507812</ele>
        <time>2012-04-07T10:09:32Z</time>
      </trkpt>
      <trkpt lat="45.58524" lon="4.46793">
        <ele>784.09252929688</ele>
        <time>2012-04-07T10:09:37Z</time>
      </trkpt>
      <trkpt lat="45.58553" lon="4.4677">
        <ele>783.13110351562</ele>
        <time>2012-04-07T10:09:41Z</time>
      </trkpt>
      <trkpt lat="45.58577" lon="4.4677">
        <ele>782.65063476562</ele>
        <time>2012-04-07T10:09:45Z</time>
      </trkpt>
      <trkpt lat="45.58583" lon="4.46798">
        <ele>781.68920898438</ele>
        <time>2012-04-07T10:09:48Z</time>
      </trkpt>
      <trkpt lat="45.58584" lon="4.4682">
        <ele>780.72802734375</ele>
        <time>2012-04-07T10:09:50Z</time>
      </trkpt>
      <trkpt lat="45.58579" lon="4.46866">
        <ele>776.88256835938</ele>
        <time>2012-04-07T10:09:54Z</time>
      </trkpt>
      <trkpt lat="45.58558" lon="4.46887">
        <ele>773.99853515625</ele>
        <time>2012-04-07T10:09:57Z</time>
      </trkpt>
      <trkpt lat="45.58533" lon="4.46902">
        <ele>769.6728515625</ele>
        <time>2012-04-07T10:10:00Z</time>
      </trkpt>
      <trkpt lat="45.58516" lon="4.4692">
        <ele>767.75</ele>
        <time>2012-04-07T10:10:02Z</time>
      </trkpt>
      <trkpt lat="45.58501" lon="4.46954">
        <ele>764.38549804688</ele>
        <time>2012-04-07T10:10:05Z</time>
      </trkpt>
      <trkpt lat="45.58504" lon="4.46995">
        <ele>762.943359375</ele>
        <time>2012-04-07T10:10:08Z</time>
      </trkpt>
      <trkpt lat="45.58522" lon="4.47084">
        <ele>762.46264648438</ele>
        <time>2012-04-07T10:10:15Z</time>
      </trkpt>
      <trkpt lat="45.58541" lon="4.47134">
        <ele>763.42407226562</ele>
        <time>2012-04-07T10:10:20Z</time>
      </trkpt>
      <trkpt lat="45.58544" lon="4.47143">
        <ele>763.90454101562</ele>
        <time>2012-04-07T10:10:21Z</time>
      </trkpt>
      <trkpt lat="45.58556" lon="4.47206">
        <ele>764.38549804688</ele>
        <time>2012-04-07T10:10:28Z</time>
      </trkpt>
      <trkpt lat="45.58572" lon="4.4729">
        <ele>765.34692382812</ele>
        <time>2012-04-07T10:10:38Z</time>
      </trkpt>
      <trkpt lat="45.58579" lon="4.47332">
        <ele>765.82763671875</ele>
        <time>2012-04-07T10:10:44Z</time>
      </trkpt>
      <trkpt lat="45.58585" lon="4.47385">
        <ele>765.34692382812</ele>
        <time>2012-04-07T10:10:52Z</time>
      </trkpt>
      <trkpt lat="45.58587" lon="4.47435">
        <ele>765.34692382812</ele>
        <time>2012-04-07T10:11:00Z</time>
      </trkpt>
      <trkpt lat="45.58586" lon="4.47466">
        <ele>766.30810546875</ele>
        <time>2012-04-07T10:11:05Z</time>
      </trkpt>
      <trkpt lat="45.5858" lon="4.47516">
        <ele>768.71142578125</ele>
        <time>2012-04-07T10:11:13Z</time>
      </trkpt>
      <trkpt lat="45.58574" lon="4.4754">
        <ele>766.30810546875</ele>
        <time>2012-04-07T10:11:17Z</time>
      </trkpt>
      <trkpt lat="45.58569" lon="4.47552">
        <ele>765.82763671875</ele>
        <time>2012-04-07T10:11:19Z</time>
      </trkpt>
      <trkpt lat="45.58551" lon="4.47579">
        <ele>767.75</ele>
        <time>2012-04-07T10:11:23Z</time>
      </trkpt>
      <trkpt lat="45.58547" lon="4.47611">
        <ele>765.82763671875</ele>
        <time>2012-04-07T10:11:26Z</time>
      </trkpt>
      <trkpt lat="45.58551" lon="4.47624">
        <ele>765.34692382812</ele>
        <time>2012-04-07T10:11:27Z</time>
      </trkpt>
      <trkpt lat="45.58578" lon="4.47679">
        <ele>762.943359375</ele>
        <time>2012-04-07T10:11:31Z</time>
      </trkpt>
      <trkpt lat="45.58594" lon="4.47733">
        <ele>757.65625</ele>
        <time>2012-04-07T10:11:35Z</time>
      </trkpt>
      <trkpt lat="45.58581" lon="4.47763">
        <ele>754.29174804688</ele>
        <time>2012-04-07T10:11:38Z</time>
      </trkpt>
      <trkpt lat="45.58575" lon="4.4777">
        <ele>754.77221679688</ele>
        <time>2012-04-07T10:11:39Z</time>
      </trkpt>
      <trkpt lat="45.58548" lon="4.47808">
        <ele>754.77221679688</ele>
        <time>2012-04-07T10:11:45Z</time>
      </trkpt>
      <trkpt lat="45.58541" lon="4.47818">
        <ele>755.2529296875</ele>
        <time>2012-04-07T10:11:47Z</time>
      </trkpt>
      <trkpt lat="45.58537" lon="4.47829">
        <ele>755.73364257812</ele>
        <time>2012-04-07T10:11:49Z</time>
      </trkpt>
      <trkpt lat="45.58533" lon="4.47851">
        <ele>758.13696289062</ele>
        <time>2012-04-07T10:11:53Z</time>
      </trkpt>
      <trkpt lat="45.58537" lon="4.47863">
        <ele>760.5400390625</ele>
        <time>2012-04-07T10:11:56Z</time>
      </trkpt>
      <trkpt lat="45.58556" lon="4.47901">
        <ele>765.34692382812</ele>
        <time>2012-04-07T10:12:07Z</time>
      </trkpt>
      <trkpt lat="45.58572" lon="4.4792">
        <ele>767.26953125</ele>
        <time>2012-04-07T10:12:14Z</time>
      </trkpt>
      <trkpt lat="45.58601" lon="4.47945">
        <ele>768.71142578125</ele>
        <time>2012-04-07T10:12:24Z</time>
      </trkpt>
      <trkpt lat="45.5863" lon="4.47963">
        <ele>769.6728515625</ele>
        <time>2012-04-07T10:12:32Z</time>
      </trkpt>
      <trkpt lat="45.58656" lon="4.47975">
        <ele>768.71142578125</ele>
        <time>2012-04-07T10:12:38Z</time>
      </trkpt>
      <trkpt lat="45.58688" lon="4.47995">
        <ele>767.26953125</ele>
        <time>2012-04-07T10:12:44Z</time>
      </trkpt>
      <trkpt lat="45.5871" lon="4.48009">
        <ele>766.78881835938</ele>
        <time>2012-04-07T10:12:48Z</time>
      </trkpt>
      <trkpt lat="45.58735" lon="4.48017">
        <ele>764.8662109375</ele>
        <time>2012-04-07T10:12:52Z</time>
      </trkpt>
      <trkpt lat="45.58764" lon="4.48036">
        <ele>761.02075195312</ele>
        <time>2012-04-07T10:12:56Z</time>
      </trkpt>
      <trkpt lat="45.58778" lon="4.4805">
        <ele>760.05932617188</ele>
        <time>2012-04-07T10:12:58Z</time>
      </trkpt>
      <trkpt lat="45.58805" lon="4.48055">
        <ele>758.13696289062</ele>
        <time>2012-04-07T10:13:02Z</time>
      </trkpt>
      <trkpt lat="45.58823" lon="4.48049">
        <ele>758.13696289062</ele>
        <time>2012-04-07T10:13:06Z</time>
      </trkpt>
      <trkpt lat="45.58825" lon="4.48047">
        <ele>757.65625</ele>
        <time>2012-04-07T10:13:07Z</time>
      </trkpt>
      <trkpt lat="45.58834" lon="4.48051">
        <ele>758.13696289062</ele>
        <time>2012-04-07T10:13:12Z</time>
      </trkpt>
      <trkpt lat="45.58839" lon="4.48054">
        <ele>758.13696289062</ele>
        <time>2012-04-07T10:13:14Z</time>
      </trkpt>
      <trkpt lat="45.58856" lon="4.48057">
        <ele>759.57885742188</ele>
        <time>2012-04-07T10:13:21Z</time>
      </trkpt>
      <trkpt lat="45.58867" lon="4.48058">
        <ele>761.50146484375</ele>
        <time>2012-04-07T10:13:26Z</time>
      </trkpt>
      <trkpt lat="45.58868" lon="4.48058">
        <ele>761.98217773438</ele>
        <time>2012-04-07T10:13:27Z</time>
      </trkpt>
      <trkpt lat="45.58861" lon="4.48052">
        <ele>761.02075195312</ele>
        <time>2012-04-07T10:14:35Z</time>
      </trkpt>
      <trkpt lat="45.58862" lon="4.48052">
        <ele>761.02075195312</ele>
        <time>2012-04-07T10:14:36Z</time>
      </trkpt>
      <trkpt lat="45.58873" lon="4.48055">
        <ele>763.90454101562</ele>
        <time>2012-04-07T10:14:40Z</time>
      </trkpt>
      <trkpt lat="45.58898" lon="4.48068">
        <ele>767.26953125</ele>
        <time>2012-04-07T10:14:49Z</time>
      </trkpt>
      <trkpt lat="45.58916" lon="4.48085">
        <ele>770.1533203125</ele>
        <time>2012-04-07T10:14:57Z</time>
      </trkpt>
      <trkpt lat="45.5893" lon="4.48102">
        <ele>772.556640625</ele>
        <time>2012-04-07T10:15:04Z</time>
      </trkpt>
      <trkpt lat="45.58939" lon="4.48132">
        <ele>774.47924804688</ele>
        <time>2012-04-07T10:15:13Z</time>
      </trkpt>
      <trkpt lat="45.5894" lon="4.48163">
        <ele>775.92114257812</ele>
        <time>2012-04-07T10:15:22Z</time>
      </trkpt>
      <trkpt lat="45.58938" lon="4.48168">
        <ele>774.9599609375</ele>
        <time>2012-04-07T10:15:26Z</time>
      </trkpt>
      <trkpt lat="45.58939" lon="4.48167">
        <ele>775.4404296875</ele>
        <time>2012-04-07T10:15:34Z</time>
      </trkpt>
      <trkpt lat="45.58939" lon="4.48167">
        <ele>774.9599609375</ele>
        <time>2012-04-07T10:15:39Z</time>
      </trkpt>
      <trkpt lat="45.5894" lon="4.48166">
        <ele>775.4404296875</ele>
        <time>2012-04-07T10:15:47Z</time>
      </trkpt>
      <trkpt lat="45.58943" lon="4.48169">
        <ele>776.40185546875</ele>
        <time>2012-04-07T10:15:56Z</time>
      </trkpt>
      <trkpt lat="45.58949" lon="4.48181">
        <ele>778.32446289062</ele>
        <time>2012-04-07T10:16:01Z</time>
      </trkpt>
      <trkpt lat="45.58951" lon="4.48208">
        <ele>780.72802734375</ele>
        <time>2012-04-07T10:16:07Z</time>
      </trkpt>
      <trkpt lat="45.58955" lon="4.48243">
        <ele>777.84375</ele>
        <time>2012-04-07T10:16:13Z</time>
      </trkpt>
      <trkpt lat="45.58958" lon="4.48285">
        <ele>774.47924804688</ele>
        <time>2012-04-07T10:16:19Z</time>
      </trkpt>
      <trkpt lat="45.58959" lon="4.4836">
        <ele>770.63403320312</ele>
        <time>2012-04-07T10:16:28Z</time>
      </trkpt>
      <trkpt lat="45.58963" lon="4.48411">
        <ele>771.11474609375</ele>
        <time>2012-04-07T10:16:35Z</time>
      </trkpt>
      <trkpt lat="45.58964" lon="4.48416">
        <ele>771.59521484375</ele>
        <time>2012-04-07T10:16:36Z</time>
      </trkpt>
      <trkpt lat="45.58967" lon="4.48433">
        <ele>772.556640625</ele>
        <time>2012-04-07T10:16:40Z</time>
      </trkpt>
      <trkpt lat="45.58975" lon="4.48476">
        <ele>775.92114257812</ele>
        <time>2012-04-07T10:16:48Z</time>
      </trkpt>
      <trkpt lat="45.5898" lon="4.48511">
        <ele>777.36328125</ele>
        <time>2012-04-07T10:16:55Z</time>
      </trkpt>
      <trkpt lat="45.58984" lon="4.48554">
        <ele>779.28564453125</ele>
        <time>2012-04-07T10:17:05Z</time>
      </trkpt>
      <trkpt lat="45.58987" lon="4.48599">
        <ele>786.01513671875</ele>
        <time>2012-04-07T10:17:15Z</time>
      </trkpt>
      <trkpt lat="45.58989" lon="4.4863">
        <ele>788.89916992188</ele>
        <time>2012-04-07T10:17:22Z</time>
      </trkpt>
      <trkpt lat="45.58988" lon="4.48653">
        <ele>791.78295898438</ele>
        <time>2012-04-07T10:17:27Z</time>
      </trkpt>
      <trkpt lat="45.58988" lon="4.4869">
        <ele>797.55102539062</ele>
        <time>2012-04-07T10:17:34Z</time>
      </trkpt>
      <trkpt lat="45.5899" lon="4.48721">
        <ele>800.43505859375</ele>
        <time>2012-04-07T10:17:39Z</time>
      </trkpt>
      <trkpt lat="45.58989" lon="4.48727">
        <ele>799.95434570312</ele>
        <time>2012-04-07T10:17:40Z</time>
      </trkpt>
      <trkpt lat="45.58987" lon="4.48766">
        <ele>798.51220703125</ele>
        <time>2012-04-07T10:17:46Z</time>
      </trkpt>
      <trkpt lat="45.58989" lon="4.48791">
        <ele>796.58984375</ele>
        <time>2012-04-07T10:17:50Z</time>
      </trkpt>
      <trkpt lat="45.58989" lon="4.48848">
        <ele>794.18627929688</ele>
        <time>2012-04-07T10:17:58Z</time>
      </trkpt>
      <trkpt lat="45.58989" lon="4.48856">
        <ele>793.70556640625</ele>
        <time>2012-04-07T10:17:59Z</time>
      </trkpt>
      <trkpt lat="45.58993" lon="4.48887">
        <ele>790.34106445312</ele>
        <time>2012-04-07T10:18:02Z</time>
      </trkpt>
      <trkpt lat="45.58989" lon="4.48938">
        <ele>783.61181640625</ele>
        <time>2012-04-07T10:18:06Z</time>
      </trkpt>
      <trkpt lat="45.58989" lon="4.48997">
        <ele>779.76635742188</ele>
        <time>2012-04-07T10:18:10Z</time>
      </trkpt>
      <trkpt lat="45.58994" lon="4.4901">
        <ele>779.28564453125</ele>
        <time>2012-04-07T10:18:11Z</time>
      </trkpt>
      <trkpt lat="45.59009" lon="4.49056">
        <ele>777.84375</ele>
        <time>2012-04-07T10:18:15Z</time>
      </trkpt>
      <trkpt lat="45.59009" lon="4.49108">
        <ele>776.40185546875</ele>
        <time>2012-04-07T10:18:20Z</time>
      </trkpt>
      <trkpt lat="45.58997" lon="4.4915">
        <ele>773.51806640625</ele>
        <time>2012-04-07T10:18:24Z</time>
      </trkpt>
      <trkpt lat="45.59006" lon="4.49181">
        <ele>772.556640625</ele>
        <time>2012-04-07T10:18:27Z</time>
      </trkpt>
      <trkpt lat="45.59024" lon="4.49201">
        <ele>774.47924804688</ele>
        <time>2012-04-07T10:18:30Z</time>
      </trkpt>
      <trkpt lat="45.59034" lon="4.49226">
        <ele>775.92114257812</ele>
        <time>2012-04-07T10:18:34Z</time>
      </trkpt>
      <trkpt lat="45.59036" lon="4.49242">
        <ele>776.40185546875</ele>
        <time>2012-04-07T10:18:37Z</time>
      </trkpt>
      <trkpt lat="45.59038" lon="4.49282">
        <ele>777.36328125</ele>
        <time>2012-04-07T10:18:45Z</time>
      </trkpt>
      <trkpt lat="45.59042" lon="4.49321">
        <ele>777.84375</ele>
        <time>2012-04-07T10:18:53Z</time>
      </trkpt>
      <trkpt lat="45.59049" lon="4.49369">
        <ele>777.84375</ele>
        <time>2012-04-07T10:19:02Z</time>
      </trkpt>
      <trkpt lat="45.59056" lon="4.49384">
        <ele>778.32446289062</ele>
        <time>2012-04-07T10:19:05Z</time>
      </trkpt>
      <trkpt lat="45.59077" lon="4.49389">
        <ele>779.28564453125</ele>
        <time>2012-04-07T10:19:10Z</time>
      </trkpt>
      <trkpt lat="45.59121" lon="4.49373">
        <ele>782.65063476562</ele>
        <time>2012-04-07T10:19:21Z</time>
      </trkpt>
      <trkpt lat="45.5914" lon="4.49361">
        <ele>784.09252929688</ele>
        <time>2012-04-07T10:19:27Z</time>
      </trkpt>
      <trkpt lat="45.59158" lon="4.49339">
        <ele>786.01513671875</ele>
        <time>2012-04-07T10:19:35Z</time>
      </trkpt>
      <trkpt lat="45.59176" lon="4.49324">
        <ele>788.41845703125</ele>
        <time>2012-04-07T10:19:43Z</time>
      </trkpt>
      <trkpt lat="45.59194" lon="4.49319">
        <ele>790.34106445312</ele>
        <time>2012-04-07T10:19:51Z</time>
      </trkpt>
      <trkpt lat="45.5921" lon="4.49313">
        <ele>792.263671875</ele>
        <time>2012-04-07T10:19:59Z</time>
      </trkpt>
      <trkpt lat="45.59227" lon="4.49307">
        <ele>795.62817382812</ele>
        <time>2012-04-07T10:20:08Z</time>
      </trkpt>
      <trkpt lat="45.59238" lon="4.49294">
        <ele>797.0703125</ele>
        <time>2012-04-07T10:20:15Z</time>
      </trkpt>
      <trkpt lat="45.59241" lon="4.49273">
        <ele>797.0703125</ele>
        <time>2012-04-07T10:20:22Z</time>
      </trkpt>
      <trkpt lat="45.59245" lon="4.49252">
        <ele>797.0703125</ele>
        <time>2012-04-07T10:20:29Z</time>
      </trkpt>
      <trkpt lat="45.5925" lon="4.4923">
        <ele>795.1474609375</ele>
        <time>2012-04-07T10:20:36Z</time>
      </trkpt>
      <trkpt lat="45.59254" lon="4.49183">
        <ele>795.62817382812</ele>
        <time>2012-04-07T10:20:48Z</time>
      </trkpt>
      <trkpt lat="45.59262" lon="4.49165">
        <ele>795.62817382812</ele>
        <time>2012-04-07T10:20:52Z</time>
      </trkpt>
      <trkpt lat="45.59273" lon="4.49142">
        <ele>796.58984375</ele>
        <time>2012-04-07T10:20:58Z</time>
      </trkpt>
      <trkpt lat="45.59285" lon="4.49133">
        <ele>798.51220703125</ele>
        <time>2012-04-07T10:21:03Z</time>
      </trkpt>
      <trkpt lat="45.59305" lon="4.49132">
        <ele>806.20263671875</ele>
        <time>2012-04-07T10:21:12Z</time>
      </trkpt>
      <trkpt lat="45.59324" lon="4.49127">
        <ele>808.60595703125</ele>
        <time>2012-04-07T10:21:21Z</time>
      </trkpt>
      <trkpt lat="45.59341" lon="4.49122">
        <ele>810.0478515625</ele>
        <time>2012-04-07T10:21:28Z</time>
      </trkpt>
      <trkpt lat="45.59362" lon="4.49125">
        <ele>810.52856445312</ele>
        <time>2012-04-07T10:21:35Z</time>
      </trkpt>
      <trkpt lat="45.59379" lon="4.49131">
        <ele>810.0478515625</ele>
        <time>2012-04-07T10:21:40Z</time>
      </trkpt>
      <trkpt lat="45.59399" lon="4.49132">
        <ele>808.60595703125</ele>
        <time>2012-04-07T10:21:44Z</time>
      </trkpt>
      <trkpt lat="45.59411" lon="4.49129">
        <ele>807.64477539062</ele>
        <time>2012-04-07T10:21:46Z</time>
      </trkpt>
      <trkpt lat="45.59457" lon="4.49128">
        <ele>803.31884765625</ele>
        <time>2012-04-07T10:21:52Z</time>
      </trkpt>
      <trkpt lat="45.59504" lon="4.49133">
        <ele>800.91552734375</ele>
        <time>2012-04-07T10:21:58Z</time>
      </trkpt>
      <trkpt lat="45.59511" lon="4.49134">
        <ele>800.91552734375</ele>
        <time>2012-04-07T10:21:59Z</time>
      </trkpt>
      <trkpt lat="45.5956" lon="4.4912">
        <ele>795.62817382812</ele>
        <time>2012-04-07T10:22:05Z</time>
      </trkpt>
      <trkpt lat="45.59631" lon="4.49097">
        <ele>790.34106445312</ele>
        <time>2012-04-07T10:22:13Z</time>
      </trkpt>
      <trkpt lat="45.59688" lon="4.49074">
        <ele>789.37963867188</ele>
        <time>2012-04-07T10:22:20Z</time>
      </trkpt>
      <trkpt lat="45.59719" lon="4.49057">
        <ele>789.37963867188</ele>
        <time>2012-04-07T10:22:25Z</time>
      </trkpt>
      <trkpt lat="45.59741" lon="4.49045">
        <ele>790.82153320312</ele>
        <time>2012-04-07T10:22:30Z</time>
      </trkpt>
      <trkpt lat="45.59768" lon="4.49036">
        <ele>792.263671875</ele>
        <time>2012-04-07T10:22:38Z</time>
      </trkpt>
      <trkpt lat="45.59796" lon="4.49031">
        <ele>793.70556640625</ele>
        <time>2012-04-07T10:22:47Z</time>
      </trkpt>
      <trkpt lat="45.5982" lon="4.49027">
        <ele>792.263671875</ele>
        <time>2012-04-07T10:22:53Z</time>
      </trkpt>
      <trkpt lat="45.5983" lon="4.49026">
        <ele>790.82153320312</ele>
        <time>2012-04-07T10:22:55Z</time>
      </trkpt>
      <trkpt lat="45.5987" lon="4.49039">
        <ele>786.97631835938</ele>
        <time>2012-04-07T10:23:01Z</time>
      </trkpt>
      <trkpt lat="45.59909" lon="4.49065">
        <ele>782.65063476562</ele>
        <time>2012-04-07T10:23:06Z</time>
      </trkpt>
      <trkpt lat="45.59952" lon="4.49091">
        <ele>777.84375</ele>
        <time>2012-04-07T10:23:11Z</time>
      </trkpt>
      <trkpt lat="45.60001" lon="4.49129">
        <ele>772.556640625</ele>
        <time>2012-04-07T10:23:17Z</time>
      </trkpt>
      <trkpt lat="45.60042" lon="4.49163">
        <ele>766.78881835938</ele>
        <time>2012-04-07T10:23:24Z</time>
      </trkpt>
      <trkpt lat="45.60063" lon="4.49181">
        <ele>761.98217773438</ele>
        <time>2012-04-07T10:23:29Z</time>
      </trkpt>
      <trkpt lat="45.60086" lon="4.49203">
        <ele>756.21411132812</ele>
        <time>2012-04-07T10:23:34Z</time>
      </trkpt>
      <trkpt lat="45.60091" lon="4.49208">
        <ele>754.77221679688</ele>
        <time>2012-04-07T10:23:35Z</time>
      </trkpt>
      <trkpt lat="45.60123" lon="4.49245">
        <ele>747.56225585938</ele>
        <time>2012-04-07T10:23:41Z</time>
      </trkpt>
      <trkpt lat="45.60132" lon="4.49257">
        <ele>745.6396484375</ele>
        <time>2012-04-07T10:23:43Z</time>
      </trkpt>
      <trkpt lat="45.60135" lon="4.49276">
        <ele>743.71704101562</ele>
        <time>2012-04-07T10:23:46Z</time>
      </trkpt>
      <trkpt lat="45.60123" lon="4.49291">
        <ele>742.27514648438</ele>
        <time>2012-04-07T10:23:49Z</time>
      </trkpt>
      <trkpt lat="45.60105" lon="4.49296">
        <ele>740.3525390625</ele>
        <time>2012-04-07T10:23:52Z</time>
      </trkpt>
      <trkpt lat="45.60091" lon="4.49299">
        <ele>739.39111328125</ele>
        <time>2012-04-07T10:23:54Z</time>
      </trkpt>
      <trkpt lat="45.60052" lon="4.49315">
        <ele>736.98779296875</ele>
        <time>2012-04-07T10:23:59Z</time>
      </trkpt>
      <trkpt lat="45.60029" lon="4.49346">
        <ele>734.58471679688</ele>
        <time>2012-04-07T10:24:03Z</time>
      </trkpt>
      <trkpt lat="45.60033" lon="4.49382">
        <ele>733.142578125</ele>
        <time>2012-04-07T10:24:06Z</time>
      </trkpt>
      <trkpt lat="45.60041" lon="4.49405">
        <ele>731.70043945312</ele>
        <time>2012-04-07T10:24:08Z</time>
      </trkpt>
      <trkpt lat="45.60075" lon="4.49479">
        <ele>729.77783203125</ele>
        <time>2012-04-07T10:24:15Z</time>
      </trkpt>
      <trkpt lat="45.60103" lon="4.49542">
        <ele>729.77783203125</ele>
        <time>2012-04-07T10:24:22Z</time>
      </trkpt>
      <trkpt lat="45.60127" lon="4.496">
        <ele>728.3359375</ele>
        <time>2012-04-07T10:24:29Z</time>
      </trkpt>
      <trkpt lat="45.60147" lon="4.49645">
        <ele>727.85522460938</ele>
        <time>2012-04-07T10:24:35Z</time>
      </trkpt>
      <trkpt lat="45.60173" lon="4.49692">
        <ele>728.3359375</ele>
        <time>2012-04-07T10:24:42Z</time>
      </trkpt>
      <trkpt lat="45.60204" lon="4.49734">
        <ele>728.3359375</ele>
        <time>2012-04-07T10:24:49Z</time>
      </trkpt>
      <trkpt lat="45.60224" lon="4.49755">
        <ele>728.81665039062</ele>
        <time>2012-04-07T10:24:53Z</time>
      </trkpt>
      <trkpt lat="45.60254" lon="4.49793">
        <ele>728.81665039062</ele>
        <time>2012-04-07T10:25:00Z</time>
      </trkpt>
      <trkpt lat="45.60257" lon="4.498">
        <ele>728.81665039062</ele>
        <time>2012-04-07T10:25:01Z</time>
      </trkpt>
      <trkpt lat="45.60272" lon="4.49839">
        <ele>731.21997070312</ele>
        <time>2012-04-07T10:25:07Z</time>
      </trkpt>
      <trkpt lat="45.60277" lon="4.49858">
        <ele>732.18139648438</ele>
        <time>2012-04-07T10:25:10Z</time>
      </trkpt>
      <trkpt lat="45.60291" lon="4.49903">
        <ele>730.7392578125</ele>
        <time>2012-04-07T10:25:16Z</time>
      </trkpt>
      <trkpt lat="45.60312" lon="4.49954">
        <ele>727.85522460938</ele>
        <time>2012-04-07T10:25:21Z</time>
      </trkpt>
      <trkpt lat="45.6032" lon="4.50004">
        <ele>725.45190429688</ele>
        <time>2012-04-07T10:25:25Z</time>
      </trkpt>
      <trkpt lat="45.60306" lon="4.50033">
        <ele>724.01000976562</ele>
        <time>2012-04-07T10:25:28Z</time>
      </trkpt>
      <trkpt lat="45.60291" lon="4.50042">
        <ele>724.01000976562</ele>
        <time>2012-04-07T10:25:30Z</time>
      </trkpt>
      <trkpt lat="45.60248" lon="4.50069">
        <ele>723.52954101562</ele>
        <time>2012-04-07T10:25:37Z</time>
      </trkpt>
      <trkpt lat="45.60212" lon="4.50098">
        <ele>721.60668945312</ele>
        <time>2012-04-07T10:25:43Z</time>
      </trkpt>
      <trkpt lat="45.6017" lon="4.50112">
        <ele>720.6455078125</ele>
        <time>2012-04-07T10:25:49Z</time>
      </trkpt>
      <trkpt lat="45.60155" lon="4.50116">
        <ele>719.68432617188</ele>
        <time>2012-04-07T10:25:51Z</time>
      </trkpt>
      <trkpt lat="45.60123" lon="4.50138">
        <ele>719.20361328125</ele>
        <time>2012-04-07T10:25:56Z</time>
      </trkpt>
      <trkpt lat="45.6011" lon="4.50168">
        <ele>719.68432617188</ele>
        <time>2012-04-07T10:26:00Z</time>
      </trkpt>
      <trkpt lat="45.60115" lon="4.50189">
        <ele>721.12622070312</ele>
        <time>2012-04-07T10:26:03Z</time>
      </trkpt>
      <trkpt lat="45.6013" lon="4.50198">
        <ele>722.56811523438</ele>
        <time>2012-04-07T10:26:06Z</time>
      </trkpt>
      <trkpt lat="45.60165" lon="4.5021">
        <ele>724.97143554688</ele>
        <time>2012-04-07T10:26:14Z</time>
      </trkpt>
      <trkpt lat="45.60204" lon="4.50233">
        <ele>726.89404296875</ele>
        <time>2012-04-07T10:26:24Z</time>
      </trkpt>
      <trkpt lat="45.6024" lon="4.50253">
        <ele>728.3359375</ele>
        <time>2012-04-07T10:26:33Z</time>
      </trkpt>
      <trkpt lat="45.60274" lon="4.5027">
        <ele>729.77783203125</ele>
        <time>2012-04-07T10:26:41Z</time>
      </trkpt>
      <trkpt lat="45.603" lon="4.50286">
        <ele>730.25854492188</ele>
        <time>2012-04-07T10:26:47Z</time>
      </trkpt>
      <trkpt lat="45.60354" lon="4.50315">
        <ele>729.29711914062</ele>
        <time>2012-04-07T10:26:58Z</time>
      </trkpt>
      <trkpt lat="45.60395" lon="4.50336">
        <ele>729.29711914062</ele>
        <time>2012-04-07T10:27:06Z</time>
      </trkpt>
      <trkpt lat="45.60435" lon="4.5035">
        <ele>731.21997070312</ele>
        <time>2012-04-07T10:27:14Z</time>
      </trkpt>
      <trkpt lat="45.60463" lon="4.50354">
        <ele>731.70043945312</ele>
        <time>2012-04-07T10:27:20Z</time>
      </trkpt>
      <trkpt lat="45.60485" lon="4.50355">
        <ele>731.70043945312</ele>
        <time>2012-04-07T10:27:25Z</time>
      </trkpt>
      <trkpt lat="45.60489" lon="4.50355">
        <ele>731.70043945312</ele>
        <time>2012-04-07T10:27:26Z</time>
      </trkpt>
      <trkpt lat="45.60505" lon="4.5034">
        <ele>730.25854492188</ele>
        <time>2012-04-07T10:27:30Z</time>
      </trkpt>
      <trkpt lat="45.60526" lon="4.50293">
        <ele>726.41333007812</ele>
        <time>2012-04-07T10:27:35Z</time>
      </trkpt>
      <trkpt lat="45.60553" lon="4.50233">
        <ele>722.56811523438</ele>
        <time>2012-04-07T10:27:40Z</time>
      </trkpt>
      <trkpt lat="45.60559" lon="4.50221">
        <ele>722.08740234375</ele>
        <time>2012-04-07T10:27:41Z</time>
      </trkpt>
      <trkpt lat="45.60585" lon="4.5019">
        <ele>720.16479492188</ele>
        <time>2012-04-07T10:27:45Z</time>
      </trkpt>
      <trkpt lat="45.60589" lon="4.50186">
        <ele>719.20361328125</ele>
        <time>2012-04-07T10:27:46Z</time>
      </trkpt>
      <trkpt lat="45.6062" lon="4.50158">
        <ele>716.31958007812</ele>
        <time>2012-04-07T10:27:53Z</time>
      </trkpt>
      <trkpt lat="45.60659" lon="4.50123">
        <ele>713.435546875</ele>
        <time>2012-04-07T10:28:01Z</time>
      </trkpt>
      <trkpt lat="45.60703" lon="4.50085">
        <ele>710.07080078125</ele>
        <time>2012-04-07T10:28:09Z</time>
      </trkpt>
      <trkpt lat="45.60728" lon="4.50081">
        <ele>708.1484375</ele>
        <time>2012-04-07T10:28:13Z</time>
      </trkpt>
      <trkpt lat="45.60757" lon="4.50085">
        <ele>706.2255859375</ele>
        <time>2012-04-07T10:28:17Z</time>
      </trkpt>
      <trkpt lat="45.6078" lon="4.50097">
        <ele>703.82250976562</ele>
        <time>2012-04-07T10:28:20Z</time>
      </trkpt>
      <trkpt lat="45.60809" lon="4.5013">
        <ele>699.97705078125</ele>
        <time>2012-04-07T10:28:25Z</time>
      </trkpt>
      <trkpt lat="45.60809" lon="4.50167">
        <ele>696.1318359375</ele>
        <time>2012-04-07T10:28:30Z</time>
      </trkpt>
      <trkpt lat="45.60803" lon="4.50172">
        <ele>696.1318359375</ele>
        <time>2012-04-07T10:28:31Z</time>
      </trkpt>
      <trkpt lat="45.60771" lon="4.50218">
        <ele>693.728515625</ele>
        <time>2012-04-07T10:28:37Z</time>
      </trkpt>
      <trkpt lat="45.60764" lon="4.50239">
        <ele>693.728515625</ele>
        <time>2012-04-07T10:28:39Z</time>
      </trkpt>
      <trkpt lat="45.60759" lon="4.50272">
        <ele>694.68969726562</ele>
        <time>2012-04-07T10:28:42Z</time>
      </trkpt>
      <trkpt lat="45.60773" lon="4.50299">
        <ele>689.40258789062</ele>
        <time>2012-04-07T10:28:46Z</time>
      </trkpt>
      <trkpt lat="45.60778" lon="4.50298">
        <ele>688.44140625</ele>
        <time>2012-04-07T10:28:47Z</time>
      </trkpt>
      <trkpt lat="45.60809" lon="4.50283">
        <ele>681.7119140625</ele>
        <time>2012-04-07T10:28:53Z</time>
      </trkpt>
      <trkpt lat="45.6084" lon="4.5027">
        <ele>686.51879882812</ele>
        <time>2012-04-07T10:28:59Z</time>
      </trkpt>
      <trkpt lat="45.60849" lon="4.50268">
        <ele>686.99926757812</ele>
        <time>2012-04-07T10:29:01Z</time>
      </trkpt>
      <trkpt lat="45.60857" lon="4.50267">
        <ele>687.96069335938</ele>
        <time>2012-04-07T10:29:03Z</time>
      </trkpt>
      <trkpt lat="45.60881" lon="4.50261">
        <ele>690.36401367188</ele>
        <time>2012-04-07T10:29:11Z</time>
      </trkpt>
      <trkpt lat="45.609" lon="4.50252">
        <ele>689.88330078125</ele>
        <time>2012-04-07T10:29:17Z</time>
      </trkpt>
      <trkpt lat="45.60935" lon="4.50236">
        <ele>691.80590820312</ele>
        <time>2012-04-07T10:29:27Z</time>
      </trkpt>
      <trkpt lat="45.6096" lon="4.50233">
        <ele>692.76733398438</ele>
        <time>2012-04-07T10:29:34Z</time>
      </trkpt>
      <trkpt lat="45.60995" lon="4.50236">
        <ele>694.20922851562</ele>
        <time>2012-04-07T10:29:44Z</time>
      </trkpt>
      <trkpt lat="45.61028" lon="4.50234">
        <ele>695.17041015625</ele>
        <time>2012-04-07T10:29:54Z</time>
      </trkpt>
      <trkpt lat="45.61056" lon="4.50229">
        <ele>698.53491210938</ele>
        <time>2012-04-07T10:30:03Z</time>
      </trkpt>
      <trkpt lat="45.6108" lon="4.5022">
        <ele>699.97705078125</ele>
        <time>2012-04-07T10:30:11Z</time>
      </trkpt>
      <trkpt lat="45.61107" lon="4.50198">
        <ele>700.4580078125</ele>
        <time>2012-04-07T10:30:21Z</time>
      </trkpt>
      <trkpt lat="45.61139" lon="4.50167">
        <ele>700.9384765625</ele>
        <time>2012-04-07T10:30:33Z</time>
      </trkpt>
      <trkpt lat="45.61165" lon="4.50145">
        <ele>700.9384765625</ele>
        <time>2012-04-07T10:30:41Z</time>
      </trkpt>
      <trkpt lat="45.61193" lon="4.5013">
        <ele>700.9384765625</ele>
        <time>2012-04-07T10:30:47Z</time>
      </trkpt>
      <trkpt lat="45.61232" lon="4.50101">
        <ele>699.97705078125</ele>
        <time>2012-04-07T10:30:54Z</time>
      </trkpt>
      <trkpt lat="45.61273" lon="4.50071">
        <ele>699.49633789062</ele>
        <time>2012-04-07T10:31:01Z</time>
      </trkpt>
      <trkpt lat="45.61311" lon="4.50053">
        <ele>699.97705078125</ele>
        <time>2012-04-07T10:31:07Z</time>
      </trkpt>
      <trkpt lat="45.61358" lon="4.50036">
        <ele>700.4580078125</ele>
        <time>2012-04-07T10:31:15Z</time>
      </trkpt>
      <trkpt lat="45.61379" lon="4.50028">
        <ele>700.9384765625</ele>
        <time>2012-04-07T10:31:19Z</time>
      </trkpt>
      <trkpt lat="45.61404" lon="4.50024">
        <ele>700.9384765625</ele>
        <time>2012-04-07T10:31:24Z</time>
      </trkpt>
      <trkpt lat="45.61422" lon="4.50006">
        <ele>699.015625</ele>
        <time>2012-04-07T10:31:28Z</time>
      </trkpt>
      <trkpt lat="45.61425" lon="4.49999">
        <ele>698.05444335938</ele>
        <time>2012-04-07T10:31:29Z</time>
      </trkpt>
      <trkpt lat="45.61432" lon="4.49986">
        <ele>697.09301757812</ele>
        <time>2012-04-07T10:31:31Z</time>
      </trkpt>
      <trkpt lat="45.61463" lon="4.49941">
        <ele>694.20922851562</ele>
        <time>2012-04-07T10:31:38Z</time>
      </trkpt>
      <trkpt lat="45.61509" lon="4.49883">
        <ele>691.80590820312</ele>
        <time>2012-04-07T10:31:46Z</time>
      </trkpt>
      <trkpt lat="45.61551" lon="4.49825">
        <ele>688.44140625</ele>
        <time>2012-04-07T10:31:53Z</time>
      </trkpt>
      <trkpt lat="45.61574" lon="4.49769">
        <ele>686.51879882812</ele>
        <time>2012-04-07T10:31:58Z</time>
      </trkpt>
      <trkpt lat="45.6159" lon="4.49708">
        <ele>684.59619140625</ele>
        <time>2012-04-07T10:32:03Z</time>
      </trkpt>
      <trkpt lat="45.61592" lon="4.49654">
        <ele>682.67333984375</ele>
        <time>2012-04-07T10:32:07Z</time>
      </trkpt>
      <trkpt lat="45.61586" lon="4.49601">
        <ele>680.27001953125</ele>
        <time>2012-04-07T10:32:11Z</time>
      </trkpt>
      <trkpt lat="45.61592" lon="4.49562">
        <ele>678.828125</ele>
        <time>2012-04-07T10:32:14Z</time>
      </trkpt>
      <trkpt lat="45.61605" lon="4.49544">
        <ele>677.86669921875</ele>
        <time>2012-04-07T10:32:16Z</time>
      </trkpt>
      <trkpt lat="45.61624" lon="4.4954">
        <ele>676.4248046875</ele>
        <time>2012-04-07T10:32:18Z</time>
      </trkpt>
      <trkpt lat="45.61649" lon="4.49555">
        <ele>674.98291015625</ele>
        <time>2012-04-07T10:32:21Z</time>
      </trkpt>
      <trkpt lat="45.61657" lon="4.49562">
        <ele>674.50219726562</ele>
        <time>2012-04-07T10:32:22Z</time>
      </trkpt>
      <trkpt lat="45.61676" lon="4.49567">
        <ele>672.57958984375</ele>
        <time>2012-04-07T10:32:26Z</time>
      </trkpt>
      <trkpt lat="45.61681" lon="4.49543">
        <ele>670.17626953125</ele>
        <time>2012-04-07T10:32:29Z</time>
      </trkpt>
      <trkpt lat="45.61676" lon="4.49515">
        <ele>667.29223632812</ele>
        <time>2012-04-07T10:32:34Z</time>
      </trkpt>
      <trkpt lat="45.61668" lon="4.49515">
        <ele>666.8115234375</ele>
        <time>2012-04-07T10:32:37Z</time>
      </trkpt>
    </trkseg>
  </trk>
</gpx>